[[{"header":{"parameterUnit":"m.s-1","parameterCategory":1,"la1":31.0,"la2":29.5877,"lo1":-88.7671,"lo2":-86.6584,"dy":0.0162,"dx":0.0185,"nx":115,"ny":88,"refTime":"2024-02-28T18:00:00:Z","depth":0,"parameterNumber":2,"parameterNumberName":"U-component_of_WINDS"},"data":[0.0,0.0,0.0,0.0,0.0,0.0,0.0,0.0,0.0,0.0,0.0,0.0,0.0,0.0,0.0,0.0,0.0,0.0,0.0,0.0,0.0,0.0,0.0,0.0,0.0,0.0,0.0,0.0,0.0,0.0,0.0,0.0,0.0,0.0,0.0,0.0,0.0,0.0,0.0,0.0,0.0,0.0,0.0,0.0,0.0,0.0,0.0,0.0,0.0,0.0,0.0,0.0,0.0,0.0,0.0,0.0,0.0,0.0,0.0,0.0,0.0,0.0,0.0,0.0,0.0,0.0,0.0,0.0,0.0,0.0,0.0,0.0,0.0,0.0,0.0,0.0,0.0,0.0,0.0,0.0,0.0,0.0,0.0,0.0,0.0,0.0,0.0,0.0,0.0,0.0,0.0,0.0,0.0,0.0,0.0,0.0,0.0,0.0,0.0,0.0,0.0,0.0,0.0,0.0,0.0,0.0,0.0,0.0,0.0,0.0,0.0,0.0,0.0,0.0,0.0,0.0,0.0,0.0,0.0,0.0,0.0,0.0,0.0,0.0,0.0,0.0,0.0,0.0,0.0,0.0,0.0,0.0,0.0,0.0,0.0,0.0,0.0,0.0,0.0,0.0,0.0,0.0,0.0,0.0,0.0,0.0,0.0,0.0,0.0,0.0,0.0,0.0,0.0,0.0,0.0,0.0,0.0,0.0,0.0,0.0,0.0,0.0,0.0,0.0,0.0,0.0,0.0,0.0,0.0,0.0,0.0,0.0,0.0,0.0,0.0,0.0,0.0,0.0,0.0,0.0,0.0,0.0,0.0,0.0,0.0,0.0,0.0,0.0,0.0,0.0,0.0,0.0,0.0,0.0,0.0,0.0,0.0,0.0,0.0,0.0,0.0,0.0,0.0,0.0,0.0,0.0,0.0,0.0,0.0,0.0,0.0,0.0,0.0,0.0,0.0,0.0,0.0,0.0,0.0,0.0,0.0,0.0,0.0,0.0,0.0,0.0,0.0,0.0,0.0,0.0,0.0,0.0,0.0,0.0,0.0,0.0,0.0,0.0,0.0,0.0,0.0,0.0,0.0,0.0,0.0,0.0,0.0,0.0,0.0,0.0,0.0,0.0,0.0,0.0,0.0,0.0,0.0,0.0,0.0,0.0,0.0,0.0,0.0,0.0,0.0,0.0,0.0,0.0,0.0,0.0,0.0,0.0,0.0,0.0,0.0,0.0,0.0,0.0,0.0,0.0,0.0,0.0,0.0,0.0,0.0,0.0,0.0,0.0,0.0,0.0,0.0,0.0,0.0,0.0,0.0,0.0,0.0,0.0,0.0,0.0,0.0,0.0,0.0,0.0,0.0,0.0,0.0,0.0,0.0,0.0,0.0,0.0,0.0,0.0,0.0,0.0,0.0,0.0,0.0,0.0,0.0,0.0,0.0,0.0,0.0,0.0,0.0,0.0,0.0,0.0,0.0,0.0,0.0,0.0,0.0,0.0,0.0,0.0,0.0,0.0,0.0,0.0,0.0,0.0,0.0,0.0,0.0,0.0,0.0,0.0,0.0,0.0,0.0,0.0,0.0,0.0,0.0,0.0,0.0,0.0,0.0,0.0,0.0,0.0,0.0,0.0,0.0,0.0,0.0,0.0,0.0,0.0,0.0,0.0,0.0,0.0,0.0,0.0,0.0,0.0,0.0,0.0,0.0,0.0,0.0,0.0,0.0,0.0,0.0,0.0,0.0,0.0,0.0,0.0,0.0,0.0,0.0,0.0,0.0,0.0,0.0,0.0,0.0,0.0,0.0,0.0,0.0,0.0,0.0,0.0,0.0,0.0,0.0,0.0,0.0,0.0,0.0,0.0,0.0,0.0,0.0,0.0,0.0,0.0,0.0,0.0,0.0,0.0,0.0,0.0,0.0,0.0,0.0,0.0,0.0,0.0,0.0,0.0,0.0,0.0,0.0,0.0,0.0,0.0,0.0,0.0,0.0,0.0,0.0,0.0,0.0,0.0,0.0,0.0,0.0,0.0,0.0,0.0,0.0,0.0,0.0,0.0,0.0,0.0,0.0,0.0,0.0,0.0,0.0,0.0,0.0,0.0,0.0,0.0,0.0,0.0,0.0,0.0,0.0,0.0,0.0,0.0,0.0,0.0,0.0,0.0,0.0,0.0,0.0,0.0,0.0,0.0,0.0,0.0,0.0,0.0,0.0,0.0,0.0,0.0,0.0,0.0,0.0,0.0,0.0,0.0,0.0,0.0,0.0,0.0,0.0,0.0,0.0,0.0,0.0,0.0,0.0,0.0,0.0,0.0,0.0,0.0,0.0,0.0,0.0,0.0,0.0,0.0,0.0,0.0,0.0,0.0,0.0,0.0,0.0,0.0,0.0,0.0,0.0,0.0,0.0,0.0,0.0,0.0,0.0,0.0,0.0,0.0,0.0,0.0,0.0,0.0,0.0,0.0,0.0,0.0,0.0,0.0,0.0,0.0,0.0,0.0,0.0,0.0,0.0,0.0,0.0,0.0,0.0,0.0,0.0,0.0,0.0,0.0,0.0,0.0,0.0,0.0,0.0,0.0,0.0,0.0,0.0,0.0,0.0,0.0,0.0,0.0,0.0,0.0,0.0,0.0,0.0,0.0,0.0,0.0,0.0,0.0,0.0,0.0,0.0,0.0,0.0,0.0,0.0,0.0,0.0,0.0,0.0,0.0,0.0,0.0,0.0,0.0,0.0,0.0,0.0,0.0,0.0,0.0,0.0,0.0,0.0,0.0,0.0,0.0,0.0,0.0,0.0,0.0,0.0,0.0,0.0,0.0,0.0,0.0,0.0,0.0,0.0,0.0,0.0,0.0,0.0,0.0,0.0,0.0,0.0,0.0,0.0,0.0,0.0,0.0,0.0,0.0,0.0,0.0,0.0,0.0,0.0,0.0,0.0,0.0,0.0,0.0,0.0,0.0,0.0,0.0,0.0,0.0,0.0,0.0,0.0,0.0,0.0,0.0,0.0,0.0,0.0,0.0,0.0,0.0,0.0,0.0,0.0,0.0,0.0,0.0,0.0,0.0,0.0,0.0,0.0,0.0,0.0,0.0,0.0,0.0,0.0,0.0,0.0,0.0,0.0,0.0,0.0,0.0,0.0,0.0,0.0,0.0,0.0,0.0,0.0,0.0,0.0,0.0,0.0,0.0,0.0,0.0,0.0,0.0,0.0,0.0,0.0,0.0,0.0,0.0,0.0,0.0,0.0,0.0,0.0,0.0,0.0,0.0,0.0,0.0,0.0,0.0,0.0,0.0,0.0,0.0,0.0,0.0,0.0,0.0,0.0,0.0,0.0,0.0,0.0,0.0,0.0,0.0,0.0,0.0,0.0,0.0,0.0,0.0,0.0,0.0,0.0,0.0,0.0,0.0,0.0,0.0,0.0,0.0,0.0,0.0,0.0,0.0,0.0,0.0,0.0,0.0,0.0,0.0,0.0,0.0,0.0,0.0,0.0,0.0,0.0,0.0,0.0,0.0,0.0,0.0,0.0,0.0,0.0,0.0,0.0,0.0,0.0,0.0,0.0,0.0,0.0,0.0,0.0,0.0,0.0,0.0,0.0,0.0,0.0,0.0,0.0,0.0,0.0,0.0,0.0,0.0,0.0,0.0,0.0,0.0,0.0,0.0,0.0,0.0,0.0,0.0,0.0,0.0,0.0,0.0,0.0,0.0,0.0,0.0,0.0,0.0,0.0,0.0,0.0,0.0,0.0,0.0,0.0,0.0,0.0,0.0,0.0,0.0,0.0,0.0,0.0,0.0,0.0,0.0,0.0,0.0,0.0,0.0,0.0,0.0,0.0,0.0,0.0,0.0,0.0,0.0,0.0,0.0,0.0,0.0,0.0,0.0,0.0,0.0,0.0,0.0,0.0,0.0,0.0,0.0,0.0,0.0,0.0,0.0,0.0,0.0,0.0,0.0,0.0,0.0,0.0,0.0,0.0,0.0,0.0,0.0,0.0,0.0,0.0,0.0,0.0,0.0,0.0,0.0,0.0,0.0,0.0,0.0,0.0,0.0,0.0,0.0,0.0,0.0,0.0,0.0,0.0,0.0,0.0,0.0,0.0,0.0,0.0,0.0,0.0,0.0,0.0,0.0,0.0,0.0,0.0,0.0,0.0,0.0,0.0,0.0,0.0,0.0,0.0,0.0,0.0,0.0,0.0,0.0,0.0,0.0,0.0,0.0,0.0,0.0,0.0,0.0,0.0,0.0,0.0,0.0,0.0,0.0,0.0,0.0,0.0,0.0,-2.8661,0.0,0.0,0.0,0.0,0.0,0.0,0.0,0.0,0.0,0.0,0.0,0.0,0.0,0.0,0.0,0.0,0.0,0.0,0.0,0.0,0.0,0.0,0.0,0.0,0.0,0.0,0.0,0.0,0.0,0.0,0.0,0.0,0.0,0.0,0.0,0.0,0.0,0.0,0.0,0.0,0.0,0.0,0.0,0.0,0.0,0.0,0.0,0.0,0.0,0.0,0.0,0.0,0.0,0.0,0.0,0.0,0.0,0.0,0.0,0.0,0.0,0.0,0.0,0.0,0.0,0.0,0.0,0.0,0.0,0.0,0.0,0.0,0.0,0.0,0.0,0.0,0.0,0.0,0.0,0.0,0.0,0.0,0.0,0.0,0.0,0.0,0.0,0.0,0.0,0.0,0.0,0.0,0.0,0.0,0.0,0.0,0.0,0.0,0.0,0.0,0.0,0.0,0.0,0.0,0.0,0.0,0.0,0.0,0.0,0.0,-2.8551,-2.8871,-2.9286,-2.9016,-2.8006,0.0,0.0,0.0,0.0,0.0,0.0,0.0,0.0,0.0,0.0,0.0,0.0,0.0,0.0,0.0,0.0,0.0,0.0,0.0,0.0,0.0,0.0,0.0,0.0,0.0,0.0,0.0,0.0,0.0,0.0,0.0,0.0,0.0,0.0,0.0,0.0,0.0,0.0,0.0,0.0,0.0,0.0,0.0,0.0,0.0,0.0,0.0,0.0,0.0,0.0,0.0,0.0,0.0,0.0,0.0,0.0,0.0,0.0,0.0,0.0,0.0,0.0,0.0,0.0,0.0,0.0,0.0,0.0,0.0,0.0,0.0,0.0,0.0,0.0,0.0,0.0,0.0,0.0,0.0,0.0,0.0,0.0,0.0,0.0,0.0,0.0,0.0,0.0,0.0,0.0,0.0,0.0,0.0,0.0,0.0,0.0,0.0,0.0,0.0,0.0,0.0,0.0,0.0,0.0,0.0,0.0,0.0,0.0,0.0,0.0,0.0,0.0,-2.8583,-2.8551,-2.7556,0.0,0.0,0.0,0.0,0.0,0.0,0.0,0.0,0.0,0.0,0.0,0.0,0.0,0.0,0.0,0.0,0.0,0.0,0.0,0.0,0.0,0.0,0.0,0.0,0.0,0.0,0.0,0.0,0.0,0.0,0.0,0.0,0.0,0.0,0.0,0.0,0.0,0.0,0.0,0.0,0.0,0.0,0.0,0.0,0.0,0.0,0.0,0.0,0.0,0.0,0.0,0.0,0.0,0.0,0.0,0.0,0.0,0.0,0.0,0.0,0.0,0.0,0.0,0.0,0.0,0.0,0.0,0.0,0.0,0.0,0.0,0.0,0.0,0.0,0.0,0.0,0.0,0.0,0.0,0.0,0.0,0.0,0.0,0.0,0.0,0.0,0.0,0.0,0.0,0.0,0.0,0.0,0.0,0.0,0.0,0.0,0.0,0.0,0.0,0.0,0.0,0.0,0.0,0.0,0.0,0.0,0.0,0.0,0.0,0.0,-2.7776,-2.8384,-2.7941,0.0,-2.749,0.0,0.0,0.0,0.0,0.0,0.0,0.0,0.0,0.0,0.0,0.0,0.0,0.0,0.0,0.0,0.0,0.0,0.0,0.0,0.0,0.0,0.0,0.0,0.0,0.0,0.0,0.0,0.0,0.0,0.0,0.0,0.0,0.0,0.0,0.0,0.0,0.0,0.0,0.0,0.0,0.0,0.0,0.0,0.0,0.0,0.0,0.0,0.0,0.0,0.0,0.0,0.0,0.0,0.0,0.0,0.0,0.0,0.0,0.0,0.0,0.0,0.0,0.0,0.0,0.0,0.0,0.0,0.0,0.0,0.0,0.0,0.0,0.0,0.0,0.0,0.0,0.0,0.0,0.0,0.0,0.0,0.0,0.0,0.0,0.0,0.0,0.0,0.0,0.0,0.0,0.0,0.0,0.0,0.0,0.0,0.0,0.0,0.0,0.0,0.0,0.0,0.0,0.0,0.0,0.0,0.0,0.0,0.0,0.0,0.0,-2.7623,-2.7908,-2.7656,-2.7689,0.0,0.0,0.0,0.0,0.0,0.0,0.0,0.0,0.0,0.0,0.0,0.0,0.0,0.0,0.0,0.0,0.0,0.0,0.0,0.0,0.0,0.0,0.0,0.0,0.0,0.0,0.0,0.0,0.0,0.0,0.0,0.0,0.0,0.0,0.0,0.0,0.0,0.0,0.0,0.0,0.0,0.0,0.0,0.0,0.0,0.0,0.0,0.0,0.0,0.0,0.0,0.0,0.0,0.0,0.0,0.0,0.0,0.0,0.0,0.0,0.0,0.0,0.0,0.0,0.0,0.0,0.0,0.0,0.0,0.0,0.0,0.0,0.0,0.0,0.0,0.0,0.0,0.0,0.0,0.0,0.0,0.0,0.0,0.0,0.0,0.0,0.0,0.0,0.0,0.0,0.0,0.0,0.0,0.0,0.0,0.0,0.0,0.0,0.0,0.0,0.0,0.0,0.0,0.0,0.0,0.0,0.0,0.0,0.0,0.0,-2.7503,-2.7503,-2.7503,-2.7503,-2.7709,-2.8189,0.0,0.0,0.0,0.0,0.0,0.0,0.0,0.0,0.0,0.0,0.0,0.0,0.0,0.0,0.0,0.0,0.0,0.0,0.0,0.0,0.0,0.0,0.0,0.0,0.0,0.0,0.0,0.0,0.0,0.0,0.0,0.0,0.0,0.0,0.0,0.0,0.0,0.0,0.0,0.0,0.0,0.0,0.0,0.0,0.0,0.0,0.0,0.0,0.0,0.0,0.0,0.0,0.0,0.0,0.0,0.0,0.0,0.0,0.0,0.0,0.0,0.0,0.0,0.0,0.0,0.0,0.0,0.0,0.0,0.0,0.0,0.0,0.0,0.0,0.0,0.0,0.0,0.0,0.0,0.0,0.0,0.0,0.0,0.0,0.0,0.0,0.0,0.0,0.0,0.0,0.0,0.0,0.0,0.0,0.0,0.0,0.0,0.0,0.0,0.0,0.0,0.0,0.0,0.0,0.0,0.0,0.0,0.0,-2.7503,-2.7503,-2.7503,-2.7503,-2.7503,-2.7523,0.0,0.0,0.0,0.0,0.0,0.0,0.0,0.0,0.0,0.0,0.0,0.0,0.0,0.0,0.0,0.0,0.0,0.0,0.0,0.0,0.0,0.0,0.0,0.0,0.0,0.0,0.0,0.0,0.0,0.0,0.0,0.0,0.0,0.0,0.0,0.0,0.0,0.0,0.0,0.0,0.0,0.0,0.0,0.0,0.0,0.0,0.0,0.0,0.0,0.0,0.0,0.0,0.0,0.0,0.0,0.0,0.0,0.0,0.0,0.0,0.0,0.0,0.0,0.0,0.0,0.0,0.0,0.0,0.0,0.0,0.0,0.0,0.0,0.0,0.0,0.0,0.0,0.0,0.0,0.0,0.0,0.0,0.0,0.0,0.0,0.0,0.0,0.0,0.0,0.0,0.0,0.0,0.0,0.0,0.0,0.0,0.0,0.0,0.0,0.0,0.0,0.0,0.0,0.0,0.0,0.0,0.0,0.0,0.0,-2.7503,-2.7503,-2.7503,-2.7503,-2.7503,-2.7503,0.0,0.0,0.0,0.0,0.0,0.0,0.0,0.0,0.0,0.0,0.0,0.0,0.0,0.0,0.0,0.0,0.0,0.0,0.0,0.0,0.0,0.0,0.0,0.0,0.0,0.0,0.0,0.0,0.0,0.0,0.0,0.0,0.0,0.0,0.0,0.0,0.0,0.0,0.0,0.0,0.0,0.0,0.0,0.0,0.0,0.0,0.0,0.0,0.0,0.0,0.0,0.0,0.0,0.0,0.0,0.0,0.0,0.0,0.0,0.0,0.0,0.0,0.0,0.0,0.0,0.0,0.0,0.0,0.0,0.0,0.0,0.0,0.0,0.0,0.0,0.0,0.0,0.0,0.0,0.0,0.0,0.0,0.0,0.0,0.0,0.0,0.0,0.0,0.0,0.0,0.0,0.0,0.0,0.0,0.0,0.0,0.0,0.0,0.0,0.0,0.0,0.0,0.0,0.0,0.0,0.0,0.0,0.0,0.0,-2.7503,0.0,-2.7503,-2.7503,-2.7503,-2.7503,0.0,0.0,0.0,0.0,0.0,0.0,0.0,0.0,0.0,0.0,0.0,0.0,0.0,0.0,0.0,0.0,0.0,0.0,0.0,0.0,0.0,0.0,0.0,0.0,0.0,0.0,0.0,0.0,0.0,0.0,0.0,0.0,0.0,0.0,0.0,0.0,0.0,0.0,0.0,0.0,0.0,0.0,0.0,0.0,0.0,0.0,0.0,0.0,0.0,0.0,0.0,0.0,0.0,0.0,0.0,0.0,0.0,0.0,0.0,0.0,0.0,0.0,0.0,0.0,0.0,0.0,0.0,0.0,0.0,0.0,0.0,0.0,0.0,0.0,0.0,0.0,0.0,0.0,0.0,0.0,0.0,0.0,0.0,0.0,0.0,0.0,0.0,0.0,0.0,0.0,0.0,0.0,0.0,0.0,0.0,0.0,0.0,0.0,0.0,0.0,0.0,0.0,0.0,0.0,0.0,0.0,0.0,0.0,-2.7503,-2.7503,-2.7503,-2.7503,-2.7503,-2.7503,-2.7503,0.0,0.0,0.0,0.0,0.0,0.0,0.0,0.0,0.0,0.0,0.0,0.0,0.0,0.0,0.0,0.0,0.0,0.0,0.0,0.0,0.0,0.0,0.0,0.0,0.0,0.0,0.0,0.0,0.0,0.0,0.0,0.0,0.0,0.0,0.0,0.0,0.0,0.0,0.0,0.0,0.0,0.0,0.0,0.0,0.0,0.0,0.0,0.0,0.0,0.0,0.0,0.0,0.0,0.0,0.0,0.0,0.0,0.0,0.0,0.0,0.0,0.0,0.0,0.0,0.0,0.0,0.0,0.0,0.0,0.0,0.0,0.0,0.0,0.0,0.0,0.0,0.0,0.0,0.0,0.0,0.0,0.0,0.0,0.0,0.0,0.0,0.0,0.0,0.0,0.0,0.0,0.0,0.0,0.0,0.0,0.0,0.0,0.0,0.0,0.0,0.0,0.0,0.0,0.0,0.0,0.0,0.0,0.0,0.0,-2.7503,-2.7503,-2.7503,-2.7503,-2.7503,-2.7503,0.0,0.0,0.0,0.0,0.0,0.0,0.0,0.0,0.0,0.0,0.0,0.0,0.0,0.0,0.0,0.0,0.0,0.0,0.0,0.0,0.0,0.0,0.0,0.0,0.0,0.0,0.0,0.0,0.0,0.0,0.0,0.0,0.0,0.0,0.0,0.0,0.0,0.0,0.0,0.0,0.0,0.0,0.0,0.0,0.0,0.0,0.0,0.0,0.0,0.0,0.0,0.0,0.0,0.0,0.0,0.0,0.0,0.0,0.0,0.0,0.0,0.0,0.0,0.0,0.0,0.0,0.0,0.0,0.0,0.0,0.0,0.0,0.0,0.0,0.0,0.0,0.0,0.0,0.0,0.0,0.0,0.0,0.0,0.0,0.0,0.0,0.0,0.0,0.0,0.0,0.0,0.0,0.0,0.0,0.0,0.0,0.0,0.0,0.0,0.0,0.0,0.0,0.0,0.0,0.0,0.0,0.0,0.0,0.0,-2.7503,-2.7503,-2.7503,-2.7503,-2.7503,-2.7503,-2.7503,0.0,0.0,0.0,0.0,0.0,0.0,0.0,0.0,0.0,0.0,0.0,0.0,0.0,0.0,0.0,0.0,0.0,0.0,0.0,0.0,0.0,0.0,0.0,0.0,0.0,0.0,0.0,0.0,0.0,0.0,0.0,0.0,0.0,0.0,0.0,0.0,0.0,0.0,0.0,0.0,0.0,0.0,0.0,0.0,0.0,0.0,0.0,0.0,0.0,0.0,0.0,0.0,0.0,0.0,0.0,0.0,0.0,0.0,0.0,0.0,0.0,0.0,0.0,0.0,0.0,0.0,0.0,0.0,0.0,0.0,0.0,0.0,0.0,0.0,0.0,0.0,0.0,0.0,0.0,0.0,0.0,0.0,0.0,0.0,0.0,0.0,0.0,0.0,0.0,0.0,0.0,0.0,0.0,0.0,0.0,0.0,0.0,0.0,0.0,0.0,0.0,0.0,0.0,0.0,0.0,0.0,0.0,0.0,-2.7503,-2.7503,-2.7503,-2.7503,-2.7503,-2.7503,0.0,0.0,0.0,0.0,0.0,0.0,0.0,0.0,0.0,0.0,0.0,0.0,0.0,0.0,0.0,0.0,0.0,0.0,0.0,0.0,0.0,0.0,0.0,0.0,0.0,0.0,0.0,0.0,0.0,0.0,0.0,0.0,0.0,0.0,0.0,0.0,0.0,0.0,0.0,0.0,0.0,0.0,0.0,0.0,0.0,0.0,0.0,0.0,0.0,0.0,0.0,0.0,0.0,0.0,0.0,0.0,0.0,0.0,0.0,0.0,0.0,0.0,0.0,0.0,0.0,0.0,0.0,0.0,0.0,0.0,0.0,0.0,0.0,0.0,0.0,0.0,0.0,0.0,0.0,0.0,0.0,0.0,0.0,0.0,0.0,0.0,0.0,0.0,0.0,0.0,0.0,0.0,0.0,0.0,0.0,0.0,0.0,0.0,0.0,0.0,0.0,0.0,0.0,0.0,0.0,0.0,0.0,0.0,0.0,-2.7503,-2.7503,-2.7503,-2.7503,-2.7503,-2.7503,0.0,0.0,0.0,0.0,0.0,0.0,0.0,0.0,0.0,0.0,0.0,0.0,0.0,0.0,0.0,0.0,0.0,0.0,0.0,0.0,0.0,0.0,0.0,0.0,0.0,0.0,0.0,0.0,0.0,0.0,0.0,0.0,0.0,0.0,0.0,0.0,0.0,0.0,0.0,0.0,0.0,0.0,0.0,0.0,0.0,0.0,0.0,0.0,0.0,0.0,0.0,0.0,0.0,0.0,0.0,0.0,0.0,0.0,0.0,0.0,0.0,0.0,0.0,0.0,0.0,0.0,0.0,0.0,0.0,0.0,0.0,0.0,0.0,0.0,0.0,0.0,0.0,0.0,0.0,0.0,0.0,0.0,0.0,0.0,0.0,0.0,0.0,0.0,0.0,0.0,0.0,0.0,0.0,0.0,0.0,0.0,0.0,0.0,0.0,0.0,0.0,0.0,0.0,0.0,0.0,0.0,0.0,0.0,-2.7503,-2.7503,-2.7503,-2.7503,-2.7503,-2.7503,-2.7503,0.0,0.0,0.0,0.0,0.0,0.0,0.0,0.0,0.0,0.0,0.0,0.0,0.0,0.0,0.0,0.0,0.0,0.0,0.0,0.0,0.0,0.0,0.0,0.0,0.0,0.0,0.0,0.0,0.0,0.0,0.0,0.0,0.0,0.0,0.0,0.0,0.0,0.0,0.0,0.0,0.0,0.0,0.0,0.0,0.0,0.0,0.0,0.0,0.0,0.0,0.0,0.0,0.0,0.0,0.0,0.0,0.0,0.0,0.0,0.0,0.0,0.0,0.0,0.0,0.0,0.0,0.0,0.0,0.0,0.0,0.0,0.0,0.0,0.0,0.0,0.0,0.0,0.0,0.0,0.0,0.0,0.0,0.0,0.0,0.0,0.0,0.0,0.0,0.0,0.0,0.0,0.0,0.0,0.0,0.0,0.0,0.0,0.0,0.0,0.0,0.0,0.0,0.0,0.0,0.0,0.0,0.0,0.0,-2.7436,-2.7503,-2.7503,-2.7503,-2.7503,-2.7503,-2.7503,0.0,0.0,0.0,0.0,0.0,0.0,0.0,0.0,0.0,0.0,0.0,0.0,0.0,0.0,0.0,0.0,0.0,0.0,0.0,0.0,0.0,0.0,0.0,0.0,0.0,0.0,0.0,0.0,0.0,0.0,0.0,0.0,0.0,0.0,0.0,0.0,0.0,0.0,0.0,0.0,0.0,0.0,0.0,0.0,0.0,0.0,0.0,0.0,0.0,0.0,0.0,0.0,0.0,0.0,0.0,0.0,0.0,0.0,0.0,0.0,0.0,0.0,0.0,0.0,0.0,0.0,0.0,0.0,0.0,0.0,0.0,0.0,0.0,0.0,0.0,0.0,0.0,0.0,0.0,0.0,0.0,0.0,0.0,0.0,0.0,0.0,0.0,0.0,0.0,0.0,0.0,0.0,0.0,0.0,0.0,0.0,0.0,0.0,0.0,0.0,0.0,0.0,0.0,0.0,0.0,0.0,0.0,0.0,-2.7053,-2.7503,-2.7503,-2.7503,-2.7503,-2.7503,-2.7503,0.0,0.0,0.0,0.0,0.0,0.0,0.0,0.0,0.0,0.0,0.0,0.0,0.0,0.0,0.0,0.0,0.0,0.0,0.0,0.0,0.0,0.0,0.0,0.0,0.0,0.0,0.0,0.0,0.0,0.0,0.0,0.0,0.0,0.0,0.0,0.0,0.0,0.0,0.0,0.0,0.0,0.0,0.0,0.0,0.0,0.0,0.0,0.0,-3.2824,0.0,0.0,0.0,0.0,0.0,0.0,0.0,0.0,0.0,0.0,0.0,0.0,0.0,0.0,0.0,0.0,0.0,0.0,0.0,0.0,0.0,0.0,0.0,0.0,0.0,0.0,0.0,0.0,0.0,0.0,0.0,0.0,0.0,0.0,0.0,0.0,0.0,0.0,0.0,0.0,0.0,0.0,0.0,0.0,0.0,0.0,0.0,0.0,0.0,0.0,0.0,0.0,0.0,0.0,0.0,0.0,0.0,0.0,0.0,-2.685,-2.7121,-2.7378,-2.7622,-2.7894,-2.7881,-2.7765,0.0,0.0,0.0,0.0,0.0,0.0,0.0,0.0,0.0,0.0,0.0,0.0,0.0,0.0,0.0,0.0,0.0,0.0,0.0,0.0,0.0,0.0,0.0,0.0,0.0,0.0,0.0,0.0,0.0,0.0,0.0,0.0,0.0,0.0,0.0,0.0,0.0,0.0,0.0,0.0,0.0,0.0,0.0,0.0,0.0,0.0,0.0,0.0,0.0,0.0,0.0,0.0,0.0,0.0,0.0,0.0,0.0,0.0,0.0,0.0,0.0,0.0,0.0,0.0,0.0,0.0,0.0,0.0,0.0,0.0,0.0,0.0,0.0,0.0,0.0,0.0,0.0,0.0,0.0,0.0,0.0,0.0,0.0,0.0,0.0,0.0,0.0,0.0,0.0,0.0,0.0,0.0,0.0,0.0,0.0,0.0,0.0,0.0,0.0,0.0,0.0,0.0,0.0,0.0,0.0,0.0,0.0,-2.6669,-2.6741,-2.6842,-2.7331,-2.7806,-2.8226,-2.8206,-2.8015,-2.7634,0.0,0.0,0.0,0.0,0.0,0.0,0.0,0.0,0.0,0.0,0.0,0.0,0.0,0.0,0.0,0.0,0.0,0.0,0.0,0.0,0.0,0.0,0.0,0.0,0.0,0.0,0.0,0.0,0.0,0.0,0.0,0.0,0.0,0.0,0.0,0.0,0.0,0.0,-3.2966,-3.2947,0.0,0.0,0.0,0.0,0.0,0.0,0.0,0.0,-3.2148,0.0,0.0,0.0,0.0,0.0,0.0,0.0,0.0,0.0,0.0,0.0,0.0,0.0,0.0,0.0,0.0,0.0,0.0,0.0,0.0,0.0,0.0,0.0,0.0,0.0,0.0,0.0,0.0,0.0,0.0,0.0,0.0,0.0,0.0,0.0,0.0,0.0,0.0,0.0,0.0,0.0,0.0,0.0,0.0,0.0,0.0,0.0,0.0,0.0,0.0,0.0,0.0,0.0,0.0,0.0,0.0,-2.5949,-2.6442,-2.6902,-2.7286,-2.786,-2.7982,-2.7569,-2.7545,-2.7728,-2.8157,0.0,0.0,0.0,0.0,0.0,0.0,0.0,0.0,0.0,0.0,0.0,0.0,0.0,0.0,0.0,0.0,0.0,0.0,0.0,0.0,0.0,0.0,0.0,0.0,0.0,0.0,0.0,0.0,0.0,0.0,0.0,0.0,0.0,0.0,0.0,0.0,0.0,0.0,0.0,-3.408,-3.4041,0.0,0.0,0.0,0.0,0.0,0.0,0.0,0.0,-3.1807,0.0,0.0,0.0,0.0,0.0,0.0,0.0,0.0,0.0,0.0,0.0,0.0,0.0,0.0,0.0,0.0,0.0,0.0,0.0,0.0,0.0,0.0,0.0,0.0,0.0,0.0,0.0,0.0,0.0,0.0,0.0,0.0,0.0,0.0,0.0,0.0,0.0,0.0,0.0,0.0,0.0,0.0,0.0,0.0,0.0,0.0,0.0,0.0,0.0,0.0,0.0,0.0,0.0,0.0,0.0,-2.58,-2.6333,-2.6697,-2.695,-2.7491,-2.7789,-2.7789,-2.7841,-2.8255,0.0,0.0,0.0,0.0,0.0,0.0,0.0,0.0,0.0,0.0,0.0,0.0,0.0,0.0,0.0,0.0,0.0,0.0,0.0,0.0,0.0,0.0,0.0,0.0,0.0,0.0,0.0,0.0,0.0,0.0,0.0,0.0,0.0,0.0,0.0,0.0,0.0,0.0,0.0,0.0,-3.3778,-3.3881,-3.426,0.0,0.0,0.0,0.0,0.0,0.0,-3.2437,-3.1927,0.0,0.0,0.0,0.0,0.0,0.0,0.0,0.0,0.0,0.0,0.0,0.0,0.0,0.0,0.0,0.0,0.0,0.0,0.0,0.0,0.0,0.0,0.0,0.0,0.0,0.0,0.0,0.0,0.0,0.0,0.0,0.0,0.0,0.0,0.0,0.0,0.0,0.0,0.0,0.0,0.0,0.0,0.0,0.0,0.0,0.0,0.0,0.0,0.0,0.0,0.0,0.0,0.0,0.0,0.0,-2.5934,-2.6437,-2.6685,-2.6677,-2.7194,-2.7642,-2.8004,-2.7993,-2.8526,0.0,0.0,0.0,0.0,0.0,0.0,0.0,0.0,0.0,0.0,0.0,0.0,0.0,0.0,0.0,0.0,0.0,0.0,0.0,0.0,0.0,0.0,0.0,0.0,0.0,0.0,0.0,0.0,0.0,0.0,0.0,0.0,0.0,0.0,0.0,0.0,0.0,0.0,0.0,0.0,0.0,-3.3542,-3.4005,-3.3728,0.0,0.0,0.0,0.0,-3.2985,-3.229,0.0,0.0,0.0,0.0,0.0,0.0,0.0,0.0,0.0,0.0,0.0,0.0,0.0,0.0,0.0,0.0,0.0,0.0,0.0,0.0,0.0,0.0,0.0,0.0,0.0,0.0,0.0,0.0,0.0,0.0,0.0,0.0,0.0,0.0,0.0,0.0,0.0,0.0,0.0,0.0,0.0,0.0,0.0,0.0,0.0,0.0,0.0,0.0,0.0,0.0,0.0,0.0,0.0,0.0,0.0,0.0,-2.6413,-2.7003,-2.7211,-2.7146,-2.7768,-2.7844,-2.7342,-2.7319,-2.7655,0.0,0.0,0.0,0.0,0.0,0.0,0.0,0.0,0.0,0.0,0.0,0.0,0.0,0.0,0.0,0.0,0.0,0.0,0.0,0.0,0.0,0.0,0.0,0.0,0.0,0.0,0.0,0.0,0.0,0.0,0.0,0.0,0.0,0.0,0.0,0.0,0.0,0.0,0.0,0.0,0.0,-3.3736,-3.3981,-3.3965,-3.3562,0.0,0.0,-3.3013,-3.2518,-3.1919,0.0,0.0,0.0,0.0,0.0,0.0,0.0,0.0,0.0,0.0,0.0,0.0,0.0,0.0,0.0,0.0,0.0,0.0,0.0,0.0,0.0,0.0,0.0,0.0,0.0,0.0,0.0,0.0,0.0,0.0,0.0,0.0,0.0,0.0,0.0,0.0,0.0,0.0,0.0,0.0,0.0,0.0,0.0,0.0,0.0,0.0,0.0,0.0,0.0,0.0,0.0,0.0,0.0,0.0,0.0,-2.6163,-2.6875,-2.7458,-2.7853,-2.8046,-2.8352,-2.8352,-2.8057,-2.8057,-2.8352,0.0,0.0,0.0,0.0,0.0,0.0,0.0,0.0,0.0,0.0,0.0,0.0,0.0,0.0,0.0,0.0,0.0,0.0,0.0,0.0,0.0,0.0,0.0,0.0,0.0,0.0,0.0,0.0,0.0,0.0,0.0,0.0,0.0,0.0,0.0,0.0,0.0,0.0,0.0,0.0,0.0,0.0,-3.3645,-3.3318,0.0,0.0,0.0,-3.222,-3.2302,0.0,0.0,0.0,0.0,0.0,0.0,0.0,0.0,0.0,0.0,0.0,0.0,0.0,0.0,0.0,0.0,0.0,0.0,0.0,0.0,0.0,0.0,0.0,0.0,0.0,0.0,0.0,0.0,0.0,0.0,0.0,0.0,0.0,0.0,0.0,0.0,0.0,0.0,0.0,0.0,0.0,0.0,0.0,0.0,0.0,0.0,0.0,0.0,0.0,0.0,0.0,0.0,0.0,0.0,0.0,0.0,0.0,-2.7587,-2.7966,-2.8333,-2.8677,-2.8689,-2.8689,-2.8689,-2.8689,0.0,0.0,0.0,0.0,0.0,0.0,0.0,0.0,0.0,0.0,0.0,0.0,0.0,0.0,0.0,0.0,0.0,0.0,0.0,0.0,0.0,0.0,0.0,0.0,0.0,0.0,0.0,-2.8689,0.0,0.0,0.0,0.0,0.0,0.0,0.0,0.0,0.0,0.0,0.0,0.0,0.0,0.0,-3.2871,-3.2871,-3.2413,-3.1977,0.0,0.0,-3.1427,-3.1745,-3.1371,-3.1193,0.0,0.0,0.0,0.0,0.0,0.0,0.0,0.0,0.0,0.0,0.0,0.0,0.0,0.0,0.0,0.0,0.0,0.0,0.0,0.0,0.0,0.0,0.0,0.0,0.0,0.0,0.0,0.0,0.0,0.0,0.0,0.0,0.0,0.0,0.0,0.0,0.0,0.0,0.0,0.0,0.0,0.0,0.0,0.0,0.0,0.0,0.0,0.0,0.0,0.0,0.0,0.0,0.0,0.0,0.0,-2.8586,-2.8632,-2.8666,-2.87,-2.8689,-2.8689,-2.8689,-2.8689,-2.8743,0.0,0.0,0.0,0.0,0.0,0.0,0.0,0.0,0.0,0.0,0.0,0.0,0.0,0.0,0.0,0.0,0.0,0.0,0.0,0.0,0.0,0.0,0.0,0.0,0.0,0.0,0.0,0.0,0.0,0.0,0.0,0.0,0.0,0.0,0.0,0.0,0.0,0.0,0.0,0.0,0.0,-3.1439,-3.1439,-3.1395,-3.1116,0.0,0.0,-3.1071,-3.0431,-3.0306,-3.0306,-3.034,0.0,0.0,0.0,0.0,0.0,0.0,0.0,0.0,0.0,0.0,0.0,0.0,0.0,0.0,0.0,0.0,0.0,0.0,0.0,0.0,0.0,0.0,0.0,0.0,0.0,0.0,0.0,0.0,0.0,0.0,0.0,0.0,0.0,0.0,0.0,0.0,0.0,0.0,0.0,0.0,0.0,0.0,0.0,0.0,0.0,0.0,0.0,0.0,0.0,0.0,0.0,0.0,0.0,-2.7062,-2.7897,-2.7908,-2.8463,-2.9551,-2.9343,-2.9194,-2.9194,-2.8861,-2.8861,0.0,0.0,0.0,0.0,0.0,0.0,0.0,0.0,0.0,0.0,0.0,0.0,0.0,0.0,0.0,0.0,0.0,0.0,0.0,0.0,0.0,0.0,0.0,0.0,0.0,0.0,0.0,0.0,-2.963,-2.9711,-2.9917,0.0,0.0,0.0,0.0,0.0,0.0,0.0,0.0,0.0,0.0,-3.1306,-3.1306,-3.0904,0.0,0.0,-3.0442,-3.0532,-3.0261,-3.0216,-3.0216,-3.0216,-3.0442,0.0,0.0,0.0,0.0,0.0,0.0,0.0,0.0,0.0,0.0,0.0,0.0,0.0,0.0,0.0,0.0,0.0,0.0,0.0,0.0,0.0,0.0,0.0,0.0,0.0,0.0,0.0,0.0,0.0,0.0,0.0,0.0,0.0,0.0,0.0,0.0,0.0,0.0,0.0,0.0,0.0,0.0,0.0,0.0,0.0,0.0,0.0,0.0,0.0,0.0,0.0,0.0,-2.6239,-2.6962,-2.6962,-2.7599,-2.8913,-2.8891,-2.8855,-2.8888,-2.8914,-2.8971,0.0,0.0,0.0,0.0,0.0,0.0,0.0,0.0,0.0,0.0,0.0,0.0,0.0,0.0,0.0,0.0,0.0,0.0,0.0,0.0,0.0,0.0,0.0,0.0,0.0,0.0,0.0,0.0,-2.9314,-2.9314,-2.9325,0.0,0.0,0.0,0.0,0.0,0.0,0.0,0.0,0.0,0.0,-3.0982,-3.0937,-3.0532,-3.0216,-3.0216,-3.0216,-3.0216,-3.0216,-3.0216,-3.0216,-3.0216,0.0,0.0,0.0,0.0,0.0,0.0,0.0,0.0,0.0,0.0,0.0,0.0,0.0,0.0,0.0,0.0,0.0,0.0,0.0,0.0,0.0,0.0,0.0,0.0,0.0,0.0,0.0,-2.4488,0.0,0.0,-2.4445,0.0,0.0,0.0,0.0,0.0,0.0,0.0,0.0,0.0,0.0,0.0,0.0,0.0,0.0,0.0,0.0,0.0,0.0,0.0,0.0,0.0,0.0,-2.5941,-2.5982,-2.5993,-2.6059,-2.619,-2.6984,-2.7481,-2.7481,-2.8754,-2.9014,-2.8038,0.0,0.0,0.0,0.0,0.0,0.0,0.0,0.0,0.0,0.0,0.0,0.0,0.0,0.0,0.0,0.0,0.0,0.0,0.0,0.0,0.0,0.0,0.0,0.0,0.0,0.0,-2.7426,-2.7274,-2.7332,0.0,0.0,0.0,0.0,0.0,0.0,0.0,0.0,0.0,0.0,-3.0216,-3.0216,-3.017,-3.017,-3.0125,-3.0136,-3.0182,-3.0182,-3.0205,-3.0193,-3.0216,0.0,0.0,0.0,0.0,0.0,0.0,0.0,0.0,0.0,0.0,0.0,0.0,0.0,0.0,0.0,0.0,0.0,0.0,0.0,0.0,0.0,0.0,0.0,0.0,0.0,0.0,0.0,-2.2173,-2.2173,0.0,0.0,0.0,0.0,0.0,0.0,0.0,0.0,0.0,0.0,0.0,-2.115,-2.123,0.0,0.0,0.0,0.0,0.0,0.0,0.0,0.0,0.0,0.0,0.0,0.0,-2.4132,-2.4366,-2.4776,-2.5432,-2.637,-2.6609,-2.6746,-2.6757,-2.6915,-2.6979,-2.6932,0.0,0.0,0.0,0.0,0.0,0.0,0.0,0.0,0.0,0.0,0.0,0.0,0.0,0.0,0.0,0.0,0.0,0.0,0.0,0.0,0.0,0.0,0.0,0.0,0.0,-2.7568,0.0,0.0,0.0,0.0,0.0,0.0,0.0,0.0,0.0,0.0,0.0,-2.8226,-2.8226,-2.8179,-2.819,-2.8226,-2.8226,-2.8297,0.0,0.0,0.0,0.0,0.0,0.0,0.0,0.0,0.0,0.0,0.0,0.0,0.0,0.0,-3.013,-3.0194,-3.0216,-3.0216,-3.0216,0.0,0.0,0.0,0.0,0.0,0.0,0.0,0.0,0.0,0.0,0.0,0.0,0.0,0.0,-2.0808,0.0,-2.0492,0.0,0.0,0.0,0.0,0.0,0.0,0.0,0.0,-1.9778,-1.9832,-1.984,-2.0012,-2.0309,0.0,-2.0775,-2.1167,0.0,0.0,0.0,0.0,0.0,0.0,0.0,0.0,-2.2919,-2.3282,-2.3706,-2.4402,-2.5262,-2.5551,-2.568,-2.568,-2.5492,-2.5818,-2.6641,-2.6656,-2.6856,0.0,0.0,0.0,0.0,0.0,0.0,0.0,0.0,0.0,0.0,0.0,0.0,0.0,0.0,0.0,0.0,0.0,0.0,0.0,0.0,0.0,0.0,0.0,-2.6147,0.0,0.0,0.0,0.0,0.0,0.0,0.0,0.0,0.0,-2.7132,-2.7179,-2.7179,-2.7179,-2.7179,-2.7251,-2.7407,0.0,0.0,0.0,0.0,0.0,0.0,0.0,-2.9353,-3.0094,-2.9604,-2.9353,-3.0035,-3.0189,-3.0006,-2.9424,0.0,0.0,-2.9528,-2.9592,-2.9581,-2.9581,-2.9349,-2.9181,-2.9526,-2.9349,-2.9216,0.0,0.0,0.0,0.0,0.0,0.0,0.0,0.0,-2.0853,-2.0303,0.0,-1.9438,0.0,0.0,0.0,0.0,-1.9163,-1.9196,0.0,0.0,-1.766,-1.7684,-1.7807,-1.821,-1.8972,-2.0005,-2.0269,-2.0931,-2.1838,-2.1276,0.0,0.0,0.0,0.0,0.0,0.0,-2.2278,-2.2838,-2.2922,-2.2922,-2.2988,-2.3813,-2.4305,-2.4324,-2.4693,-2.5557,-2.6958,-2.6157,-2.6109,-2.7047,-2.7037,0.0,0.0,0.0,0.0,0.0,0.0,0.0,0.0,0.0,0.0,0.0,0.0,0.0,0.0,0.0,0.0,0.0,0.0,0.0,0.0,-2.4784,0.0,0.0,0.0,0.0,0.0,0.0,0.0,0.0,0.0,0.0,-2.6809,-2.7037,-2.7084,-2.7094,0.0,0.0,0.0,0.0,-2.7232,-2.7588,-2.7414,-2.7173,-2.7204,-2.7214,-2.7262,-2.732,0.0,0.0,-2.7351,-2.734,-2.7558,-2.7747,-2.7901,-2.7893,-2.8285,-2.8435,-2.8464,-2.8475,-2.8483,-2.8445,-2.8456,-2.8491,-2.8462,-1.8826,0.0,0.0,0.0,0.0,-1.8626,-1.8534,-1.8357,-1.8357,-1.8218,-1.7948,-1.794,0.0,0.0,0.0,0.0,0.0,0.0,-1.8234,-1.7894,-1.7943,-1.7991,-1.7991,-1.8128,-1.8367,-1.8667,-1.8758,-1.895,-1.9293,-1.9878,-2.0693,-2.1755,0.0,0.0,0.0,0.0,-2.2268,-2.2138,-2.2739,-2.3036,-2.3036,-2.3639,-2.4038,-2.4233,-2.4345,-2.4604,-2.505,-2.4775,-2.4775,-2.506,-2.506,0.0,0.0,0.0,0.0,0.0,0.0,0.0,0.0,0.0,0.0,0.0,0.0,0.0,0.0,0.0,0.0,0.0,0.0,0.0,-2.4637,-2.435,-2.4211,0.0,0.0,0.0,0.0,0.0,0.0,0.0,0.0,0.0,-2.4962,-2.506,-2.506,0.0,0.0,-2.546,-2.5279,-2.5403,-2.5524,-2.5638,-2.6221,0.0,-2.7013,-2.7053,-2.7302,-2.8152,-2.852,-2.8802,-2.9083,-2.9135,-2.8921,-2.8209,-2.8103,-2.7891,-2.7304,-2.7827,-2.8357,-2.8416,-2.8416,-2.8416,-2.8416,-2.8416,-2.8426,-1.7156,-1.7848,-1.7755,-1.7662,-1.7569,-1.7561,-1.7475,-1.7289,-1.7289,-1.7055,-1.6695,-1.6822,-1.6973,-1.7115,-1.7483,0.0,0.0,0.0,-1.7285,-1.6943,-1.6887,-1.6887,-1.69,-1.7008,-1.7308,-1.7717,-1.7843,-1.8102,-1.8549,-1.921,-2.0059,-2.0933,0.0,0.0,-2.2014,-2.232,-2.2447,-2.2443,-2.2975,-2.3287,-2.3385,-2.3777,-2.4044,-2.4202,-2.4211,-2.4211,-2.4211,-2.4211,-2.4211,-2.4211,-2.4211,-2.4489,0.0,0.0,0.0,0.0,0.0,0.0,0.0,0.0,0.0,0.0,0.0,-2.6157,-2.5167,0.0,0.0,0.0,-2.4538,-2.4211,-2.4211,-2.4211,0.0,0.0,0.0,0.0,0.0,0.0,0.0,-2.3813,-2.4005,-2.4211,-2.4211,-2.4349,-2.445,-2.4459,-2.4532,-2.4606,-2.4679,0.0,-2.4882,-2.4986,-2.5599,-2.6114,-2.6353,-2.6349,-2.6605,-2.7258,-2.7568,-2.7815,-2.8041,-2.81,-2.795,-2.7463,-2.7298,-2.716,-2.6708,-2.7208,-2.7678,-2.7678,-2.7688,-2.7678,-2.7678,-2.7678,-2.7688,-1.5704,-1.5758,-1.6662,-1.7084,-1.7063,-1.7055,-1.707,-1.7099,-1.7099,-1.6548,-1.5797,-1.6027,-1.6104,-1.6166,-1.7386,0.0,-1.6526,-1.6553,-1.6074,-1.5167,-1.5173,-1.5167,-1.5179,-1.5415,-1.6089,-1.711,-1.7344,-1.7989,-1.8857,-1.9013,-1.9079,-1.9109,-2.0539,-2.1573,-2.2259,-2.2284,-2.2656,-2.3347,-2.3347,-2.3497,-2.3746,-2.4053,-2.4152,-2.4211,-2.4211,-2.4211,-2.4211,-2.4211,-2.4211,-2.4211,-2.4211,-2.4211,-2.4211,0.0,0.0,0.0,0.0,0.0,0.0,0.0,0.0,0.0,0.0,0.0,0.0,0.0,0.0,0.0,-2.4211,0.0,-2.4211,-2.4211,0.0,0.0,0.0,-2.4211,-2.4211,-2.4211,-2.4211,-2.4211,0.0,0.0,-2.4211,-2.4569,-2.4794,-2.4821,-2.4578,-2.4597,-2.5277,-2.512,-2.5047,-2.5307,-2.5414,-2.5414,-2.5518,-2.5466,-2.5537,-2.5696,-2.547,-2.5629,-2.5703,-2.5703,-2.5708,-2.6102,-2.6067,-2.6186,-2.6581,-2.6654,-2.6582,-2.6654,-2.6663,-2.6673,-2.669,-2.6726,-2.6717,-1.4627,-1.4688,-1.5147,-1.5213,-1.4997,-1.4997,-1.5124,-1.5333,-1.5339,-1.5312,-1.5264,-1.5332,-1.5363,-1.5375,-1.589,-1.6015,-1.577,-1.5974,-1.5968,-1.5704,-1.5704,-1.5698,-1.5704,-1.5765,-1.5954,-1.6212,-1.6274,-1.6418,-1.673,-1.7575,-1.7996,-1.8035,-1.9177,-2.0214,-2.1223,-2.1476,-2.198,-2.2795,-2.2996,-2.3206,-2.3497,-2.3746,-2.4003,-2.4211,-2.4211,-2.4211,-2.4211,-2.4211,-2.4211,-2.4211,-2.4211,-2.4211,-2.4211,-2.4211,0.0,0.0,0.0,0.0,0.0,0.0,0.0,0.0,0.0,-2.4449,-2.4251,0.0,-2.4211,0.0,-2.4211,-2.4211,-2.4211,-2.4211,0.0,0.0,-2.4211,-2.4211,-2.4211,-2.4211,-2.4211,-2.4211,-2.4211,-2.4211,-2.4211,-2.4569,-2.4895,-2.5188,-2.5451,-2.5442,-2.5084,-2.5433,-2.5644,-2.547,-2.5399,-2.5372,-2.5399,-2.5372,-2.5491,-2.5828,-2.5874,-2.5984,-2.6296,-2.6298,-2.6344,-2.6417,-2.6435,-2.6481,-2.6573,-2.6591,-2.6591,-2.6591,-2.6591,-2.6591,-2.6591,-2.6591,-2.6591,-1.4485,-1.4509,-1.4775,-1.4799,-1.4654,-1.466,-1.4745,-1.489,-1.489,-1.4974,-1.5113,-1.5228,-1.5348,-1.5463,-1.5608,-1.5668,-1.568,-1.5825,-1.5885,-1.5885,-1.5885,-1.5885,-1.5885,-1.5885,-1.5885,-1.5885,-1.5885,-1.5885,-1.5939,-1.6518,-1.6906,-1.7021,-1.7596,-1.8561,-1.9804,-2.0823,-2.1669,-2.2248,-2.3032,-2.3605,-2.3861,-2.4176,-2.438,-2.4532,-2.4633,-2.4551,-2.4226,-2.4377,-2.4486,-2.4477,-2.4303,-2.4293,-2.4468,-2.4312,-2.4211,0.0,0.0,0.0,0.0,0.0,0.0,0.0,0.0,0.0,0.0,0.0,-2.4211,-2.4211,-2.4211,-2.4211,-2.4211,-2.4211,-2.4211,-2.4211,-2.4211,-2.4211,-2.4211,-2.4211,-2.4211,-2.4211,-2.4211,-2.4275,-2.4459,-2.4785,-2.5176,-2.5344,-2.5876,-2.6013,-2.5534,-2.5702,-2.5938,-2.5718,-2.5846,-2.5913,-2.5975,-2.5913,-2.5986,-2.6241,-2.6296,-2.6379,-2.6545,-2.6591,-2.6591,-2.6591,-2.6591,-2.6591,-2.6591,-2.6591,-2.6591,-2.6591,-2.6591,-2.6591,-2.6591,-2.6591,-2.6591,-1.4733,-1.4787,-1.5052,-1.5161,-1.5161,-1.5191,-1.5185,-1.5155,-1.5161,-1.5173,-1.5221,-1.5451,-1.568,-1.5885,-1.5885,-1.5885,-1.5885,-1.5885,-1.5885,-1.5885,-1.5885,-1.5885,-1.5885,-1.5885,-1.5885,-1.5885,-1.5885,-1.5885,-1.5885,-1.5922,-1.606,-1.6278,-1.6314,-1.701,-1.8262,-2.0197,-2.1299,-2.1595,-2.3056,-2.3921,-2.4184,-2.4604,-2.4875,-2.4936,-2.5206,-2.5103,-2.4491,-2.4696,-2.4858,-2.4849,-2.44,-2.4236,-2.4536,-2.4117,-2.3791,0.0,-2.2837,0.0,0.0,0.0,0.0,0.0,0.0,0.0,0.0,-2.3845,-2.3795,-2.3795,-2.3795,-2.3795,-2.3786,-2.3795,-2.3845,-2.3945,-2.3994,-2.4044,-2.4202,-2.4053,-2.4044,-2.4202,-2.4053,-2.4158,-2.4711,-2.5124,-2.5362,-2.55,-2.6096,-2.6389,-2.6168,-2.6104,-2.6122,-2.6094,-2.6344,-2.649,-2.6518,-2.6545,-2.6554,-2.6573,-2.6554,-2.6591,-2.6582,-2.6591,-2.6591,-2.6591,-2.6591,-2.6591,-2.6591,-2.6591,-2.6591,-2.6591,-2.6591,-2.6591,-2.6591,-2.6591,-2.6591,-1.4841,-1.5059,-1.5318,-1.5421,-1.5445,-1.5656,-1.562,-1.5427,-1.5427,-1.5541,-1.5741,-1.5795,-1.5837,-1.5885,-1.5885,-1.5885,-1.5885,-1.5885,-1.5885,-1.5885,-1.5885,-1.5885,-1.5885,-1.5885,-1.5885,-1.5885,-1.5885,-1.5885,-1.5891,-1.6109,-1.6229,-1.6284,-1.6507,-1.6861,-1.7395,0.0,0.0,0.0,-2.1587,-2.2355,-2.2675,-2.3912,-2.4666,-2.4875,-2.5197,0.0,-2.521,-2.5262,-2.5313,-2.5252,-2.427,0.0,0.0,0.0,0.0,0.0,0.0,0.0,0.0,0.0,0.0,0.0,-2.1363,-2.1861,-2.2728,-2.2005,-2.1548,-2.1548,-2.154,-2.1548,-2.1548,-2.1548,-2.1861,-2.2728,-2.2828,-2.3188,-2.4044,-2.3388,-2.3138,-2.4044,-2.3397,-2.3346,-2.4587,-2.5124,-2.5491,-2.5768,-2.6333,-2.6536,-2.6472,-2.6444,-2.6517,-2.6481,-2.6536,-2.6591,-2.6591,-2.6591,-2.6591,-2.6591,-2.6591,-2.66,-2.6628,-2.6619,-2.66,-2.6619,-2.6591,-2.6609,-2.66,-2.6591,-2.6609,-2.6591,-2.6591,-2.6591,-2.6591,-2.6591,-2.6591,-1.5065,-1.5324,-1.5584,-1.5692,0.0,-1.5831,-1.5813,-1.5692,-1.5692,-1.5771,-1.5885,-1.5885,-1.5885,-1.5885,-1.5885,-1.5885,-1.5885,-1.5885,-1.5885,-1.5885,-1.5885,-1.5885,-1.5885,-1.5885,-1.5885,-1.5885,-1.5885,-1.5885,-1.5903,-1.6163,-1.6356,-1.6495,-1.6761,-1.702,-1.7338,-1.7916,-1.8961,-2.0536,-2.1148,-2.1654,-2.2167,-2.2936,-2.3436,-2.3699,-2.3862,0.0,0.0,0.0,0.0,0.0,0.0,0.0,0.0,-2.1522,0.0,-2.0844,-2.0359,-2.0023,-1.9864,-1.9952,-2.0004,-1.9908,-2.0004,-2.0526,-2.1599,-2.1191,-2.0885,-2.0885,-2.0775,-2.0716,-2.0885,-2.0716,-2.092,-2.1599,-2.1709,-2.1962,-2.2417,-2.2064,-2.2165,-2.3055,-2.2477,-2.2466,-2.4016,-2.4553,-2.4934,-2.5369,-2.6109,-2.6591,-2.6591,-2.6591,-2.6591,-2.6591,-2.6591,-2.6591,-2.6591,-2.6591,-2.6674,-2.682,-2.6885,-2.6967,-2.7132,-2.7169,-2.7169,-2.7224,-2.7169,-2.7123,-2.6912,-2.6885,-2.682,-2.6646,-2.6591,-2.6591,-2.6591,-2.6591,-2.6591,-1.5221,-1.5511,-1.5734,-1.5849,-1.5885,-1.5885,-1.5885,-1.5885,-1.5885,0.0,0.0,-1.5885,-1.5885,-1.5885,-1.5885,-1.5885,-1.5885,-1.5885,-1.5885,-1.5885,-1.5885,-1.5885,-1.5885,-1.5885,-1.5885,-1.5885,-1.5885,-1.5885,-1.5903,-1.6217,-1.6489,-1.6712,-1.7002,-1.7274,-1.7467,-1.7485,-1.8454,-2.0386,-2.0673,-2.1088,-2.1616,-2.1843,-2.2127,-2.2346,-2.2371,-2.2135,-2.165,-2.1516,-2.1516,-2.1509,-2.1023,-2.0806,-2.107,-2.0666,-2.0323,-2.024,-1.9477,-1.8921,-1.8678,-1.8748,-1.8719,-1.852,-1.8767,-1.9383,-2.0518,-2.0416,-2.0261,-2.0269,-2.004,-1.9989,-2.021,-2.004,-2.0084,-2.057,-2.0621,-2.068,-2.0885,-2.068,-2.1038,-2.1894,-2.149,-2.1679,-2.3421,-2.4001,-2.445,-2.5125,-2.6008,-2.6591,-2.6591,-2.6591,-2.6591,-2.6591,-2.6591,-2.6591,-2.6591,-2.6683,-2.6811,-2.7142,-2.7224,-2.7463,-2.7721,-2.7813,-2.7813,-2.7748,-2.7813,-2.7666,-2.7408,-2.7205,-2.7068,-2.6756,-2.6628,-2.6591,-2.6591,-2.6591,-2.6591,-1.5059,-1.5499,-1.5541,-1.568,-1.5885,-1.5885,-1.5885,-1.5885,-1.5885,-1.5885,-1.5885,-1.5885,-1.5885,-1.5885,-1.5885,-1.5885,-1.5885,-1.5885,-1.5885,-1.5885,-1.5885,-1.5885,-1.5885,-1.5885,-1.5885,-1.5885,-1.5885,-1.5885,-1.5946,-1.6398,-1.667,-1.6754,-1.7189,-1.7443,-1.7479,-1.7485,-1.7655,-1.8,-1.9036,-1.9608,-1.9723,-2.0966,-2.1699,-2.1699,-2.1919,-2.2009,-2.1963,-2.1899,-2.1907,-2.1899,-2.085,-2.0224,-2.0005,-1.9232,-1.8641,-1.8424,-1.8231,-1.8167,-1.8104,-1.7652,-1.7373,-1.7411,-1.7694,-1.8304,-1.928,-1.8617,-1.7996,-1.7747,-1.7996,-1.7891,-1.774,-1.7943,-1.8454,-1.928,-1.9435,-1.9797,-2.0621,-2.0004,-1.9901,-2.0944,-2.0405,-2.0901,-2.3104,-2.392,-2.4648,-2.5918,-2.6354,-2.6591,-2.6591,-2.6591,-2.6591,-2.6591,-2.6591,-2.6591,-2.6609,-2.6885,-2.7077,-2.716,-2.7481,-2.7719,-2.7904,-2.7923,-2.7923,-2.7849,-2.7904,-2.7849,-2.7748,-2.7454,-2.7196,-2.705,-2.6811,-2.66,-2.6591,-2.6591,-2.6591,-1.4938,-1.5294,-1.5439,-1.5565,-1.5692,-1.5825,-1.5885,-1.5885,-1.5885,-1.5885,-1.5885,-1.5885,-1.5885,-1.5885,-1.5885,-1.5885,-1.5885,-1.5885,-1.5885,-1.5885,-1.5885,-1.5885,-1.5885,-1.5885,-1.5885,-1.5885,-1.5885,-1.5885,-1.5928,-1.629,-1.6549,-1.6724,-1.7225,-1.7485,-1.7485,-1.7485,-1.7485,-1.7485,-1.8058,-1.8409,-1.859,-1.9267,-1.9723,-1.9832,-1.9832,-1.9839,-1.9832,-1.9652,-1.9537,-1.953,-1.9022,-1.8687,-1.8557,-1.8154,-1.7861,-1.7767,-1.7742,-1.7677,-1.752,-1.7087,-1.6994,-1.7205,-1.7331,-1.7641,-1.8311,-1.774,-1.7325,-1.7232,-1.716,-1.716,-1.7173,-1.7279,-1.7641,-1.8251,-1.8356,-1.8565,-1.8982,-1.8722,-1.8767,-1.9695,-1.9415,-1.9986,-2.2429,-2.3206,-2.4052,-2.5377,-2.6136,-2.6582,-2.6591,-2.6591,-2.6591,-2.6591,-2.6591,-2.6591,-2.6609,-2.6912,-2.7224,-2.75,-2.7838,-2.8159,-2.8361,-2.8425,-2.8416,-2.8425,-2.8416,-2.8333,-2.8168,-2.7774,-2.7471,-2.716,-2.6857,-2.6628,-2.6591,-2.6591,-2.6591,-1.4781,-1.504,-1.524,-1.539,-1.5517,-1.5716,-1.5831,-1.5885,-1.5885,-1.5885,-1.5885,-1.5885,-1.5885,-1.5885,-1.5885,-1.5885,-1.5885,-1.5885,-1.5885,-1.5885,-1.5885,-1.5885,-1.5885,-1.5885,-1.5885,-1.5885,-1.5885,-1.5885,-1.5916,-1.6151,-1.6459,-1.6797,-1.7195,-1.7418,-1.7485,-1.7485,-1.7485,-1.7485,-1.7485,-1.7602,-1.7908,-1.7908,-1.8018,-1.8188,-1.8018,-1.7908,-1.7849,-1.7667,-1.7485,-1.7485,-1.7485,-1.7485,-1.7485,-1.7602,-1.7622,-1.7708,-1.7676,-1.7533,-1.721,-1.6985,-1.6987,-1.7199,-1.7285,-1.7384,-1.7483,-1.7279,-1.7126,-1.7126,-1.7014,-1.6955,-1.7179,-1.7285,-1.7378,-1.7589,-1.7589,-1.7687,-1.7641,-1.7589,-1.7891,-1.8674,-1.886,-1.9716,-2.1496,-2.2813,-2.395,-2.5157,-2.6026,-2.6582,-2.6591,-2.6591,-2.6591,-2.6591,-2.6591,-2.6591,-2.6619,-2.7022,-2.7407,-2.7803,-2.8196,-2.8563,-2.8847,-2.8957,-2.8966,-2.892,-2.8948,-2.8819,-2.8553,-2.8196,-2.7838,-2.7563,-2.7233,-2.6967,-2.6921,-2.693,-2.6774,-1.4503,-1.4733,-1.4793,-1.5071,-1.5475,-1.5529,-1.5674,-1.5867,-1.5885,-1.5885,-1.5885,-1.5885,-1.5891,-1.5885,-1.5885,-1.5885,-1.5885,-1.5885,-1.5885,-1.5885,-1.5885,-1.5885,-1.5885,-1.5885,-1.5885,-1.5885,-1.5885,-1.5885,-1.5903,-1.6157,-1.6537,-1.7002,-1.7111,-1.7243,-1.7443,-1.7473,-1.7479,-1.7485,-1.7485,-1.7543,-1.7543,-1.7543,-1.7537,-1.7596,-1.7543,-1.7543,-1.7543,-1.7543,-1.7485,-1.7485,-1.7485,-1.7485,-1.7543,-1.7784,-1.8064,-1.8254,-1.8306,-1.8097,-1.7583,-1.7547,-1.7371,-1.7271,-1.7384,-1.743,-1.7232,-1.6948,-1.6902,-1.712,-1.7173,-1.7126,-1.7173,-1.7384,-1.7536,-1.7582,-1.7589,-1.7589,-1.7589,-1.7589,-1.7635,-1.7733,-1.9191,-2.0651,-2.2037,-2.3606,-2.5029,-2.6072,-2.6418,-2.6591,-2.6591,-2.6591,-2.6591,-2.6591,-2.6591,-2.6591,-2.6655,-2.7233,-2.7675,-2.7868,-2.8416,-2.8838,-2.8966,-2.8984,-2.8984,-2.8984,-2.8984,-2.8938,-2.8856,-2.8618,-2.8315,-2.8095,-2.7829,-2.7656,-2.7693,-2.7638,-2.7408,-1.4364,-1.4485,-1.4642,-1.4926,-1.5258,-1.5433,-1.5559,-1.5615,-1.5133,-1.5244,-1.5779,-1.519,-1.5238,-1.5885,-1.5885,-1.5885,-1.5885,-1.5885,-1.5885,-1.5885,-1.5885,-1.5885,-1.5885,-1.5885,-1.5885,-1.5885,-1.5885,-1.5885,-1.5934,-1.6157,-1.6404,-1.6628,-1.6779,-1.6923,-1.7026,-1.7171,-1.7255,-1.7255,-1.7406,-1.7485,-1.7485,-1.7485,-1.7485,-1.7485,-1.7485,-1.7485,-1.7485,-1.7485,-1.7485,-1.7485,-1.7485,-1.7485,-1.7485,-1.7602,-1.7719,-1.7883,-1.7844,-1.7824,-1.762,-1.7266,-1.7041,-1.6914,-1.6849,-1.6842,-1.6902,-1.6783,-1.6842,-1.7113,-1.7008,-1.6955,-1.7179,-1.743,-1.7589,-1.7589,-1.7589,-1.7589,-1.7589,-1.7589,-1.7893,-1.8773,-1.9708,-2.1162,-2.3066,-2.4835,-2.599,-2.6527,-2.6591,-2.6591,-2.6591,-2.6591,-2.6591,-2.6591,-2.6591,-2.6591,-2.6655,-2.7251,-2.7721,-2.795,-2.8443,-2.8957,-2.8984,-2.8984,-2.8984,-2.8984,-2.8984,-2.8984,-2.8975,-2.8682,-2.8397,-2.8342,-2.8077,-2.7813,-2.7813,-2.7813,-2.7629,-1.4298,-1.4334,-1.4521,-1.4757,-1.5016,-1.5203,-1.5366,-1.5407,-1.48,-1.5074,-1.5779,-1.503,-1.5083,-1.5832,-1.5885,-1.5885,-1.5885,-1.5885,-1.5885,-1.5885,-1.5885,-1.5885,-1.5885,-1.5885,-1.5885,-1.5885,-1.5885,-1.5885,-1.591,-1.6066,-1.6217,-1.632,-1.6495,-1.6622,-1.6718,-1.6899,-1.6984,-1.7002,-1.7183,-1.7267,-1.7274,-1.734,-1.7406,-1.7473,-1.7485,-1.7485,-1.7485,-1.7485,-1.7485,-1.7485,-1.7485,-1.7485,-1.7485,-1.7485,-1.7543,-1.7636,-1.763,-1.7654,-1.7614,-1.7053,-1.6717,-1.6668,-1.6524,-1.6471,-1.6683,-1.667,-1.6842,-1.712,-1.6955,-1.7008,-1.7279,-1.7483,-1.7589,-1.7589,-1.7589,-1.7589,-1.7589,-1.7635,-1.8261,-1.9575,-2.0463,-2.1939,-2.437,-2.5846,-2.6582,-2.6591,-2.6591,-2.6591,-2.6591,-2.6591,-2.6591,-2.6591,-2.6591,-2.6591,-2.6646,-2.7251,-2.7721,-2.7996,-2.8434,-2.8966,-2.8984,-2.8984,-2.8984,-2.8984,-2.8984,-2.8984,-2.8975,-2.8718,-2.8553,-2.8498,-2.8306,-2.8152,-2.8263,-2.818,-2.818,-1.4298,-1.4298,-1.4316,-1.4491,-1.4739,-1.4769,-1.504,-1.5445,-1.5361,-1.5597,-1.5861,-1.5725,-1.5838,-1.5885,-1.5885,-1.5885,-1.5885,-1.5885,-1.5885,-1.5885,-1.5885,-1.5885,-1.5885,-1.5885,-1.5885,-1.5885,-1.5885,-1.5885,-1.5891,-1.591,-1.6036,-1.6266,-1.6296,-1.6429,-1.6628,-1.6688,-1.6718,-1.6724,-1.6767,-1.6761,-1.6785,-1.699,-1.7225,-1.7412,-1.7479,-1.7485,-1.7485,-1.7485,-1.7485,-1.7485,-1.7485,-1.7485,-1.7485,-1.7485,-1.7608,-1.7929,-1.7924,-1.7874,-1.7533,-1.7022,-1.6698,-1.6681,-1.6677,-1.6677,-1.6677,-1.673,-1.6895,-1.7173,-1.7179,-1.7279,-1.7483,-1.7589,-1.7589,-1.7589,-1.7589,-1.7589,-1.7589,-1.7922,-1.8514,-1.9867,-2.1527,-2.351,-2.6027,-2.6509,-2.6582,-2.6591,-2.6591,-2.6591,-2.6591,-2.6591,-2.6591,-2.6591,-2.6591,-2.6591,-2.6664,-2.7251,-2.7739,-2.7987,-2.8379,-2.8975,-2.8984,-2.8984,-2.8984,-2.8984,-2.8984,-2.8984,-2.8975,-2.8948,-2.8902,-2.8865,-2.8847,-2.8746,-2.8627,-2.8838,-2.8801,-1.4298,-1.4298,-1.4298,-1.4358,-1.4461,-1.4636,-1.4835,-1.4978,-1.4568,-1.4908,-1.5446,-1.5062,-1.5244,-1.5885,-1.5885,-1.5885,-1.5885,-1.5885,-1.5885,-1.5885,-1.5885,-1.5885,-1.5885,-1.5885,-1.5885,-1.5885,-1.5885,-1.5885,-1.5885,-1.5885,-1.5934,-1.6012,-1.603,-1.6085,-1.6193,-1.635,-1.6429,-1.6447,-1.6604,-1.67,-1.6688,-1.6797,-1.6887,-1.6996,-1.7316,-1.7485,-1.7485,-1.7485,-1.7485,-1.7485,-1.7485,-1.7485,-1.7485,-1.7485,-1.7575,-1.7693,-1.7547,-1.7384,-1.7328,-1.6933,-1.6684,-1.6696,-1.667,-1.6677,-1.673,-1.6902,-1.706,-1.7173,-1.7384,-1.7536,-1.7589,-1.7589,-1.7589,-1.7589,-1.7589,-1.7641,-1.7787,-1.8515,-1.9677,-2.1293,-2.3445,-2.5583,-2.6191,-2.6591,-2.6591,-2.6591,-2.6591,-2.6591,-2.6591,-2.6591,-2.6591,-2.6591,-2.6591,-2.6591,-2.6591,-2.7316,-2.7868,-2.8003,-2.8352,-2.8801,-2.8975,-2.8984,-2.8984,-2.8984,-2.8984,-2.8984,-2.8975,-2.8975,-2.8984,-2.8984,-2.8984,-2.8984,-2.8975,-2.8984,-2.8984,-1.4298,-1.4298,-1.4298,-1.4298,-1.4316,-1.4497,-1.4636,-1.4646,-1.4259,-1.4602,-1.5245,-1.4888,-1.511,-1.5826,-1.5885,-1.5885,-1.5885,-1.5885,-1.5885,-1.5885,-1.5885,-1.5885,-1.5885,-1.5885,-1.5885,-1.5885,-1.5885,-1.5885,-1.5885,-1.5885,-1.5885,-1.5891,-1.5885,-1.5885,-1.5922,-1.6066,-1.6151,-1.6199,-1.635,-1.6435,-1.6447,-1.6525,-1.6573,-1.6634,-1.7002,-1.7274,-1.7346,-1.7358,-1.7406,-1.7473,-1.7485,-1.7543,-1.7661,-1.7582,-1.7563,-1.7532,-1.7198,-1.6986,-1.689,-1.6627,-1.6471,-1.6577,-1.6577,-1.663,-1.6849,-1.7067,-1.7226,-1.7331,-1.7483,-1.7589,-1.7589,-1.7589,-1.7589,-1.7589,-1.7589,-1.7833,-1.8239,-1.8942,-2.0217,-2.2235,-2.4726,-2.6318,-2.6591,-2.6591,-2.6591,-2.6591,-2.6591,-2.6591,-2.6591,-2.6591,-2.6591,-2.6591,-2.6591,-2.6591,-2.6701,-2.7251,-2.7767,-2.7987,-2.8287,-2.87,-2.8975,-2.8984,-2.8984,-2.8984,-2.8984,-2.8984,-2.8984,-2.8984,-2.8984,-2.8984,-2.8984,-2.8984,-2.8984,-2.8984,-2.8984,-1.4298,-1.4298,-1.4298,-1.4298,-1.4304,-1.4226,-1.4418,-1.4623,-1.459,-1.4838,-1.5369,-1.5349,-1.5405,-1.5849,-1.5779,-1.5838,-1.5885,-1.5885,-1.5885,-1.5885,-1.5885,-1.5885,-1.5885,-1.5885,-1.5885,-1.5885,-1.5885,-1.5885,-1.5885,-1.5885,-1.5885,-1.5885,-1.5885,-1.5885,-1.5885,-1.5916,-1.5916,-1.5928,-1.5964,-1.594,-1.5922,-1.6163,-1.629,-1.6332,-1.6561,-1.6809,-1.705,-1.708,-1.7189,-1.74,-1.7449,-1.7655,-1.7833,-1.7687,-1.7583,-1.7465,-1.708,-1.6667,-1.6314,-1.6144,-1.6211,-1.6371,-1.6377,-1.6696,-1.712,-1.7226,-1.7331,-1.7529,-1.7582,-1.7589,-1.7589,-1.7589,-1.7589,-1.7589,-1.7615,-1.8153,-1.9021,-1.9041,-1.9744,-2.2696,-2.5221,-2.6473,-2.6591,-2.6591,-2.6591,-2.6591,-2.6591,-2.6591,-2.6591,-2.6591,-2.6591,-2.6591,-2.6591,-2.6591,-2.6866,-2.7196,-2.7574,-2.7895,-2.826,-2.8663,-2.8902,-2.8984,-2.8984,-2.8984,-2.8984,-2.8984,-2.8984,-2.8984,-2.8984,-2.8984,-2.8984,-2.8984,-2.8984,-2.8984,-2.8984,-1.4112,-1.4298,-1.4298,-1.4298,-1.4196,-1.3516,-1.3665,-1.4297,-1.3857,-1.4238,-1.496,-1.4573,-1.489,-1.5518,-1.5137,-1.519,-1.5838,-1.5885,-1.5885,-1.5885,-1.5885,-1.5885,-1.5885,-1.5885,-1.5885,-1.5885,-1.5885,-1.5885,-1.5885,-1.5885,-1.5885,-1.5885,-1.5885,-1.5885,-1.5885,-1.5885,-1.5885,-1.5885,-1.5885,-1.5885,-1.5891,-1.597,-1.6018,-1.603,-1.6103,-1.6266,-1.6519,-1.6718,-1.6857,-1.696,-1.7117,-1.7329,-1.758,-1.7408,-1.7173,-1.6993,-1.6844,-1.6525,-1.6138,-1.632,-1.6471,-1.6636,-1.6948,-1.7219,-1.743,-1.7483,-1.7536,-1.7582,-1.7589,-1.7589,-1.7589,-1.7589,-1.7589,-1.7589,-1.7769,-1.803,-1.89,-2.0216,-2.2064,-2.3922,-2.5624,-2.6473,-2.6591,-2.6591,-2.6591,-2.6591,-2.6591,-2.6591,-2.6591,-2.6591,-2.6591,-2.6591,-2.6591,-2.6628,-2.6866,-2.7187,-2.7536,-2.796,-2.8315,-2.8645,-2.8865,-2.8984,-2.8984,-2.8984,-2.8984,-2.8984,-2.8984,-2.8984,-2.8984,-2.8984,-2.8984,-2.8984,-2.8984,-2.8984,-2.8984,-1.416,-1.425,-1.3854,-1.3709,-1.3607,-1.2581,-1.2484,-1.3093,-1.303,-1.3491,-1.4145,-1.4344,-1.4804,-1.5458,-1.5091,-1.5244,-1.5885,-1.5885,-1.5885,-1.5885,-1.5885,-1.5885,-1.5885,-1.5885,-1.5885,-1.5885,-1.5885,-1.5885,-1.5885,-1.5885,-1.5885,-1.5885,-1.5885,-1.5885,-1.5885,-1.5885,-1.5885,-1.5885,-1.5885,-1.5885,-1.5885,-1.5885,-1.5885,-1.5885,-1.5885,-1.5976,-1.6145,-1.6314,-1.6495,-1.6676,-1.6863,-1.7112,-1.744,-1.7198,-1.6955,-1.6867,-1.6682,-1.6336,-1.6016,-1.6264,-1.663,-1.6789,-1.716,-1.7483,-1.7529,-1.7589,-1.7589,-1.7589,-1.7589,-1.7589,-1.7589,-1.7589,-1.7629,-1.7749,-1.7862,-1.8299,-1.9159,-2.1579,-2.3464,-2.4791,-2.5852,-2.6473,-2.6591,-2.6591,-2.6591,-2.6591,-2.6591,-2.6591,-2.6591,-2.6591,-2.6591,-2.6591,-2.6591,-2.6674,-2.683,-2.7169,-2.7563,-2.7976,-2.8397,-2.8663,-2.8902,-2.8966,-2.8984,-2.8984,-2.8984,-2.8984,-2.8984,-2.8984,-2.8984,-2.8984,-2.8984,-2.8984,-2.8984,-2.8984,-2.8984,-1.4298,-1.4148,-1.3221,-1.2877,-1.2678,-1.1707,-1.1365,-1.1468,-1.216,-1.279,-1.3369,-1.4257,-1.5047,-1.5465,-1.5423,-1.5571,-1.5885,-1.5885,-1.5885,-1.5885,-1.5885,-1.5885,-1.5885,-1.5885,-1.5885,-1.5885,-1.5885,-1.5885,-1.5885,-1.5885,-1.5885,-1.5885,-1.5885,-1.5885,-1.5885,-1.5885,-1.5885,-1.5885,-1.5885,-1.5885,-1.5885,-1.5885,-1.5885,-1.5885,-1.5885,-1.5903,-1.5928,-1.5964,-1.6175,-1.6592,-1.664,-1.6907,-1.7345,-1.7022,-1.6846,-1.7086,-1.6615,-1.632,-1.6051,-1.6264,-1.653,-1.6789,-1.7113,-1.7331,-1.7536,-1.7589,-1.7589,-1.7589,-1.7589,-1.7589,-1.7589,-1.7635,-1.7782,-1.8043,-1.834,-1.9105,-2.0625,-2.3038,-2.4441,-2.4936,-2.5798,-2.6591,-2.6591,-2.6591,-2.6591,-2.6591,-2.6591,-2.6591,-2.6591,-2.6591,-2.6591,-2.6591,-2.6591,-2.6765,-2.693,-2.7315,-2.7776,-2.8113,-2.8498,-2.8746,-2.8911,-2.8957,-2.8984,-2.8984,-2.8984,-2.8984,-2.8984,-2.8984,-2.8984,-2.8984,-2.8984,-2.8984,-2.8984,-2.8984,-2.8984,-1.4112,-1.425,-1.3998,-1.3414,-1.263,-1.1614,-1.1219,-1.1219,-1.1463,-1.2268,-1.3011,-1.3402,-1.4355,-1.5371,-1.4716,-1.4894,-1.5689,-1.5885,-1.5885,-1.5885,-1.5885,-1.5885,-1.5885,-1.5885,-1.5885,-1.5885,-1.5885,-1.5885,-1.5885,-1.5885,-1.5885,-1.5885,-1.5885,-1.5885,-1.5885,-1.5885,-1.5885,-1.5885,-1.5885,-1.5885,-1.5885,-1.5885,-1.5885,-1.5885,-1.5885,-1.5885,-1.5885,-1.5885,-1.6036,-1.6381,-1.6423,-1.664,-1.7123,-1.6908,-1.6823,-1.7024,-1.6646,-1.6377,-1.6471,-1.6577,-1.6736,-1.7014,-1.7272,-1.7536,-1.7589,-1.7589,-1.7589,-1.7589,-1.7589,-1.7589,-1.7622,-1.7802,-1.8136,-1.8702,-1.9362,-2.0289,-2.1313,-2.3191,-2.4787,-2.4953,-2.5907,-2.6473,-2.6591,-2.6591,-2.6591,-2.6591,-2.6591,-2.6591,-2.6591,-2.6591,-2.6591,-2.6591,-2.6628,-2.6839,-2.7105,-2.7546,-2.7941,-2.8278,-2.8608,-2.8874,-2.8957,-2.8975,-2.8984,-2.8984,-2.8984,-2.8984,-2.8984,-2.8984,-2.8984,-2.8984,-2.8984,-2.8984,-2.8984,-2.8984,-2.8984,-1.416,-1.425,-1.3806,-1.327,-1.2581,-1.1604,-1.1219,-1.1317,-1.1707,-1.2211,-1.2937,-1.3507,-1.4279,-1.5215,-1.481,-1.5001,-1.5808,-1.5885,-1.5885,-1.5885,-1.5885,-1.5885,-1.5885,-1.5885,-1.5885,-1.5885,-1.5885,-1.5885,-1.5885,-1.5885,-1.5885,-1.5885,-1.5885,-1.5885,-1.5885,-1.5885,-1.5885,-1.5885,-1.5885,-1.5885,-1.5885,-1.5885,-1.5885,-1.5885,-1.5885,-1.5885,-1.5885,-1.5885,-1.597,-1.6108,-1.6149,-1.6398,-1.6845,-1.6785,-1.6789,-1.6955,-1.6749,-1.669,-1.6583,-1.6736,-1.7008,-1.7173,-1.743,-1.7589,-1.7589,-1.7589,-1.7589,-1.7589,-1.7589,-1.7649,-1.7822,-1.815,-1.8488,-1.9007,-2.0527,-2.1688,-2.1949,-2.3648,-2.4898,-2.5514,-2.6136,-2.6591,-2.6591,-2.6591,-2.6591,-2.6591,-2.6591,-2.6591,-2.6591,-2.6591,-2.6591,-2.6591,-2.6628,-2.6811,-2.7123,-2.7564,-2.8024,-2.837,-2.87,-2.8966,-2.8984,-2.8984,-2.8984,-2.8984,-2.8984,-2.8984,-2.8984,-2.8984,-2.8984,-2.8984,-2.8984,-2.8984,-2.8984,-2.8984,-2.8984,-1.4298,-1.4196,-1.327,-1.2829,-1.2581,-1.1755,-1.137,-1.1414,-1.2193,-1.264,-1.2986,-1.4068,-1.4644,-1.5083,-1.5146,-1.5584,-1.5831,-1.5867,-1.5885,-1.5885,-1.5885,-1.5885,-1.5885,-1.5885,-1.5885,-1.5885,-1.5885,-1.5885,-1.5885,-1.5885,-1.5885,-1.5885,-1.5885,-1.5885,-1.5945,-1.5945,-1.5945,-1.5998,-1.6045,-1.6099,-1.6051,-1.6051,-1.5998,-1.5998,-1.5998,-1.5998,-1.5998,-1.5992,-1.6057,-1.5998,-1.5998,-1.6324,-1.6696,-1.6736,-1.6789,-1.6842,-1.6902,-1.6855,-1.659,-1.6961,-1.7226,-1.7279,-1.7483,-1.7582,-1.7589,-1.7589,-1.7589,-1.7589,-1.7661,-1.7829,-1.8176,-1.8568,-1.8865,-1.936,-2.1304,-2.2782,-2.3263,-2.4158,-2.5404,-2.6364,-2.6591,-2.6591,-2.6591,-2.6591,-2.6591,-2.6591,-2.6591,-2.6591,-2.6591,-2.6591,-2.6591,-2.6591,-2.6655,-2.6811,-2.7114,-2.7508,-2.7994,-2.8434,-2.8755,-2.8984,-2.8984,-2.8984,-2.8984,-2.8984,-2.8984,-2.8984,-2.8984,-2.8984,-2.8984,-2.8984,-2.8984,-2.8984,-2.8984,-2.8984,-2.8984,-1.4298,-1.425,-1.4052,-1.3463,-1.2732,-1.249,-1.195,-1.137,-1.229,-1.278,-1.299,-1.3924,-1.4509,-1.4829,-1.5101,-1.5336,-1.562,-1.5789,-1.5885,-1.5885,-1.5885,-1.5885,-1.5885,-1.5885,-1.5885,-1.5885,-1.5885,-1.5885,-1.5885,-1.5885,-1.5885,-1.5885,-1.5939,-1.5885,-1.5945,-1.6105,-1.6217,-1.6264,-1.6418,-1.6465,-1.6418,-1.6318,-1.6211,-1.6217,-1.6217,-1.6217,-1.6264,-1.6418,-1.6518,-1.6518,-1.6577,-1.6683,-1.6955,-1.706,-1.7067,-1.7008,-1.6902,-1.6902,-1.7014,-1.712,-1.7331,-1.7483,-1.7536,-1.7589,-1.7589,-1.7602,-1.7595,-1.7629,-1.7809,-1.8156,-1.8548,-1.8761,-1.9025,-1.9709,-2.145,-2.3038,-2.332,-2.4889,-2.6136,-2.6473,-2.6591,-2.6591,-2.6591,-2.6591,-2.6591,-2.6591,-2.6591,-2.6591,-2.6591,-2.6591,-2.6591,-2.6591,-2.6619,-2.6719,-2.7004,-2.7444,-2.7985,-2.8434,-2.8773,-2.8984,-2.8984,-2.8984,-2.8984,-2.8984,-2.8984,-2.8984,-2.8984,-2.8984,-2.8984,-2.8984,-2.8984,-2.8984,-2.8984,-2.8984,-2.8984,-1.4298,-1.4298,-1.4298,-1.3956,-1.3511,-1.3414,-1.3167,-1.2834,-1.3173,-1.3463,-1.3559,-1.41,-1.4461,-1.4727,-1.4992,-1.5258,-1.5511,-1.5765,-1.5885,-1.5885,-1.5885,-1.5885,-1.5885,-1.5885,-1.5885,-1.5885,-1.5885,-1.5885,-1.5885,-1.5885,-1.5885,-1.5945,-1.6051,-1.6105,-1.6105,-1.6371,-1.6471,-1.6471,-1.6624,-1.667,-1.6677,-1.6577,-1.6471,-1.6477,-1.6377,-1.6324,-1.6477,-1.663,-1.6789,-1.6895,-1.6955,-1.7008,-1.7179,-1.7232,-1.7232,-1.7173,-1.7219,-1.7113,-1.7226,-1.7331,-1.743,-1.7582,-1.7589,-1.7589,-1.7635,-1.7695,-1.7796,-1.7862,-1.809,-1.845,-1.8865,-1.9085,-1.9219,-1.9754,-2.1574,-2.2926,-2.3376,-2.5119,-2.6591,-2.6591,-2.6591,-2.6591,-2.6591,-2.6591,-2.6591,-2.6591,-2.6591,-2.6591,-2.6591,-2.6591,-2.6591,-2.6591,-2.6591,-2.6692,-2.6921,-2.7361,-2.8015,-2.8388,-2.8764,-2.892,-2.8984,-2.8984,-2.8984,-2.8984,-2.8984,-2.8984,-2.8984,-2.8984,-2.8984,-2.8984,-2.8984,-2.8984,-2.8984,-2.8984,-2.8984,-1.4298,-1.4298,-1.4298,-1.4298,-1.4298,-1.4298,-1.4202,-1.425,-1.4298,-1.4154,-1.4298,-1.4298,-1.4425,-1.4672,-1.498,-1.5258,-1.5565,-1.5759,-1.5885,-1.5885,-1.5885,-1.5885,-1.5885,-1.5885,-1.5885,-1.5885,-1.5885,-1.5885,-1.5885,-1.5945,-1.5998,-1.6051,-1.6271,-1.6371,-1.6424,-1.663,-1.6789,-1.6789,-1.6889,-1.6942,-1.6889,-1.6842,-1.6736,-1.6624,-1.6636,-1.6636,-1.6789,-1.6895,-1.7008,-1.7226,-1.7285,-1.7285,-1.7279,-1.7279,-1.7232,-1.7232,-1.7378,-1.743,-1.7279,-1.743,-1.7589,-1.7589,-1.7655,-1.7669,-1.7729,-1.7929,-1.8076,-1.8203,-1.839,-1.8684,-1.8965,-1.9178,-1.9377,-1.9822,-2.1574,-2.2813,-2.3432,-2.5119,-2.6364,-2.6591,-2.6591,-2.6591,-2.6591,-2.6591,-2.6591,-2.6591,-2.6591,-2.6591,-2.6591,-2.6591,-2.6591,-2.6591,-2.6591,-2.6756,-2.6985,-2.7325,-2.7969,-2.8315,-2.8709,-2.8874,-2.8975,-2.8984,-2.8984,-2.8984,-2.8984,-2.8984,-2.8984,-2.8984,-2.8984,-2.8984,-2.8984,-2.8984,-2.8984,-2.8984,-2.8984,-1.4298,-1.4298,-1.4298,-1.4298,-1.4298,-1.4298,-1.4298,-1.4298,-1.4298,-1.4298,-1.4298,-1.4304,-1.4322,-1.4491,-1.4902,-1.5348,-1.568,-1.5849,-1.5885,-1.5885,-1.5885,-1.5885,-1.5885,-1.5885,-1.5885,-1.5885,-1.5885,-1.5885,-1.5939,-1.6105,-1.6164,-1.6271,-1.653,-1.663,-1.6736,-1.6955,-1.712,-1.7113,-1.7265,-1.7371,-1.7318,-1.7166,-1.7008,-1.6836,-1.6902,-1.7014,-1.7113,-1.7318,-1.7477,-1.7529,-1.7536,-1.7536,-1.7483,-1.7477,-1.743,-1.7331,-1.749,-1.7483,-1.7331,-1.743,-1.7589,-1.7642,-1.7796,-1.7936,-1.7962,-1.8237,-1.8404,-1.8517,-1.8698,-1.8971,-1.9259,-1.9332,-1.941,-1.9989,-2.1402,-2.2982,-2.3432,-2.4953,-2.6527,-2.6591,-2.6591,-2.6591,-2.6591,-2.6591,-2.6591,-2.6591,-2.6591,-2.6591,-2.6591,-2.6591,-2.6591,-2.6591,-2.6591,-2.682,-2.7077,-2.7426,-2.7866,-2.8232,-2.859,-2.8856,-2.8938,-2.8975,-2.8984,-2.8984,-2.8984,-2.8984,-2.8984,-2.8984,-2.8984,-2.8984,-2.8984,-2.8984,-2.8984,-2.8984,-2.8984,-1.4298,-1.4298,-1.4298,-1.4298,-1.4298,-1.4298,-1.4298,-1.4298,-1.4298,-1.4298,-1.4298,-1.4298,-1.4298,-1.4407,-1.4702,-1.5191,-1.5602,-1.5849,-1.5879,-1.5885,-1.5885,-1.5885,-1.5885,-1.5885,-1.5885,-1.5885,-1.5885,-1.5885,-1.5939,-1.6164,-1.6324,-1.643,-1.6743,-1.6955,-1.7008,-1.7219,-1.7384,-1.743,-1.7536,-1.7589,-1.7589,-1.7331,-1.7166,-1.7213,-1.7166,-1.7279,-1.7437,-1.7536,-1.7589,-1.7589,-1.7589,-1.7589,-1.7589,-1.7589,-1.7536,-1.743,-1.7536,-1.7589,-1.743,-1.7529,-1.7589,-1.7622,-1.7876,-1.7975,-1.8109,-1.8417,-1.8751,-1.8925,-1.9018,-1.9205,-1.9345,-1.9424,-1.9424,-1.9815,-2.1509,-2.2813,-2.3544,-2.5293,-2.6136,-2.6591,-2.6591,-2.6591,-2.6591,-2.6591,-2.6591,-2.6591,-2.6591,-2.6591,-2.6591,-2.6591,-2.6591,-2.6591,-2.6591,-2.6692,-2.6958,-2.7297,-2.7691,-2.8086,-2.8462,-2.8737,-2.8929,-2.8975,-2.8984,-2.8984,-2.8984,-2.8984,-2.8984,-2.8984,-2.8984,-2.8984,-2.8984,-2.8984,-2.8984,-2.8984,-2.8984,-1.4298,-1.4298,-1.4298,-1.4298,-1.4298,-1.4298,-1.4298,-1.4298,-1.4298,-1.4298,-1.4298,-1.4298,-1.4298,-1.4395,-1.4678,-1.5077,-1.5511,-1.5771,-1.5879,-1.5885,-1.5885,-1.5885,-1.5885,-1.5885,-1.5885,-1.5885,-1.5885,-1.5939,-1.6051,-1.6264,-1.6424,-1.6643,-1.7067,-1.7279,-1.7331,-1.7483,-1.7589,-1.7589,-1.7589,-1.7589,-1.7529,-1.743,-1.7378,-1.7582,-1.7378,-1.7378,-1.7536,-1.7589,-1.7589,-1.7589,-1.7589,-1.7589,-1.7589,-1.7589,-1.7589,-1.7589,-1.7589,-1.7589,-1.7589,-1.7582,-1.7589,-1.7602,-1.7943,-1.8096,-1.829,-1.8671,-1.9098,-1.937,-1.941,-1.9397,-1.9424,-1.9424,-1.9424,-1.988,-2.1402,-2.3151,-2.3656,-2.4842,-2.6309,-2.6591,-2.6591,-2.6591,-2.6591,-2.6591,-2.6591,-2.6591,-2.6591,-2.6591,-2.6591,-2.6591,-2.6591,-2.6591,-2.6591,-2.6591,-2.6774,-2.704,-2.7444,-2.7856,-2.826,-2.8608,-2.8819,-2.8984,-2.8984,-2.8984,-2.8984,-2.8984,-2.8984,-2.8984,-2.8984,-2.8984,-2.8984,-2.8984,-2.8984,-2.8984,-2.8984,-1.4298,-1.4298,-1.4298,-1.4298,-1.4298,-1.4298,-1.4298,-1.4298,-1.4298,-1.4298,-1.4298,-1.4298,-1.4298,-1.4413,-1.4835,-1.5203,-1.5487,-1.5753,-1.5885,-1.5885,-1.5885,-1.5885,-1.5885,-1.5885,-1.5885,-1.5939,-1.5939,-1.6051,-1.6264,-1.6524,-1.6796,-1.7067,-1.7272,-1.7529,-1.7536,-1.7589,-1.7589,-1.7589,-1.7589,-1.7589,-1.7589,-1.7536,-1.7582,-1.7582,-1.7582,-1.7536,-1.7582,-1.7589,-1.7589,-1.7589,-1.7589,-1.7589,-1.7589,-1.7589,-1.7589,-1.7589,-1.7589,-1.7589,-1.7589,-1.7589,-1.7622,-1.7729,-1.8103,-1.8364,-1.8617,-1.8925,-1.935,-1.9397,-1.9424,-1.9424,-1.9424,-1.9424,-1.9424,-2.0104,-2.1345,-2.2587,-2.332,-2.4556,-2.5962,-2.6591,-2.6591,-2.6591,-2.6591,-2.6591,-2.6591,-2.6591,-2.6591,-2.6591,-2.6591,-2.6591,-2.6591,-2.6591,-2.6591,-2.6591,-2.6619,-2.6875,-2.7187,-2.7609,-2.8012,-2.8425,-2.8691,-2.8874,-2.8984,-2.8984,-2.8984,-2.8984,-2.8984,-2.8984,-2.8984,-2.8984,-2.8984,-2.8984,-2.8984,-2.8984,-2.8984,-1.4298,-1.4298,-1.4298,-1.4298,-1.4298,-1.4298,-1.4298,-1.4298,-1.4298,-1.4298,-1.4298,-1.4298,-1.4298,-1.4407,-1.4865,-1.5155,-1.5348,-1.5704,-1.5885,-1.5885,-1.5885,-1.5885,-1.5885,-1.5885,-1.5885,-1.5945,-1.6105,-1.6318,-1.6477,-1.6683,-1.6842,-1.7173,-1.7424,-1.7582,-1.7589,-1.7589,-1.7589,-1.7589,-1.7589,-1.7589,-1.7589,-1.7589,-1.7589,-1.7589,-1.7589,-1.7589,-1.7589,-1.7589,-1.7589,-1.7589,-1.7589,-1.7589,-1.7589,-1.7589,-1.7589,-1.7589,-1.7589,-1.7589,-1.7589,-1.7589,-1.7669,-1.7883,-1.8257,-1.8611,-1.8925,-1.9243,-1.9424,-1.9424,-1.9424,-1.9424,-1.9424,-1.9424,-1.9424,-1.9989,-2.1124,-2.2021,-2.3038,-2.4501,-2.5624,-2.6136,-2.6591,-2.6591,-2.6591,-2.6591,-2.6591,-2.6591,-2.6591,-2.6591,-2.6591,-2.6591,-2.6591,-2.6591,-2.6591,-2.6591,-2.66,-2.6729,-2.6949,-2.7325,-2.7691,-2.8104,-2.8517,-2.8728,-2.8856,-2.8957,-2.8984,-2.8984,-2.8984,-2.8984,-2.8984,-2.8984,-2.8984,-2.8984,-2.8984,-2.8984,-2.8984,-1.4298,-1.4298,-1.4298,-1.4298,-1.4298,-1.4298,-1.4298,-1.4298,-1.4298,-1.4298,-1.4298,-1.4298,-1.4298,-1.4425,-1.4829,-1.5125,-1.5155,-1.5656,-1.5843,-1.5885,-1.5885,-1.5885,-1.5885,-1.5885,-1.5945,-1.5998,-1.6158,-1.6477,-1.6743,-1.6902,-1.7008,-1.7279,-1.7477,-1.7582,-1.7589,-1.7589,-1.7589,-1.7589,-1.7589,-1.7589,-1.7589,-1.7589,-1.7589,-1.7589,-1.7589,-1.7589,-1.7589,-1.7589,-1.7589,-1.7589,-1.7702,-1.7742,-1.7742,-1.7842,-1.7822,-1.7789,-1.7749,-1.7675,-1.7629,-1.7615,-1.7762,-1.8043,-1.8362,-1.8824,-1.9283,-1.9424,-1.9424,-1.9424,-1.9424,-1.9424,-1.9424,-1.9424,-1.9424,-1.9822,-2.0558,-2.1517,-2.2587,-2.4047,-2.5064,-2.5569,-2.6081,-2.6591,-2.6591,-2.6591,-2.6591,-2.6591,-2.6591,-2.6591,-2.6591,-2.6591,-2.6591,-2.6591,-2.6591,-2.6591,-2.66,-2.6664,-2.6857,-2.7059,-2.7426,-2.7856,-2.8315,-2.8599,-2.8764,-2.8856,-2.8966,-2.8984,-2.8984,-2.8984,-2.8984,-2.8984,-2.8984,-2.8984,-2.8984,-2.8984,-2.8984,-1.4298,-1.4298,-1.4298,-1.4298,-1.4298,-1.4298,-1.4298,-1.4298,-1.4298,-1.4298,-1.4298,-1.4298,-1.4298,-1.4443,-1.4817,-1.5113,-1.5137,-1.565,-1.5837,-1.5885,-1.5885,-1.5885,-1.5885,-1.5945,-1.6004,-1.6217,-1.6318,-1.6636,-1.7014,-1.712,-1.7331,-1.7536,-1.7582,-1.7589,-1.7589,-1.7589,-1.7589,-1.7589,-1.7589,-1.7589,-1.7589,-1.7589,-1.7589,-1.7589,-1.7589,-1.7589,-1.7589,-1.7629,-1.7689,-1.7695,-1.7896,-1.7955,-1.8043,-1.8176,-1.817,-1.7983,-1.7936,-1.7816,-1.7662,-1.7655,-1.7789,-1.811,-1.8557,-1.9018,-1.9319,-1.9424,-1.9424,-1.9424,-1.9424,-1.9424,-1.9424,-1.9424,-1.9424,-1.9655,-2.0277,-2.1174,-2.2248,-2.3592,-2.4556,-2.5008,-2.5633,-2.6364,-2.6591,-2.6591,-2.6591,-2.6591,-2.6591,-2.6591,-2.6591,-2.6591,-2.6591,-2.6591,-2.6591,-2.6591,-2.6591,-2.6674,-2.6765,-2.693,-2.7215,-2.7701,-2.8205,-2.8434,-2.8645,-2.8865,-2.8984,-2.8984,-2.8984,-2.8984,-2.8984,-2.8984,-2.8984,-2.8984,-2.8984,-2.8984,-2.8984,-1.4298,-1.4298,-1.4298,-1.4298,-1.4298,-1.4298,-1.4298,-1.4298,-1.4298,-1.4298,-1.4298,-1.4298,-1.4298,-1.4449,-1.4835,-1.5113,-1.5185,-1.565,-1.5831,-1.5885,-1.5885,-1.5885,-1.5885,-1.5939,-1.6051,-1.6264,-1.6477,-1.6743,-1.7173,-1.7331,-1.7483,-1.7582,-1.7589,-1.7589,-1.7589,-1.7602,-1.7609,-1.7602,-1.7595,-1.7589,-1.7589,-1.7589,-1.7589,-1.7589,-1.7589,-1.7702,-1.7829,-1.7816,-1.7976,-1.811,-1.8243,-1.8297,-1.833,-1.847,-1.8364,-1.8123,-1.8029,-1.7909,-1.7729,-1.7782,-1.8076,-1.8557,-1.8965,-1.9245,-1.9366,-1.9424,-1.9424,-1.9424,-1.9424,-1.9424,-1.9424,-1.9424,-1.9424,-1.954,-1.9996,-2.078,-2.1851,-2.3087,-2.427,-2.4834,-2.5688,-2.6527,-2.6591,-2.6591,-2.6591,-2.6591,-2.6591,-2.6591,-2.6591,-2.6591,-2.6591,-2.6591,-2.6591,-2.6591,-2.6591,-2.6619,-2.6664,-2.683,-2.7022,-2.7453,-2.7921,-2.8315,-2.8535,-2.8773,-2.8975,-2.8984,-2.8984,-2.8984,-2.8984,-2.8984,-2.8984,-2.8984,-2.8984,-2.8984,-2.8984,-1.4298,-1.4298,-1.4298,-1.4298,-1.4298,-1.4298,-1.4298,-1.4298,-1.4298,-1.4298,-1.4298,-1.4298,-1.4298,-1.4449,-1.4847,-1.5107,-1.5252,-1.5614,-1.5825,-1.5885,-1.5885,-1.5885,-1.5885,-1.5939,-1.6099,-1.6365,-1.663,-1.6895,-1.7331,-1.7529,-1.7582,-1.7589,-1.7589,-1.7589,-1.7609,-1.7675,-1.7716,-1.7729,-1.7822,-1.7842,-1.7876,-1.7883,-1.7889,-1.7903,-1.7916,-1.7989,-1.8136,-1.819,-1.8257,-1.841,-1.8544,-1.8611,-1.8651,-1.8644,-1.8524,-1.8323,-1.8143,-1.8023,-1.7896,-1.8029,-1.8397,-1.8804,-1.9145,-1.9312,-1.9424,-1.9424,-1.9424,-1.9424,-1.9424,-1.9424,-1.9424,-1.9424,-1.9424,-1.9482,-1.9482,-2.0162,-2.1174,-2.2361,-2.3592,-2.4667,-2.5624,-2.6591,-2.6591,-2.6591,-2.6591,-2.6591,-2.6591,-2.6591,-2.6591,-2.6591,-2.6591,-2.6591,-2.6591,-2.6591,-2.6591,-2.6609,-2.6628,-2.6655,-2.6857,-2.7114,-2.7526,-2.7948,-2.8352,-2.8599,-2.8783,-2.8929,-2.8984,-2.8984,-2.8984,-2.8984,-2.8984,-2.8984,-2.8984,-2.8984,-2.8984,-1.4298,-1.4298,-1.4298,-1.4298,-1.4298,-1.4298,-1.4298,-1.4298,-1.4298,-1.4298,-1.4298,-1.4298,-1.4322,-1.4449,-1.4902,-1.5113,-1.5276,-1.5656,-1.5885,-1.5885,-1.5885,-1.5885,-1.5885,-1.5998,-1.6205,-1.6571,-1.6783,-1.7054,-1.7536,-1.7589,-1.7589,-1.7589,-1.7589,-1.7589,-1.7615,-1.7876,-1.7955,-1.8009,-1.8263,-1.831,-1.8357,-1.8337,-1.833,-1.8323,-1.8317,-1.8343,-1.845,-1.8484,-1.8551,-1.8664,-1.8838,-1.8905,-1.8925,-1.9078,-1.8911,-1.849,-1.845,-1.8317,-1.811,-1.8343,-1.8637,-1.8945,-1.9259,-1.941,-1.9424,-1.9424,-1.9424,-1.9424,-1.9424,-1.9424,-1.9424,-1.9424,-1.9424,-1.9424,-1.9424,-1.9822,-2.0895,-2.1631,-2.2862,-2.4381,-2.5624,-2.6582,-2.6582,-2.6591,-2.6591,-2.6591,-2.6591,-2.6591,-2.6591,-2.6591,-2.6591,-2.6591,-2.6591,-2.6591,-2.6591,-2.6591,-2.6591,-2.66,-2.6701,-2.6958,-2.7261,-2.7563,-2.7957,-2.8352,-2.8618,-2.8792,-2.8902,-2.8984,-2.8984,-2.8984,-2.8984,-2.8984,-2.8984,-2.8984,-2.8984,-1.4298,-1.4298,-1.4298,-1.4298,-1.4298,-1.4298,-1.4298,-1.4298,-1.4298,-1.4298,-1.4298,-1.4298,-1.4419,-1.4642,-1.4914,-1.5191,-1.5415,-1.5668,-1.5885,-1.5885,-1.5885,-1.5885,-1.5945,-1.6051,-1.6311,-1.6683,-1.6902,-1.716,-1.7589,-1.7589,-1.7589,-1.7589,-1.7589,-1.7589,-1.7595,-1.7729,-1.7802,-1.7962,-1.8102,-1.8263,-1.847,-1.851,-1.8524,-1.8531,-1.8544,-1.8617,-1.8758,-1.8778,-1.8844,-1.8978,-1.9158,-1.9178,-1.9138,-1.9239,-1.8905,-1.8584,-1.851,-1.8564,-1.8577,-1.8771,-1.8911,-1.9138,-1.9336,-1.9424,-1.9424,-1.9424,-1.9424,-1.9424,-1.9424,-1.9424,-1.9424,-1.9424,-1.9424,-1.9424,-1.954,-2.0046,-2.078,-2.1288,-2.2248,-2.3935,-2.5348,-2.6081,-2.6418,-2.6582,-2.6591,-2.6591,-2.6591,-2.6591,-2.6591,-2.6591,-2.6591,-2.6591,-2.6591,-2.6591,-2.6591,-2.6591,-2.6591,-2.6591,-2.6655,-2.6811,-2.7059,-2.7288,-2.7682,-2.8132,-2.8407,-2.8654,-2.8792,-2.8902,-2.8966,-2.8984,-2.8984,-2.8984,-2.8984,-2.8984,-2.8984,-1.4298,-1.4298,-1.4298,-1.4298,-1.4298,-1.4298,-1.4298,-1.4298,-1.4298,-1.4298,-1.4298,-1.4304,-1.4449,-1.4721,-1.4986,-1.5252,-1.5511,-1.5765,-1.5885,-1.5885,-1.5885,-1.5885,-1.5945,-1.6111,-1.6318,-1.669,-1.6948,-1.716,-1.7589,-1.7589,-1.7589,-1.7589,-1.7589,-1.7589,-1.7615,-1.7709,-1.7856,-1.8035,-1.8202,-1.851,-1.8664,-1.8751,-1.8831,-1.8831,-1.8851,-1.8905,-1.9025,-1.9112,-1.9158,-1.937,-1.9424,-1.9424,-1.9279,-1.9085,-1.8838,-1.8691,-1.8664,-1.8744,-1.8851,-1.9045,-1.9165,-1.9312,-1.9424,-1.9424,-1.9424,-1.9424,-1.9424,-1.9424,-1.9424,-1.9424,-1.9424,-1.9424,-1.9424,-1.9424,-1.9597,-2.0046,-2.027,-2.0723,-2.1737,-2.3432,-2.4778,-2.5514,-2.6309,-2.6473,-2.6591,-2.6591,-2.6591,-2.6591,-2.6591,-2.6591,-2.6591,-2.6591,-2.6591,-2.6591,-2.6591,-2.6591,-2.6591,-2.6591,-2.6655,-2.6729,-2.6857,-2.7095,-2.7508,-2.7856,-2.8058,-2.8297,-2.8645,-2.8819,-2.8902,-2.8957,-2.8984,-2.8984,-2.8984,-2.8984,-2.8984,-1.4298,-1.4298,-1.4298,-1.4298,-1.4298,-1.4298,-1.4298,-1.4298,-1.4298,-1.4298,-1.4298,-1.4298,-1.4485,-1.4751,-1.5004,-1.5276,-1.5541,-1.5795,-1.5861,-1.5885,-1.5885,-1.5885,-1.5945,-1.5998,-1.6318,-1.6577,-1.6836,-1.716,-1.7589,-1.7589,-1.7589,-1.7589,-1.7589,-1.7589,-1.7655,-1.7749,-1.7916,-1.8055,-1.8368,-1.8664,-1.8831,-1.9118,-1.9243,-1.9256,-1.9276,-1.929,-1.935,-1.937,-1.9383,-1.9424,-1.9424,-1.941,-1.9252,-1.9058,-1.8965,-1.8835,-1.8858,-1.8918,-1.9018,-1.9219,-1.935,-1.9417,-1.9424,-1.9424,-1.9424,-1.9424,-1.9424,-1.9424,-1.9424,-1.9424,-1.9424,-1.9424,-1.9424,-1.9424,-1.9424,-1.9597,-1.9707,-2.0385,-2.146,-2.2805,-2.4158,-2.5174,-2.6245,-2.6591,-2.6591,-2.6591,-2.6591,-2.6591,-2.6591,-2.6591,-2.6591,-2.6591,-2.6591,-2.6591,-2.6591,-2.6591,-2.6591,-2.6591,-2.6591,-2.6655,-2.6774,-2.6885,-2.7187,-2.7462,-2.7636,-2.7911,-2.826,-2.859,-2.8856,-2.8893,-2.8874,-2.8984,-2.8984,-2.8984,-2.8984,-1.4298,-1.4298,-1.4298,-1.4298,-1.4298,-1.4298,-1.4298,-1.4298,-1.4298,-1.4298,-1.4298,-1.4298,-1.4564,-1.4986,-1.5077,-1.539,-1.5656,-1.5843,-1.5873,-1.5885,-1.5885,-1.5885,-1.5945,-1.6111,-1.6371,-1.6683,-1.6948,-1.716,-1.7536,-1.7589,-1.7589,-1.7589,-1.7589,-1.7589,-1.7615,-1.7669,-1.7842,-1.8009,-1.8417,-1.8664,-1.8918,-1.9178,-1.935,-1.9417,-1.9424,-1.9424,-1.9424,-1.9424,-1.9424,-1.9424,-1.9424,-1.9305,-1.9038,-1.8791,-1.8617,-1.8644,-1.8791,-1.9005,-1.9205,-1.9319,-1.9424,-1.9424,-1.9424,-1.9424,-1.9424,-1.9424,-1.9424,-1.9424,-1.9424,-1.9424,-1.9424,-1.9424,-1.9424,-1.9424,-1.9424,-1.9424,-1.954,-1.9822,-2.0952,-2.2361,-2.3712,-2.5174,-2.6245,-2.6591,-2.6591,-2.6591,-2.6591,-2.6591,-2.6591,-2.6591,-2.6591,-2.6591,-2.6591,-2.6591,-2.6591,-2.6591,-2.6591,-2.6591,-2.6591,-2.6591,-2.6646,-2.6765,-2.6967,-2.7179,-2.7407,-2.7636,-2.7884,-2.8205,-2.8535,-2.8682,-2.87,-2.8865,-2.8975,-2.8948,-2.8911,-1.4298,-1.4298,-1.4298,-1.4298,-1.4298,-1.4298,-1.4298,-1.4298,-1.4298,-1.4298,-1.431,-1.4425,-1.4702,-1.5071,-1.5234,-1.5487,-1.5849,-1.5873,-1.5885,-1.5885,-1.5885,-1.5885,-1.5998,-1.6111,-1.6371,-1.6683,-1.6948,-1.716,-1.7483,-1.7589,-1.7589,-1.7589,-1.7589,-1.7589,-1.7595,-1.7615,-1.7682,-1.7889,-1.815,-1.845,-1.8744,-1.9038,-1.9205,-1.9345,-1.941,-1.941,-1.9424,-1.9424,-1.9424,-1.9383,-1.9305,-1.9125,-1.8931,-1.8758,-1.8684,-1.8751,-1.8971,-1.9165,-1.9312,-1.9403,-1.9424,-1.9424,-1.9424,-1.9424,-1.9424,-1.9424,-1.9424,-1.9424,-1.9424,-1.9424,-1.9424,-1.9424,-1.9424,-1.9424,-1.9424,-1.9424,-1.9424,-1.9424,-2.0558,-2.1972,-2.3488,-2.5128,-2.6026,-2.6364,-2.6591,-2.6591,-2.6591,-2.6591,-2.6591,-2.6591,-2.6591,-2.6591,-2.6591,-2.6591,-2.6591,-2.6591,-2.6591,-2.6591,-2.6591,-2.6591,-2.6591,-2.6628,-2.6811,-2.6976,-2.7242,-2.7407,-2.7536,-2.7856,-2.8159,-2.8269,-2.8333,-2.837,-2.8563,-2.8819,-2.8783,-1.4298,-1.4298,-1.4298,-1.4298,-1.4298,-1.4298,-1.4298,-1.4298,-1.4298,-1.4298,-1.4346,-1.4588,-1.4835,-1.5113,-1.533,-1.5596,-1.5825,-1.5885,-1.5885,-1.5885,-1.5885,-1.5885,-1.5885,-1.5939,-1.6258,-1.6571,-1.6836,-1.7107,-1.7483,-1.7589,-1.7589,-1.7589,-1.7589,-1.7589,-1.7589,-1.7589,-1.7629,-1.7695,-1.7903,-1.8156,-1.845,-1.8744,-1.9025,-1.9259,-1.9363,-1.9377,-1.941,-1.9417,-1.9345,-1.9245,-1.9125,-1.8951,-1.8851,-1.8835,-1.8885,-1.8978,-1.9145,-1.9272,-1.941,-1.9424,-1.9424,-1.9424,-1.9424,-1.9424,-1.9424,-1.9424,-1.9424,-1.9424,-1.9424,-1.9424,-1.9424,-1.9424,-1.9424,-1.9424,-1.9424,-1.9424,-1.9424,-1.954,-2.027,-2.1687,-2.3095,-2.4612,-2.5743,-2.6081,-2.6591,-2.6591,-2.6591,-2.6591,-2.6591,-2.6591,-2.6591,-2.6591,-2.6591,-2.6591,-2.6591,-2.6591,-2.6591,-2.6591,-2.6591,-2.6591,-2.6591,-2.6591,-2.6591,-2.6793,-2.6985,-2.705,-2.7196,-2.7499,-2.771,-2.7774,-2.782,-2.7868,-2.8097,-2.8416,-2.848,-1.4298,-1.4298,-1.4298,-1.4298,-1.4298,-1.4298,-1.4298,-1.4298,-1.4298,-1.4298,-1.4352,-1.4594,-1.4859,-1.5125,-1.5409,-1.5668,-1.5837,-1.5885,-1.5885,-1.5885,-1.5885,-1.5885,-1.5885,-1.5939,-1.6205,-1.6518,-1.6783,-1.7054,-1.7483,-1.7589,-1.7589,-1.7589,-1.7589,-1.7589,-1.7589,-1.7589,-1.7589,-1.7595,-1.7689,-1.7889,-1.8089,-1.8444,-1.8724,-1.8931,-1.9032,-1.9145,-1.9212,-1.9383,-1.9205,-1.9052,-1.8985,-1.8811,-1.8611,-1.8804,-1.8848,-1.8978,-1.9212,-1.9383,-1.9424,-1.9424,-1.9424,-1.9424,-1.9424,-1.9424,-1.9424,-1.9424,-1.9424,-1.9424,-1.9424,-1.9424,-1.9424,-1.9424,-1.9424,-1.9424,-1.943,-1.943,-1.9437,-1.9785,-2.0183,-2.1368,-2.278,-2.3935,-2.5128,-2.5916,-2.6418,-2.6591,-2.6591,-2.6591,-2.6591,-2.6591,-2.6591,-2.6591,-2.6591,-2.6591,-2.6591,-2.6591,-2.6591,-2.6591,-2.6591,-2.6591,-2.6591,-2.6591,-2.6591,-2.6591,-2.6692,-2.6793,-2.6921,-2.7095,-2.726,-2.7325,-2.7482,-2.7519,-2.7629,-2.7884,-2.7987,-1.4298,-1.4298,-1.4298,-1.4298,-1.4298,-1.4298,-1.4298,-1.4298,-1.4298,-1.4298,-1.437,-1.4696,-1.4974,-1.5185,-1.5493,-1.5704,-1.5873,-1.5885,-1.5885,-1.5885,-1.5885,-1.5885,-1.5885,-1.5939,-1.6258,-1.6571,-1.6995,-1.7318,-1.7589,-1.7589,-1.7589,-1.7589,-1.7589,-1.7589,-1.7589,-1.7589,-1.7589,-1.7589,-1.7589,-1.7695,-1.7836,-1.8136,-1.8437,-1.8637,-1.8771,-1.8865,-1.8891,-1.9042,-1.8891,-1.8778,-1.8718,-1.8798,-1.8724,-1.8851,-1.8991,-1.9125,-1.9272,-1.9424,-1.9424,-1.9424,-1.9424,-1.9424,-1.9424,-1.9424,-1.9424,-1.9424,-1.9424,-1.9424,-1.9424,-1.9424,-1.9424,-1.9424,-1.9424,-1.9424,-1.945,-1.947,-1.9512,-1.9782,-2.0412,-2.138,-2.2604,-2.3656,-2.4842,-2.6017,-2.6418,-2.6591,-2.6591,-2.6591,-2.6591,-2.6591,-2.6591,-2.6591,-2.6591,-2.6591,-2.6591,-2.6591,-2.6591,-2.6591,-2.6591,-2.6591,-2.6591,-2.6591,-2.6591,-2.6591,-2.6591,-2.6619,-2.6747,-2.6875,-2.6875,-2.6912,-2.704,-2.716,-2.727,-2.7343,-2.7325,-1.4298,-1.4298,-1.4298,-1.4298,-1.4298,-1.4298,-1.4298,-1.4298,-1.4298,-1.4298,-1.4377,-1.4859,-1.5077,-1.5282,-1.5638,-1.5795,-1.5885,-1.5885,-1.5885,-1.5885,-1.5885,-1.5885,-1.5885,-1.5939,-1.6258,-1.673,-1.7213,-1.7424,-1.7589,-1.7589,-1.7589,-1.7589,-1.7589,-1.7589,-1.7589,-1.7589,-1.7589,-1.7589,-1.7589,-1.7589,-1.7709,-1.7836,-1.813,-1.833,-1.8444,-1.845,-1.8477,-1.8504,-1.8504,-1.8557,-1.8604,-1.8731,-1.8865,-1.8978,-1.9132,-1.9279,-1.9383,-1.9424,-1.9424,-1.9424,-1.9424,-1.9424,-1.9424,-1.9424,-1.9424,-1.9424,-1.9424,-1.9424,-1.9424,-1.9424,-1.9424,-1.9424,-1.9424,-1.947,-1.9504,-1.9506,-1.9659,-1.9773,-2.0514,-2.1306,-2.22,-2.3223,-2.4381,-2.5624,-2.63,-2.6473,-2.6591,-2.6591,-2.6591,-2.6591,-2.6591,-2.6591,-2.6591,-2.6591,-2.6591,-2.6591,-2.6591,-2.6591,-2.6591,-2.6591,-2.6591,-2.6591,-2.6591,-2.6591,-2.6591,-2.6591,-2.6591,-2.6683,-2.6646,-2.6637,-2.6747,-2.6894,-2.6857,-2.6894,-2.6765,-1.4298,-1.4298,-1.4298,-1.4298,-1.4298,-1.4298,-1.4298,-1.4298,-1.4298,-1.4298,-1.4437,-1.4829,-1.5113,-1.5131,-1.5656,-1.5879,-1.5885,-1.5885,-1.5885,-1.5885,-1.5885,-1.5885,-1.5939,-1.6045,-1.6258,-1.6736,-1.7265,-1.7536,-1.7589,-1.7589,-1.7589,-1.7589,-1.7589,-1.7589,-1.7589,-1.7589,-1.7589,-1.7589,-1.7589,-1.7589,-1.7589,-1.7709,-1.7836,-1.7949,-1.8082,-1.8283,-1.841,-1.8484,-1.8497,-1.8557,-1.8698,-1.8838,-1.8985,-1.9125,-1.9272,-1.9319,-1.9424,-1.9424,-1.9424,-1.9424,-1.9424,-1.9424,-1.9424,-1.9424,-1.9424,-1.9424,-1.9424,-1.9424,-1.9424,-1.9424,-1.9424,-1.9424,-1.943,-1.9492,-1.9566,-1.9686,-1.982,-1.9786,-2.0028,-2.0601,-2.1226,-2.232,-2.3432,-2.4667,-2.5962,-2.619,-2.6582,-2.6591,-2.6591,-2.6591,-2.6591,-2.6591,-2.6591,-2.6591,-2.6591,-2.6591,-2.6591,-2.6591,-2.6591,-2.6591,-2.6591,-2.6591,-2.6591,-2.6591,-2.6591,-2.6591,-2.6591,-2.6591,-2.6591,-2.6609,-2.66,-2.6637,-2.6591,-2.6591,-2.6591]},{"header":{"parameterUnit":"m.s-1","parameterCategory":1,"la1":31.0,"la2":29.5877,"lo1":-88.7671,"lo2":-86.6584,"dy":0.0162,"dx":0.0185,"nx":115,"ny":88,"refTime":"2024-02-28T18:00:00:Z","depth":0,"parameterNumber":3,"parameterNumberName":"V-component_of_WINDS"},"data":[0.0,0.0,0.0,0.0,0.0,0.0,0.0,0.0,0.0,0.0,0.0,0.0,0.0,0.0,0.0,0.0,0.0,0.0,0.0,0.0,0.0,0.0,0.0,0.0,0.0,0.0,0.0,0.0,0.0,0.0,0.0,0.0,0.0,0.0,0.0,0.0,0.0,0.0,0.0,0.0,0.0,0.0,0.0,0.0,0.0,0.0,0.0,0.0,0.0,0.0,0.0,0.0,0.0,0.0,0.0,0.0,0.0,0.0,0.0,0.0,0.0,0.0,0.0,0.0,0.0,0.0,0.0,0.0,0.0,0.0,0.0,0.0,0.0,0.0,0.0,0.0,0.0,0.0,0.0,0.0,0.0,0.0,0.0,0.0,0.0,0.0,0.0,0.0,0.0,0.0,0.0,0.0,0.0,0.0,0.0,0.0,0.0,0.0,0.0,0.0,0.0,0.0,0.0,0.0,0.0,0.0,0.0,0.0,0.0,0.0,0.0,0.0,0.0,0.0,0.0,0.0,0.0,0.0,0.0,0.0,0.0,0.0,0.0,0.0,0.0,0.0,0.0,0.0,0.0,0.0,0.0,0.0,0.0,0.0,0.0,0.0,0.0,0.0,0.0,0.0,0.0,0.0,0.0,0.0,0.0,0.0,0.0,0.0,0.0,0.0,0.0,0.0,0.0,0.0,0.0,0.0,0.0,0.0,0.0,0.0,0.0,0.0,0.0,0.0,0.0,0.0,0.0,0.0,0.0,0.0,0.0,0.0,0.0,0.0,0.0,0.0,0.0,0.0,0.0,0.0,0.0,0.0,0.0,0.0,0.0,0.0,0.0,0.0,0.0,0.0,0.0,0.0,0.0,0.0,0.0,0.0,0.0,0.0,0.0,0.0,0.0,0.0,0.0,0.0,0.0,0.0,0.0,0.0,0.0,0.0,0.0,0.0,0.0,0.0,0.0,0.0,0.0,0.0,0.0,0.0,0.0,0.0,0.0,0.0,0.0,0.0,0.0,0.0,0.0,0.0,0.0,0.0,0.0,0.0,0.0,0.0,0.0,0.0,0.0,0.0,0.0,0.0,0.0,0.0,0.0,0.0,0.0,0.0,0.0,0.0,0.0,0.0,0.0,0.0,0.0,0.0,0.0,0.0,0.0,0.0,0.0,0.0,0.0,0.0,0.0,0.0,0.0,0.0,0.0,0.0,0.0,0.0,0.0,0.0,0.0,0.0,0.0,0.0,0.0,0.0,0.0,0.0,0.0,0.0,0.0,0.0,0.0,0.0,0.0,0.0,0.0,0.0,0.0,0.0,0.0,0.0,0.0,0.0,0.0,0.0,0.0,0.0,0.0,0.0,0.0,0.0,0.0,0.0,0.0,0.0,0.0,0.0,0.0,0.0,0.0,0.0,0.0,0.0,0.0,0.0,0.0,0.0,0.0,0.0,0.0,0.0,0.0,0.0,0.0,0.0,0.0,0.0,0.0,0.0,0.0,0.0,0.0,0.0,0.0,0.0,0.0,0.0,0.0,0.0,0.0,0.0,0.0,0.0,0.0,0.0,0.0,0.0,0.0,0.0,0.0,0.0,0.0,0.0,0.0,0.0,0.0,0.0,0.0,0.0,0.0,0.0,0.0,0.0,0.0,0.0,0.0,0.0,0.0,0.0,0.0,0.0,0.0,0.0,0.0,0.0,0.0,0.0,0.0,0.0,0.0,0.0,0.0,0.0,0.0,0.0,0.0,0.0,0.0,0.0,0.0,0.0,0.0,0.0,0.0,0.0,0.0,0.0,0.0,0.0,0.0,0.0,0.0,0.0,0.0,0.0,0.0,0.0,0.0,0.0,0.0,0.0,0.0,0.0,0.0,0.0,0.0,0.0,0.0,0.0,0.0,0.0,0.0,0.0,0.0,0.0,0.0,0.0,0.0,0.0,0.0,0.0,0.0,0.0,0.0,0.0,0.0,0.0,0.0,0.0,0.0,0.0,0.0,0.0,0.0,0.0,0.0,0.0,0.0,0.0,0.0,0.0,0.0,0.0,0.0,0.0,0.0,0.0,0.0,0.0,0.0,0.0,0.0,0.0,0.0,0.0,0.0,0.0,0.0,0.0,0.0,0.0,0.0,0.0,0.0,0.0,0.0,0.0,0.0,0.0,0.0,0.0,0.0,0.0,0.0,0.0,0.0,0.0,0.0,0.0,0.0,0.0,0.0,0.0,0.0,0.0,0.0,0.0,0.0,0.0,0.0,0.0,0.0,0.0,0.0,0.0,0.0,0.0,0.0,0.0,0.0,0.0,0.0,0.0,0.0,0.0,0.0,0.0,0.0,0.0,0.0,0.0,0.0,0.0,0.0,0.0,0.0,0.0,0.0,0.0,0.0,0.0,0.0,0.0,0.0,0.0,0.0,0.0,0.0,0.0,0.0,0.0,0.0,0.0,0.0,0.0,0.0,0.0,0.0,0.0,0.0,0.0,0.0,0.0,0.0,0.0,0.0,0.0,0.0,0.0,0.0,0.0,0.0,0.0,0.0,0.0,0.0,0.0,0.0,0.0,0.0,0.0,0.0,0.0,0.0,0.0,0.0,0.0,0.0,0.0,0.0,0.0,0.0,0.0,0.0,0.0,0.0,0.0,0.0,0.0,0.0,0.0,0.0,0.0,0.0,0.0,0.0,0.0,0.0,0.0,0.0,0.0,0.0,0.0,0.0,0.0,0.0,0.0,0.0,0.0,0.0,0.0,0.0,0.0,0.0,0.0,0.0,0.0,0.0,0.0,0.0,0.0,0.0,0.0,0.0,0.0,0.0,0.0,0.0,0.0,0.0,0.0,0.0,0.0,0.0,0.0,0.0,0.0,0.0,0.0,0.0,0.0,0.0,0.0,0.0,0.0,0.0,0.0,0.0,0.0,0.0,0.0,0.0,0.0,0.0,0.0,0.0,0.0,0.0,0.0,0.0,0.0,0.0,0.0,0.0,0.0,0.0,0.0,0.0,0.0,0.0,0.0,0.0,0.0,0.0,0.0,0.0,0.0,0.0,0.0,0.0,0.0,0.0,0.0,0.0,0.0,0.0,0.0,0.0,0.0,0.0,0.0,0.0,0.0,0.0,0.0,0.0,0.0,0.0,0.0,0.0,0.0,0.0,0.0,0.0,0.0,0.0,0.0,0.0,0.0,0.0,0.0,0.0,0.0,0.0,0.0,0.0,0.0,0.0,0.0,0.0,0.0,0.0,0.0,0.0,0.0,0.0,0.0,0.0,0.0,0.0,0.0,0.0,0.0,0.0,0.0,0.0,0.0,0.0,0.0,0.0,0.0,0.0,0.0,0.0,0.0,0.0,0.0,0.0,0.0,0.0,0.0,0.0,0.0,0.0,0.0,0.0,0.0,0.0,0.0,0.0,0.0,0.0,0.0,0.0,0.0,0.0,0.0,0.0,0.0,0.0,0.0,0.0,0.0,0.0,0.0,0.0,0.0,0.0,0.0,0.0,0.0,0.0,0.0,0.0,0.0,0.0,0.0,0.0,0.0,0.0,0.0,0.0,0.0,0.0,0.0,0.0,0.0,0.0,0.0,0.0,0.0,0.0,0.0,0.0,0.0,0.0,0.0,0.0,0.0,0.0,0.0,0.0,0.0,0.0,0.0,0.0,0.0,0.0,0.0,0.0,0.0,0.0,0.0,0.0,0.0,0.0,0.0,0.0,0.0,0.0,0.0,0.0,0.0,0.0,0.0,0.0,0.0,0.0,0.0,0.0,0.0,0.0,0.0,0.0,0.0,0.0,0.0,0.0,0.0,0.0,0.0,0.0,0.0,0.0,0.0,0.0,0.0,0.0,0.0,0.0,0.0,0.0,0.0,0.0,0.0,0.0,0.0,0.0,0.0,0.0,0.0,0.0,0.0,0.0,0.0,0.0,0.0,0.0,0.0,0.0,0.0,0.0,0.0,0.0,0.0,0.0,0.0,0.0,0.0,0.0,0.0,0.0,0.0,0.0,0.0,0.0,0.0,0.0,0.0,0.0,0.0,0.0,0.0,0.0,0.0,0.0,0.0,0.0,0.0,0.0,0.0,0.0,0.0,0.0,0.0,0.0,0.0,0.0,0.0,0.0,0.0,0.0,0.0,0.0,0.0,0.0,0.0,0.0,0.0,0.0,0.0,0.0,0.0,0.0,0.0,0.0,0.0,0.0,0.0,0.0,0.0,0.0,0.0,0.0,0.0,0.0,0.0,0.0,0.0,0.0,0.0,0.0,0.0,0.0,0.0,0.0,0.0,0.0,0.0,0.0,0.0,2.9421,0.0,0.0,0.0,0.0,0.0,0.0,0.0,0.0,0.0,0.0,0.0,0.0,0.0,0.0,0.0,0.0,0.0,0.0,0.0,0.0,0.0,0.0,0.0,0.0,0.0,0.0,0.0,0.0,0.0,0.0,0.0,0.0,0.0,0.0,0.0,0.0,0.0,0.0,0.0,0.0,0.0,0.0,0.0,0.0,0.0,0.0,0.0,0.0,0.0,0.0,0.0,0.0,0.0,0.0,0.0,0.0,0.0,0.0,0.0,0.0,0.0,0.0,0.0,0.0,0.0,0.0,0.0,0.0,0.0,0.0,0.0,0.0,0.0,0.0,0.0,0.0,0.0,0.0,0.0,0.0,0.0,0.0,0.0,0.0,0.0,0.0,0.0,0.0,0.0,0.0,0.0,0.0,0.0,0.0,0.0,0.0,0.0,0.0,0.0,0.0,0.0,0.0,0.0,0.0,0.0,0.0,0.0,0.0,0.0,0.0,2.9501,2.9188,2.8716,2.9016,3.0099,0.0,0.0,0.0,0.0,0.0,0.0,0.0,0.0,0.0,0.0,0.0,0.0,0.0,0.0,0.0,0.0,0.0,0.0,0.0,0.0,0.0,0.0,0.0,0.0,0.0,0.0,0.0,0.0,0.0,0.0,0.0,0.0,0.0,0.0,0.0,0.0,0.0,0.0,0.0,0.0,0.0,0.0,0.0,0.0,0.0,0.0,0.0,0.0,0.0,0.0,0.0,0.0,0.0,0.0,0.0,0.0,0.0,0.0,0.0,0.0,0.0,0.0,0.0,0.0,0.0,0.0,0.0,0.0,0.0,0.0,0.0,0.0,0.0,0.0,0.0,0.0,0.0,0.0,0.0,0.0,0.0,0.0,0.0,0.0,0.0,0.0,0.0,0.0,0.0,0.0,0.0,0.0,0.0,0.0,0.0,0.0,0.0,0.0,0.0,0.0,0.0,0.0,0.0,0.0,0.0,0.0,0.0,0.0,0.0,0.0,0.0,0.0,2.947,2.9501,3.0538,0.0,0.0,0.0,0.0,0.0,0.0,0.0,0.0,0.0,0.0,0.0,0.0,0.0,0.0,0.0,0.0,0.0,0.0,0.0,0.0,0.0,0.0,0.0,0.0,0.0,0.0,0.0,0.0,0.0,0.0,0.0,0.0,0.0,0.0,0.0,0.0,0.0,0.0,0.0,0.0,0.0,0.0,0.0,0.0,0.0,0.0,0.0,0.0,0.0,0.0,0.0,0.0,0.0,0.0,0.0,0.0,0.0,0.0,0.0,0.0,0.0,0.0,0.0,0.0,0.0,0.0,0.0,0.0,0.0,0.0,0.0,0.0,0.0,0.0,0.0,0.0,0.0,0.0,0.0,0.0,0.0,0.0,0.0,0.0,0.0,0.0,0.0,0.0,0.0,0.0,0.0,0.0,0.0,0.0,0.0,0.0,0.0,0.0,0.0,0.0,0.0,0.0,0.0,0.0,0.0,0.0,0.0,0.0,0.0,0.0,3.0312,2.9716,3.016,0.0,3.0598,0.0,0.0,0.0,0.0,0.0,0.0,0.0,0.0,0.0,0.0,0.0,0.0,0.0,0.0,0.0,0.0,0.0,0.0,0.0,0.0,0.0,0.0,0.0,0.0,0.0,0.0,0.0,0.0,0.0,0.0,0.0,0.0,0.0,0.0,0.0,0.0,0.0,0.0,0.0,0.0,0.0,0.0,0.0,0.0,0.0,0.0,0.0,0.0,0.0,0.0,0.0,0.0,0.0,0.0,0.0,0.0,0.0,0.0,0.0,0.0,0.0,0.0,0.0,0.0,0.0,0.0,0.0,0.0,0.0,0.0,0.0,0.0,0.0,0.0,0.0,0.0,0.0,0.0,0.0,0.0,0.0,0.0,0.0,0.0,0.0,0.0,0.0,0.0,0.0,0.0,0.0,0.0,0.0,0.0,0.0,0.0,0.0,0.0,0.0,0.0,0.0,0.0,0.0,0.0,0.0,0.0,0.0,0.0,0.0,0.0,3.0477,3.019,3.0447,3.0417,0.0,0.0,0.0,0.0,0.0,0.0,0.0,0.0,0.0,0.0,0.0,0.0,0.0,0.0,0.0,0.0,0.0,0.0,0.0,0.0,0.0,0.0,0.0,0.0,0.0,0.0,0.0,0.0,0.0,0.0,0.0,0.0,0.0,0.0,0.0,0.0,0.0,0.0,0.0,0.0,0.0,0.0,0.0,0.0,0.0,0.0,0.0,0.0,0.0,0.0,0.0,0.0,0.0,0.0,0.0,0.0,0.0,0.0,0.0,0.0,0.0,0.0,0.0,0.0,0.0,0.0,0.0,0.0,0.0,0.0,0.0,0.0,0.0,0.0,0.0,0.0,0.0,0.0,0.0,0.0,0.0,0.0,0.0,0.0,0.0,0.0,0.0,0.0,0.0,0.0,0.0,0.0,0.0,0.0,0.0,0.0,0.0,0.0,0.0,0.0,0.0,0.0,0.0,0.0,0.0,0.0,0.0,0.0,0.0,0.0,3.0612,3.0612,3.0612,3.0612,3.0372,2.9901,0.0,0.0,0.0,0.0,0.0,0.0,0.0,0.0,0.0,0.0,0.0,0.0,0.0,0.0,0.0,0.0,0.0,0.0,0.0,0.0,0.0,0.0,0.0,0.0,0.0,0.0,0.0,0.0,0.0,0.0,0.0,0.0,0.0,0.0,0.0,0.0,0.0,0.0,0.0,0.0,0.0,0.0,0.0,0.0,0.0,0.0,0.0,0.0,0.0,0.0,0.0,0.0,0.0,0.0,0.0,0.0,0.0,0.0,0.0,0.0,0.0,0.0,0.0,0.0,0.0,0.0,0.0,0.0,0.0,0.0,0.0,0.0,0.0,0.0,0.0,0.0,0.0,0.0,0.0,0.0,0.0,0.0,0.0,0.0,0.0,0.0,0.0,0.0,0.0,0.0,0.0,0.0,0.0,0.0,0.0,0.0,0.0,0.0,0.0,0.0,0.0,0.0,0.0,0.0,0.0,0.0,0.0,0.0,3.0612,3.0612,3.0612,3.0612,3.0612,3.0568,0.0,0.0,0.0,0.0,0.0,0.0,0.0,0.0,0.0,0.0,0.0,0.0,0.0,0.0,0.0,0.0,0.0,0.0,0.0,0.0,0.0,0.0,0.0,0.0,0.0,0.0,0.0,0.0,0.0,0.0,0.0,0.0,0.0,0.0,0.0,0.0,0.0,0.0,0.0,0.0,0.0,0.0,0.0,0.0,0.0,0.0,0.0,0.0,0.0,0.0,0.0,0.0,0.0,0.0,0.0,0.0,0.0,0.0,0.0,0.0,0.0,0.0,0.0,0.0,0.0,0.0,0.0,0.0,0.0,0.0,0.0,0.0,0.0,0.0,0.0,0.0,0.0,0.0,0.0,0.0,0.0,0.0,0.0,0.0,0.0,0.0,0.0,0.0,0.0,0.0,0.0,0.0,0.0,0.0,0.0,0.0,0.0,0.0,0.0,0.0,0.0,0.0,0.0,0.0,0.0,0.0,0.0,0.0,0.0,3.0612,3.0612,3.0612,3.0612,3.0612,3.0612,0.0,0.0,0.0,0.0,0.0,0.0,0.0,0.0,0.0,0.0,0.0,0.0,0.0,0.0,0.0,0.0,0.0,0.0,0.0,0.0,0.0,0.0,0.0,0.0,0.0,0.0,0.0,0.0,0.0,0.0,0.0,0.0,0.0,0.0,0.0,0.0,0.0,0.0,0.0,0.0,0.0,0.0,0.0,0.0,0.0,0.0,0.0,0.0,0.0,0.0,0.0,0.0,0.0,0.0,0.0,0.0,0.0,0.0,0.0,0.0,0.0,0.0,0.0,0.0,0.0,0.0,0.0,0.0,0.0,0.0,0.0,0.0,0.0,0.0,0.0,0.0,0.0,0.0,0.0,0.0,0.0,0.0,0.0,0.0,0.0,0.0,0.0,0.0,0.0,0.0,0.0,0.0,0.0,0.0,0.0,0.0,0.0,0.0,0.0,0.0,0.0,0.0,0.0,0.0,0.0,0.0,0.0,0.0,0.0,3.0612,0.0,3.0612,3.0612,3.0612,3.0612,0.0,0.0,0.0,0.0,0.0,0.0,0.0,0.0,0.0,0.0,0.0,0.0,0.0,0.0,0.0,0.0,0.0,0.0,0.0,0.0,0.0,0.0,0.0,0.0,0.0,0.0,0.0,0.0,0.0,0.0,0.0,0.0,0.0,0.0,0.0,0.0,0.0,0.0,0.0,0.0,0.0,0.0,0.0,0.0,0.0,0.0,0.0,0.0,0.0,0.0,0.0,0.0,0.0,0.0,0.0,0.0,0.0,0.0,0.0,0.0,0.0,0.0,0.0,0.0,0.0,0.0,0.0,0.0,0.0,0.0,0.0,0.0,0.0,0.0,0.0,0.0,0.0,0.0,0.0,0.0,0.0,0.0,0.0,0.0,0.0,0.0,0.0,0.0,0.0,0.0,0.0,0.0,0.0,0.0,0.0,0.0,0.0,0.0,0.0,0.0,0.0,0.0,0.0,0.0,0.0,0.0,0.0,0.0,3.0612,3.0612,3.0612,3.0612,3.0612,3.0612,3.0612,0.0,0.0,0.0,0.0,0.0,0.0,0.0,0.0,0.0,0.0,0.0,0.0,0.0,0.0,0.0,0.0,0.0,0.0,0.0,0.0,0.0,0.0,0.0,0.0,0.0,0.0,0.0,0.0,0.0,0.0,0.0,0.0,0.0,0.0,0.0,0.0,0.0,0.0,0.0,0.0,0.0,0.0,0.0,0.0,0.0,0.0,0.0,0.0,0.0,0.0,0.0,0.0,0.0,0.0,0.0,0.0,0.0,0.0,0.0,0.0,0.0,0.0,0.0,0.0,0.0,0.0,0.0,0.0,0.0,0.0,0.0,0.0,0.0,0.0,0.0,0.0,0.0,0.0,0.0,0.0,0.0,0.0,0.0,0.0,0.0,0.0,0.0,0.0,0.0,0.0,0.0,0.0,0.0,0.0,0.0,0.0,0.0,0.0,0.0,0.0,0.0,0.0,0.0,0.0,0.0,0.0,0.0,0.0,0.0,3.0612,3.0612,3.0612,3.0612,3.0612,3.0612,0.0,0.0,0.0,0.0,0.0,0.0,0.0,0.0,0.0,0.0,0.0,0.0,0.0,0.0,0.0,0.0,0.0,0.0,0.0,0.0,0.0,0.0,0.0,0.0,0.0,0.0,0.0,0.0,0.0,0.0,0.0,0.0,0.0,0.0,0.0,0.0,0.0,0.0,0.0,0.0,0.0,0.0,0.0,0.0,0.0,0.0,0.0,0.0,0.0,0.0,0.0,0.0,0.0,0.0,0.0,0.0,0.0,0.0,0.0,0.0,0.0,0.0,0.0,0.0,0.0,0.0,0.0,0.0,0.0,0.0,0.0,0.0,0.0,0.0,0.0,0.0,0.0,0.0,0.0,0.0,0.0,0.0,0.0,0.0,0.0,0.0,0.0,0.0,0.0,0.0,0.0,0.0,0.0,0.0,0.0,0.0,0.0,0.0,0.0,0.0,0.0,0.0,0.0,0.0,0.0,0.0,0.0,0.0,0.0,3.0612,3.0612,3.0612,3.0612,3.0612,3.0612,3.0612,0.0,0.0,0.0,0.0,0.0,0.0,0.0,0.0,0.0,0.0,0.0,0.0,0.0,0.0,0.0,0.0,0.0,0.0,0.0,0.0,0.0,0.0,0.0,0.0,0.0,0.0,0.0,0.0,0.0,0.0,0.0,0.0,0.0,0.0,0.0,0.0,0.0,0.0,0.0,0.0,0.0,0.0,0.0,0.0,0.0,0.0,0.0,0.0,0.0,0.0,0.0,0.0,0.0,0.0,0.0,0.0,0.0,0.0,0.0,0.0,0.0,0.0,0.0,0.0,0.0,0.0,0.0,0.0,0.0,0.0,0.0,0.0,0.0,0.0,0.0,0.0,0.0,0.0,0.0,0.0,0.0,0.0,0.0,0.0,0.0,0.0,0.0,0.0,0.0,0.0,0.0,0.0,0.0,0.0,0.0,0.0,0.0,0.0,0.0,0.0,0.0,0.0,0.0,0.0,0.0,0.0,0.0,0.0,3.0612,3.0612,3.0612,3.0612,3.0612,3.0612,0.0,0.0,0.0,0.0,0.0,0.0,0.0,0.0,0.0,0.0,0.0,0.0,0.0,0.0,0.0,0.0,0.0,0.0,0.0,0.0,0.0,0.0,0.0,0.0,0.0,0.0,0.0,0.0,0.0,0.0,0.0,0.0,0.0,0.0,0.0,0.0,0.0,0.0,0.0,0.0,0.0,0.0,0.0,0.0,0.0,0.0,0.0,0.0,0.0,0.0,0.0,0.0,0.0,0.0,0.0,0.0,0.0,0.0,0.0,0.0,0.0,0.0,0.0,0.0,0.0,0.0,0.0,0.0,0.0,0.0,0.0,0.0,0.0,0.0,0.0,0.0,0.0,0.0,0.0,0.0,0.0,0.0,0.0,0.0,0.0,0.0,0.0,0.0,0.0,0.0,0.0,0.0,0.0,0.0,0.0,0.0,0.0,0.0,0.0,0.0,0.0,0.0,0.0,0.0,0.0,0.0,0.0,0.0,0.0,3.0612,3.0612,3.0612,3.0612,3.0612,3.0612,0.0,0.0,0.0,0.0,0.0,0.0,0.0,0.0,0.0,0.0,0.0,0.0,0.0,0.0,0.0,0.0,0.0,0.0,0.0,0.0,0.0,0.0,0.0,0.0,0.0,0.0,0.0,0.0,0.0,0.0,0.0,0.0,0.0,0.0,0.0,0.0,0.0,0.0,0.0,0.0,0.0,0.0,0.0,0.0,0.0,0.0,0.0,0.0,0.0,0.0,0.0,0.0,0.0,0.0,0.0,0.0,0.0,0.0,0.0,0.0,0.0,0.0,0.0,0.0,0.0,0.0,0.0,0.0,0.0,0.0,0.0,0.0,0.0,0.0,0.0,0.0,0.0,0.0,0.0,0.0,0.0,0.0,0.0,0.0,0.0,0.0,0.0,0.0,0.0,0.0,0.0,0.0,0.0,0.0,0.0,0.0,0.0,0.0,0.0,0.0,0.0,0.0,0.0,0.0,0.0,0.0,0.0,0.0,3.0612,3.0612,3.0612,3.0612,3.0612,3.0612,3.0612,0.0,0.0,0.0,0.0,0.0,0.0,0.0,0.0,0.0,0.0,0.0,0.0,0.0,0.0,0.0,0.0,0.0,0.0,0.0,0.0,0.0,0.0,0.0,0.0,0.0,0.0,0.0,0.0,0.0,0.0,0.0,0.0,0.0,0.0,0.0,0.0,0.0,0.0,0.0,0.0,0.0,0.0,0.0,0.0,0.0,0.0,0.0,0.0,0.0,0.0,0.0,0.0,0.0,0.0,0.0,0.0,0.0,0.0,0.0,0.0,0.0,0.0,0.0,0.0,0.0,0.0,0.0,0.0,0.0,0.0,0.0,0.0,0.0,0.0,0.0,0.0,0.0,0.0,0.0,0.0,0.0,0.0,0.0,0.0,0.0,0.0,0.0,0.0,0.0,0.0,0.0,0.0,0.0,0.0,0.0,0.0,0.0,0.0,0.0,0.0,0.0,0.0,0.0,0.0,0.0,0.0,0.0,0.0,3.0672,3.0612,3.0612,3.0612,3.0612,3.0612,3.0612,0.0,0.0,0.0,0.0,0.0,0.0,0.0,0.0,0.0,0.0,0.0,0.0,0.0,0.0,0.0,0.0,0.0,0.0,0.0,0.0,0.0,0.0,0.0,0.0,0.0,0.0,0.0,0.0,0.0,0.0,0.0,0.0,0.0,0.0,0.0,0.0,0.0,0.0,0.0,0.0,0.0,0.0,0.0,0.0,0.0,0.0,0.0,0.0,0.0,0.0,0.0,0.0,0.0,0.0,0.0,0.0,0.0,0.0,0.0,0.0,0.0,0.0,0.0,0.0,0.0,0.0,0.0,0.0,0.0,0.0,0.0,0.0,0.0,0.0,0.0,0.0,0.0,0.0,0.0,0.0,0.0,0.0,0.0,0.0,0.0,0.0,0.0,0.0,0.0,0.0,0.0,0.0,0.0,0.0,0.0,0.0,0.0,0.0,0.0,0.0,0.0,0.0,0.0,0.0,0.0,0.0,0.0,0.0,3.0984,3.0612,3.0612,3.0612,3.0612,3.0612,3.0612,0.0,0.0,0.0,0.0,0.0,0.0,0.0,0.0,0.0,0.0,0.0,0.0,0.0,0.0,0.0,0.0,0.0,0.0,0.0,0.0,0.0,0.0,0.0,0.0,0.0,0.0,0.0,0.0,0.0,0.0,0.0,0.0,0.0,0.0,0.0,0.0,0.0,0.0,0.0,0.0,0.0,0.0,0.0,0.0,0.0,0.0,0.0,0.0,3.261,0.0,0.0,0.0,0.0,0.0,0.0,0.0,0.0,0.0,0.0,0.0,0.0,0.0,0.0,0.0,0.0,0.0,0.0,0.0,0.0,0.0,0.0,0.0,0.0,0.0,0.0,0.0,0.0,0.0,0.0,0.0,0.0,0.0,0.0,0.0,0.0,0.0,0.0,0.0,0.0,0.0,0.0,0.0,0.0,0.0,0.0,0.0,0.0,0.0,0.0,0.0,0.0,0.0,0.0,0.0,0.0,0.0,0.0,0.0,3.1161,3.0925,3.1219,3.129,3.1048,3.1583,3.1451,0.0,0.0,0.0,0.0,0.0,0.0,0.0,0.0,0.0,0.0,0.0,0.0,0.0,0.0,0.0,0.0,0.0,0.0,0.0,0.0,0.0,0.0,0.0,0.0,0.0,0.0,0.0,0.0,0.0,0.0,0.0,0.0,0.0,0.0,0.0,0.0,0.0,0.0,0.0,0.0,0.0,0.0,0.0,0.0,0.0,0.0,0.0,0.0,0.0,0.0,0.0,0.0,0.0,0.0,0.0,0.0,0.0,0.0,0.0,0.0,0.0,0.0,0.0,0.0,0.0,0.0,0.0,0.0,0.0,0.0,0.0,0.0,0.0,0.0,0.0,0.0,0.0,0.0,0.0,0.0,0.0,0.0,0.0,0.0,0.0,0.0,0.0,0.0,0.0,0.0,0.0,0.0,0.0,0.0,0.0,0.0,0.0,0.0,0.0,0.0,0.0,0.0,0.0,0.0,0.0,0.0,0.0,3.1572,3.1588,3.1707,3.2214,3.227,3.1904,3.2879,3.2657,3.1097,0.0,0.0,0.0,0.0,0.0,0.0,0.0,0.0,0.0,0.0,0.0,0.0,0.0,0.0,0.0,0.0,0.0,0.0,0.0,0.0,0.0,0.0,0.0,0.0,0.0,0.0,0.0,0.0,0.0,0.0,0.0,0.0,0.0,0.0,0.0,0.0,0.0,0.0,3.2966,3.2875,0.0,0.0,0.0,0.0,0.0,0.0,0.0,0.0,3.3656,0.0,0.0,0.0,0.0,0.0,0.0,0.0,0.0,0.0,0.0,0.0,0.0,0.0,0.0,0.0,0.0,0.0,0.0,0.0,0.0,0.0,0.0,0.0,0.0,0.0,0.0,0.0,0.0,0.0,0.0,0.0,0.0,0.0,0.0,0.0,0.0,0.0,0.0,0.0,0.0,0.0,0.0,0.0,0.0,0.0,0.0,0.0,0.0,0.0,0.0,0.0,0.0,0.0,0.0,0.0,0.0,3.3288,3.2872,3.2927,3.3546,3.3275,3.3274,3.3593,3.3789,3.3562,3.2895,0.0,0.0,0.0,0.0,0.0,0.0,0.0,0.0,0.0,0.0,0.0,0.0,0.0,0.0,0.0,0.0,0.0,0.0,0.0,0.0,0.0,0.0,0.0,0.0,0.0,0.0,0.0,0.0,0.0,0.0,0.0,0.0,0.0,0.0,0.0,0.0,0.0,0.0,0.0,3.3563,3.3379,0.0,0.0,0.0,0.0,0.0,0.0,0.0,0.0,3.5094,0.0,0.0,0.0,0.0,0.0,0.0,0.0,0.0,0.0,0.0,0.0,0.0,0.0,0.0,0.0,0.0,0.0,0.0,0.0,0.0,0.0,0.0,0.0,0.0,0.0,0.0,0.0,0.0,0.0,0.0,0.0,0.0,0.0,0.0,0.0,0.0,0.0,0.0,0.0,0.0,0.0,0.0,0.0,0.0,0.0,0.0,0.0,0.0,0.0,0.0,0.0,0.0,0.0,0.0,0.0,3.3699,3.3781,3.4017,3.434,3.4484,3.4547,3.4547,3.508,3.5048,0.0,0.0,0.0,0.0,0.0,0.0,0.0,0.0,0.0,0.0,0.0,0.0,0.0,0.0,0.0,0.0,0.0,0.0,0.0,0.0,0.0,0.0,0.0,0.0,0.0,0.0,0.0,0.0,0.0,0.0,0.0,0.0,0.0,0.0,0.0,0.0,0.0,0.0,0.0,0.0,3.4826,3.478,3.5555,0.0,0.0,0.0,0.0,0.0,0.0,3.6104,3.6166,0.0,0.0,0.0,0.0,0.0,0.0,0.0,0.0,0.0,0.0,0.0,0.0,0.0,0.0,0.0,0.0,0.0,0.0,0.0,0.0,0.0,0.0,0.0,0.0,0.0,0.0,0.0,0.0,0.0,0.0,0.0,0.0,0.0,0.0,0.0,0.0,0.0,0.0,0.0,0.0,0.0,0.0,0.0,0.0,0.0,0.0,0.0,0.0,0.0,0.0,0.0,0.0,0.0,0.0,0.0,3.426,3.4687,3.5014,3.5241,3.5682,3.5781,3.5523,3.6399,3.643,0.0,0.0,0.0,0.0,0.0,0.0,0.0,0.0,0.0,0.0,0.0,0.0,0.0,0.0,0.0,0.0,0.0,0.0,0.0,0.0,0.0,0.0,0.0,0.0,0.0,0.0,0.0,0.0,0.0,0.0,0.0,0.0,0.0,0.0,0.0,0.0,0.0,0.0,0.0,0.0,0.0,3.6286,3.6948,3.6646,0.0,0.0,0.0,0.0,3.6714,3.7146,0.0,0.0,0.0,0.0,0.0,0.0,0.0,0.0,0.0,0.0,0.0,0.0,0.0,0.0,0.0,0.0,0.0,0.0,0.0,0.0,0.0,0.0,0.0,0.0,0.0,0.0,0.0,0.0,0.0,0.0,0.0,0.0,0.0,0.0,0.0,0.0,0.0,0.0,0.0,0.0,0.0,0.0,0.0,0.0,0.0,0.0,0.0,0.0,0.0,0.0,0.0,0.0,0.0,0.0,0.0,0.0,3.6022,3.5753,3.611,3.7107,3.6766,3.6783,3.7205,3.7344,3.7119,0.0,0.0,0.0,0.0,0.0,0.0,0.0,0.0,0.0,0.0,0.0,0.0,0.0,0.0,0.0,0.0,0.0,0.0,0.0,0.0,0.0,0.0,0.0,0.0,0.0,0.0,0.0,0.0,0.0,0.0,0.0,0.0,0.0,0.0,0.0,0.0,0.0,0.0,0.0,0.0,0.0,3.7141,3.8156,3.8222,3.8524,0.0,0.0,3.8996,3.936,3.9067,0.0,0.0,0.0,0.0,0.0,0.0,0.0,0.0,0.0,0.0,0.0,0.0,0.0,0.0,0.0,0.0,0.0,0.0,0.0,0.0,0.0,0.0,0.0,0.0,0.0,0.0,0.0,0.0,0.0,0.0,0.0,0.0,0.0,0.0,0.0,0.0,0.0,0.0,0.0,0.0,0.0,0.0,0.0,0.0,0.0,0.0,0.0,0.0,0.0,0.0,0.0,0.0,0.0,0.0,0.0,3.6011,3.699,3.7193,3.7727,3.8602,3.8402,3.8402,3.8618,3.8618,3.8402,0.0,0.0,0.0,0.0,0.0,0.0,0.0,0.0,0.0,0.0,0.0,0.0,0.0,0.0,0.0,0.0,0.0,0.0,0.0,0.0,0.0,0.0,0.0,0.0,0.0,0.0,0.0,0.0,0.0,0.0,0.0,0.0,0.0,0.0,0.0,0.0,0.0,0.0,0.0,0.0,0.0,0.0,3.8789,3.9096,0.0,0.0,0.0,4.0056,3.9889,0.0,0.0,0.0,0.0,0.0,0.0,0.0,0.0,0.0,0.0,0.0,0.0,0.0,0.0,0.0,0.0,0.0,0.0,0.0,0.0,0.0,0.0,0.0,0.0,0.0,0.0,0.0,0.0,0.0,0.0,0.0,0.0,0.0,0.0,0.0,0.0,0.0,0.0,0.0,0.0,0.0,0.0,0.0,0.0,0.0,0.0,0.0,0.0,0.0,0.0,0.0,0.0,0.0,0.0,0.0,0.0,0.0,3.797,3.8491,3.8997,3.9471,3.9487,3.9487,3.9487,3.9487,0.0,0.0,0.0,0.0,0.0,0.0,0.0,0.0,0.0,0.0,0.0,0.0,0.0,0.0,0.0,0.0,0.0,0.0,0.0,0.0,0.0,0.0,0.0,0.0,0.0,0.0,0.0,3.9487,0.0,0.0,0.0,0.0,0.0,0.0,0.0,0.0,0.0,0.0,0.0,0.0,0.0,0.0,3.9523,3.9523,3.9849,4.02,0.0,0.0,4.0681,4.0359,4.0699,4.0836,0.0,0.0,0.0,0.0,0.0,0.0,0.0,0.0,0.0,0.0,0.0,0.0,0.0,0.0,0.0,0.0,0.0,0.0,0.0,0.0,0.0,0.0,0.0,0.0,0.0,0.0,0.0,0.0,0.0,0.0,0.0,0.0,0.0,0.0,0.0,0.0,0.0,0.0,0.0,0.0,0.0,0.0,0.0,0.0,0.0,0.0,0.0,0.0,0.0,0.0,0.0,0.0,0.0,0.0,0.0,3.9345,3.9408,3.9455,3.9503,3.9487,3.9487,3.9487,3.9487,3.9471,0.0,0.0,0.0,0.0,0.0,0.0,0.0,0.0,0.0,0.0,0.0,0.0,0.0,0.0,0.0,0.0,0.0,0.0,0.0,0.0,0.0,0.0,0.0,0.0,0.0,0.0,0.0,0.0,0.0,0.0,0.0,0.0,0.0,0.0,0.0,0.0,0.0,0.0,0.0,0.0,0.0,4.0696,4.0696,4.073,4.0919,0.0,0.0,4.0953,4.1407,4.1522,4.1522,4.1474,0.0,0.0,0.0,0.0,0.0,0.0,0.0,0.0,0.0,0.0,0.0,0.0,0.0,0.0,0.0,0.0,0.0,0.0,0.0,0.0,0.0,0.0,0.0,0.0,0.0,0.0,0.0,0.0,0.0,0.0,0.0,0.0,0.0,0.0,0.0,0.0,0.0,0.0,0.0,0.0,0.0,0.0,0.0,0.0,0.0,0.0,0.0,0.0,0.0,0.0,0.0,0.0,0.0,3.8918,4.0027,4.0043,4.0274,4.0767,4.0388,4.0182,4.0182,3.9724,3.9724,0.0,0.0,0.0,0.0,0.0,0.0,0.0,0.0,0.0,0.0,0.0,0.0,0.0,0.0,0.0,0.0,0.0,0.0,0.0,0.0,0.0,0.0,0.0,0.0,0.0,0.0,0.0,0.0,4.0783,4.0893,4.1178,0.0,0.0,0.0,0.0,0.0,0.0,0.0,0.0,0.0,0.0,4.0799,4.0799,4.1104,0.0,0.0,4.1423,4.1357,4.1555,4.1588,4.1588,4.1588,4.1423,0.0,0.0,0.0,0.0,0.0,0.0,0.0,0.0,0.0,0.0,0.0,0.0,0.0,0.0,0.0,0.0,0.0,0.0,0.0,0.0,0.0,0.0,0.0,0.0,0.0,0.0,0.0,0.0,0.0,0.0,0.0,0.0,0.0,0.0,0.0,0.0,0.0,0.0,0.0,0.0,0.0,0.0,0.0,0.0,0.0,0.0,0.0,0.0,0.0,0.0,0.0,0.0,3.9642,4.0639,4.0639,4.0917,4.1485,4.088,4.0546,4.0499,4.0072,4.0151,0.0,0.0,0.0,0.0,0.0,0.0,0.0,0.0,0.0,0.0,0.0,0.0,0.0,0.0,0.0,0.0,0.0,0.0,0.0,0.0,0.0,0.0,0.0,0.0,0.0,0.0,0.0,0.0,4.2158,4.2158,4.2174,0.0,0.0,0.0,0.0,0.0,0.0,0.0,0.0,0.0,0.0,4.1021,4.1055,4.1357,4.1588,4.1588,4.1588,4.1588,4.1588,4.1588,4.1588,4.1588,0.0,0.0,0.0,0.0,0.0,0.0,0.0,0.0,0.0,0.0,0.0,0.0,0.0,0.0,0.0,0.0,0.0,0.0,0.0,0.0,0.0,0.0,0.0,0.0,0.0,0.0,0.0,3.9189,0.0,0.0,3.9216,0.0,0.0,0.0,0.0,0.0,0.0,0.0,0.0,0.0,0.0,0.0,0.0,0.0,0.0,0.0,0.0,0.0,0.0,0.0,0.0,0.0,0.0,4.1114,4.118,4.1196,4.1201,4.121,4.0671,4.0455,4.0455,4.0498,4.0864,4.147,0.0,0.0,0.0,0.0,0.0,0.0,0.0,0.0,0.0,0.0,0.0,0.0,0.0,0.0,0.0,0.0,0.0,0.0,0.0,0.0,0.0,0.0,0.0,0.0,0.0,0.0,4.3363,4.3436,4.3423,0.0,0.0,0.0,0.0,0.0,0.0,0.0,0.0,0.0,0.0,4.1588,4.1588,4.1621,4.1621,4.1654,4.167,4.1637,4.1637,4.1669,4.1653,4.1588,0.0,0.0,0.0,0.0,0.0,0.0,0.0,0.0,0.0,0.0,0.0,0.0,0.0,0.0,0.0,0.0,0.0,0.0,0.0,0.0,0.0,0.0,0.0,0.0,0.0,0.0,0.0,4.0521,4.0521,0.0,0.0,0.0,0.0,0.0,0.0,0.0,0.0,0.0,0.0,0.0,4.1175,4.1111,0.0,0.0,0.0,0.0,0.0,0.0,0.0,0.0,0.0,0.0,0.0,0.0,4.0663,4.116,4.1644,4.1911,4.1997,4.1869,4.1782,4.1798,4.1347,4.1445,4.2173,0.0,0.0,0.0,0.0,0.0,0.0,0.0,0.0,0.0,0.0,0.0,0.0,0.0,0.0,0.0,0.0,0.0,0.0,0.0,0.0,0.0,0.0,0.0,0.0,0.0,4.3273,0.0,0.0,0.0,0.0,0.0,0.0,0.0,0.0,0.0,0.0,0.0,4.2847,4.2847,4.2878,4.2894,4.2847,4.2847,4.3057,0.0,0.0,0.0,0.0,0.0,0.0,0.0,0.0,0.0,0.0,0.0,0.0,0.0,0.0,4.3231,4.1845,4.1588,4.1588,4.1588,0.0,0.0,0.0,0.0,0.0,0.0,0.0,0.0,0.0,0.0,0.0,0.0,0.0,0.0,4.1283,0.0,4.144,0.0,0.0,0.0,0.0,0.0,0.0,0.0,0.0,4.17,4.1696,4.1713,4.1956,4.1987,0.0,4.2128,4.2108,0.0,0.0,0.0,0.0,0.0,0.0,0.0,0.0,4.1136,4.1895,4.233,4.2586,4.2673,4.2523,4.2423,4.2423,4.2217,4.2339,4.2841,4.3498,4.3718,0.0,0.0,0.0,0.0,0.0,0.0,0.0,0.0,0.0,0.0,0.0,0.0,0.0,0.0,0.0,0.0,0.0,0.0,0.0,0.0,0.0,0.0,0.0,4.4169,0.0,0.0,0.0,0.0,0.0,0.0,0.0,0.0,0.0,4.3525,4.3495,4.3495,4.3495,4.3495,4.3611,4.386,0.0,0.0,0.0,0.0,0.0,0.0,0.0,4.4138,4.3684,4.3994,4.4138,4.3701,4.3619,4.3863,4.456,0.0,0.0,4.3267,4.3057,4.3041,4.3041,4.2703,4.2558,4.2961,4.2703,4.251,0.0,0.0,0.0,0.0,0.0,0.0,0.0,0.0,4.126,4.1512,0.0,4.1924,0.0,0.0,0.0,0.0,4.205,4.2121,0.0,0.0,4.2767,4.2693,4.2727,4.3426,4.3504,4.3146,4.3842,4.4006,4.3563,4.2097,0.0,0.0,0.0,0.0,0.0,0.0,4.2569,4.318,4.3224,4.3224,4.3233,4.274,4.2417,4.2451,4.3095,4.3496,4.3564,4.4186,4.4214,4.3601,4.3584,0.0,0.0,0.0,0.0,0.0,0.0,0.0,0.0,0.0,0.0,0.0,0.0,0.0,0.0,0.0,0.0,0.0,0.0,0.0,0.0,4.5059,0.0,0.0,0.0,0.0,0.0,0.0,0.0,0.0,0.0,0.0,4.3748,4.3584,4.3555,4.3571,0.0,0.0,0.0,0.0,4.39,4.469,4.4085,4.3591,4.3641,4.3658,4.3628,4.3615,0.0,0.0,4.3664,4.3648,4.3995,4.4729,4.4978,4.5075,4.582,4.5727,4.5663,4.568,4.5582,4.5744,4.5761,4.5485,4.5549,4.216,0.0,0.0,0.0,0.0,4.2206,4.2246,4.2344,4.2344,4.2404,4.2541,4.2523,0.0,0.0,0.0,0.0,0.0,0.0,4.4431,4.4569,4.455,4.453,4.453,4.4728,4.4757,4.4653,4.487,4.4916,4.477,4.3999,4.3384,4.2927,0.0,0.0,0.0,0.0,4.3235,4.3565,4.3915,4.4135,4.4135,4.4458,4.462,4.4515,4.4721,4.4847,4.4845,4.5042,4.5042,4.4862,4.4862,0.0,0.0,0.0,0.0,0.0,0.0,0.0,0.0,0.0,0.0,0.0,0.0,0.0,0.0,0.0,0.0,0.0,0.0,0.0,4.514,4.5318,4.5414,0.0,0.0,0.0,0.0,0.0,0.0,0.0,0.0,0.0,4.4917,4.4862,4.4862,0.0,0.0,4.5578,4.5254,4.5476,4.5811,4.6015,4.5415,0.0,4.5631,4.5698,4.555,4.5052,4.5421,4.5982,4.6543,4.6626,4.6851,4.7533,4.7709,4.7946,4.8507,4.7124,4.5937,4.5808,4.5808,4.5808,4.5808,4.5808,4.5825,4.2866,4.2562,4.26,4.2639,4.2678,4.2659,4.2716,4.2792,4.2792,4.2885,4.3069,4.3397,4.3505,4.345,4.3682,0.0,0.0,0.0,4.5624,4.5773,4.5773,4.5773,4.581,4.6103,4.6138,4.6003,4.6331,4.6399,4.62,4.5951,4.5587,4.5149,0.0,0.0,4.4152,4.4042,4.4174,4.4527,4.4848,4.4973,4.4922,4.5312,4.5459,4.5397,4.5414,4.5414,4.5414,4.5414,4.5414,4.5414,4.5414,4.522,0.0,0.0,0.0,0.0,0.0,0.0,0.0,0.0,0.0,0.0,0.0,4.4186,4.4824,0.0,0.0,0.0,4.5194,4.5414,4.5414,4.5414,0.0,0.0,0.0,0.0,0.0,0.0,0.0,4.4785,4.5147,4.5414,4.5414,4.5673,4.5862,4.588,4.6017,4.6155,4.6293,0.0,4.6672,4.6993,4.6662,4.651,4.6936,4.705,4.6906,4.6507,4.68,4.7221,4.7723,4.7824,4.8048,4.8664,4.8869,4.9124,4.9837,4.8584,4.746,4.746,4.7477,4.746,4.746,4.746,4.7477,4.344,4.3441,4.3124,4.2958,4.2903,4.2885,4.2922,4.2994,4.2994,4.3251,4.3697,4.4486,4.4853,4.4872,4.5293,0.0,4.6029,4.6103,4.6354,4.668,4.6698,4.668,4.6717,4.7441,4.7567,4.7168,4.7977,4.8114,4.7718,4.7656,4.7671,4.7596,4.533,4.4478,4.5012,4.5064,4.5316,4.5821,4.5821,4.5744,4.5615,4.5476,4.5423,4.5414,4.5414,4.5414,4.5414,4.5414,4.5414,4.5414,4.5414,4.5414,4.5414,0.0,0.0,0.0,0.0,0.0,0.0,0.0,0.0,0.0,0.0,0.0,0.0,0.0,0.0,0.0,4.5414,0.0,4.5414,4.5414,0.0,0.0,0.0,4.5414,4.5414,4.5414,4.5414,4.5414,0.0,0.0,4.5414,4.6086,4.6631,4.6682,4.6104,4.6138,4.7414,4.7121,4.6983,4.7596,4.7672,4.7672,4.7617,4.7644,4.7651,4.7698,4.7775,4.7823,4.7961,4.7961,4.8224,4.8833,4.8896,4.912,4.9861,4.9866,4.9993,4.9866,4.9884,4.9901,4.9803,4.9739,4.9722,4.3876,4.3897,4.4463,4.4338,4.371,4.371,4.4079,4.4689,4.4707,4.5109,4.5784,4.5988,4.6081,4.6118,4.681,4.718,4.7304,4.7915,4.8247,4.8333,4.8333,4.8314,4.8333,4.8519,4.856,4.8453,4.8639,4.8714,4.8587,4.8288,4.8132,4.8076,4.7168,4.6627,4.6435,4.6318,4.6211,4.6097,4.5998,4.5914,4.5744,4.5615,4.5502,4.5414,4.5414,4.5414,4.5414,4.5414,4.5414,4.5414,4.5414,4.5414,4.5414,4.5414,0.0,0.0,0.0,0.0,0.0,0.0,0.0,0.0,0.0,4.5264,4.5371,0.0,4.5414,0.0,4.5414,4.5414,4.5414,4.5414,0.0,0.0,4.5414,4.5414,4.5414,4.5414,4.5414,4.5414,4.5414,4.5414,4.5414,4.6086,4.682,4.7372,4.7741,4.7724,4.7052,4.7707,4.8103,4.7775,4.7769,4.7717,4.7769,4.7717,4.7941,4.8448,4.8534,4.8741,4.9327,4.9459,4.9545,4.9683,4.9717,4.9804,4.9976,5.0011,5.0011,5.0011,5.0011,5.0011,5.0011,5.0011,5.0011,4.4581,4.4655,4.5472,4.5547,4.5101,4.5119,4.5379,4.5825,4.5825,4.6085,4.6513,4.6865,4.7237,4.759,4.8036,4.8221,4.8259,4.8704,4.889,4.889,4.889,4.889,4.889,4.889,4.889,4.889,4.889,4.889,4.8873,4.866,4.8753,4.9086,4.8841,4.8671,4.8558,4.7747,4.7412,4.7575,4.7222,4.6959,4.683,4.669,4.6584,4.6504,4.6451,4.6295,4.6047,4.5967,4.5931,4.5914,4.5587,4.5569,4.5897,4.5604,4.5414,0.0,0.0,0.0,0.0,0.0,0.0,0.0,0.0,0.0,0.0,0.0,4.5414,4.5414,4.5414,4.5414,4.5414,4.5414,4.5414,4.5414,4.5414,4.5414,4.5414,4.5414,4.5414,4.5414,4.5414,4.5535,4.588,4.6613,4.7224,4.7665,4.8665,4.8924,4.7896,4.8338,4.8654,4.8241,4.8482,4.8734,4.8723,4.8734,4.8872,4.9223,4.9327,4.9482,4.9924,5.0011,5.0011,5.0011,5.0011,5.0011,5.0011,5.0011,5.0011,5.0011,5.0011,5.0011,5.0011,5.0011,5.0011,4.5342,4.5509,4.6327,4.6661,4.6661,4.6754,4.6735,4.6643,4.6661,4.6698,4.6847,4.7553,4.8259,4.889,4.889,4.889,4.889,4.889,4.889,4.889,4.889,4.889,4.889,4.889,4.889,4.889,4.889,4.889,4.889,4.9002,4.9429,5.0098,5.0209,5.0472,5.0864,4.9368,4.8839,4.937,4.8748,4.8373,4.8242,4.8029,4.7912,4.7902,4.7782,4.7461,4.6922,4.6815,4.6751,4.6734,4.6132,4.6064,4.6635,4.6082,4.5702,0.0,4.6055,0.0,0.0,0.0,0.0,0.0,0.0,0.0,0.0,4.5563,4.5589,4.5589,4.5589,4.5589,4.5572,4.5589,4.5563,4.5511,4.5485,4.5459,4.5397,4.5476,4.5459,4.5397,4.5476,4.5796,4.6475,4.7251,4.77,4.7958,4.9079,4.9631,4.9085,4.8965,4.8999,4.8947,4.9545,4.9821,4.9873,4.9924,4.9942,4.9976,4.9942,5.0011,4.9993,5.0011,5.0011,5.0011,5.0011,5.0011,5.0011,5.0011,5.0011,5.0011,5.0011,5.0011,5.0011,5.0011,5.0011,4.5677,4.6345,4.7144,4.746,4.7534,4.8184,4.8073,4.7478,4.7478,4.7831,4.8444,4.8612,4.8742,4.889,4.889,4.889,4.889,4.889,4.889,4.889,4.889,4.889,4.889,4.889,4.889,4.889,4.889,4.889,4.8909,4.9577,4.9949,5.0116,5.0803,5.151,5.2177,0.0,0.0,0.0,4.9352,4.9052,4.8905,4.8356,4.802,4.7912,4.7765,0.0,4.7538,4.751,4.7482,4.7493,4.7761,0.0,0.0,0.0,0.0,0.0,0.0,0.0,0.0,0.0,0.0,0.0,4.6607,4.6483,4.6087,4.6394,4.6607,4.6607,4.659,4.6607,4.6607,4.6607,4.6483,4.6087,4.6038,4.5879,4.5459,4.5778,4.5905,4.5459,4.5795,4.6193,4.6608,4.7251,4.7941,4.859,4.9396,4.9907,4.9786,4.9735,4.974,4.9804,4.9907,5.0011,5.0011,5.0011,5.0011,5.0011,5.0011,5.0028,5.008,5.0062,5.0028,5.0062,5.0011,5.0045,5.0028,5.0011,5.0045,5.0011,5.0011,5.0011,5.0011,5.0011,5.0011,4.6364,4.7163,4.7961,4.8296,0.0,4.8723,4.8667,4.8296,4.8296,4.8537,4.889,4.889,4.889,4.889,4.889,4.889,4.889,4.889,4.889,4.889,4.889,4.889,4.889,4.889,4.889,4.889,4.889,4.889,4.8946,4.9745,5.0339,5.0766,5.1584,5.2382,5.3162,5.297,5.2273,5.1149,5.0898,5.0706,5.0527,5.0183,4.9973,4.9827,4.9749,0.0,0.0,0.0,0.0,0.0,0.0,0.0,0.0,4.8912,0.0,4.7652,4.7819,4.7749,4.7371,4.7291,4.727,4.7331,4.727,4.7066,4.6584,4.6771,4.6908,4.6908,4.6936,4.6941,4.6908,4.6941,4.685,4.6584,4.6554,4.6435,4.6217,4.6387,4.6339,4.599,4.66,4.7234,4.7518,4.8187,4.8936,4.9656,4.9889,5.0011,5.0011,5.0011,5.0011,5.0011,5.0011,5.0011,5.0011,5.0011,5.0166,5.0442,5.0562,5.0718,5.1028,5.1097,5.1097,5.1067,5.1097,5.1011,5.0614,5.0562,5.0442,5.0114,5.0011,5.0011,5.0011,5.0011,5.0011,4.6847,4.7738,4.8426,4.8779,4.889,4.889,4.889,4.889,4.889,0.0,0.0,4.889,4.889,4.889,4.889,4.889,4.889,4.889,4.889,4.889,4.889,4.889,4.889,4.889,4.889,4.889,4.889,4.889,4.8946,4.9912,5.0748,5.1435,5.2327,5.3162,5.3757,5.3813,5.3405,5.2593,5.2481,5.2358,5.2185,5.209,5.197,5.1855,5.1759,5.152,5.1005,5.0998,5.0998,5.098,5.0443,5.0385,5.0867,5.0358,4.9675,4.8864,4.9132,4.8972,4.8186,4.8054,4.7982,4.7933,4.7795,4.7527,4.7049,4.7093,4.716,4.7178,4.7212,4.7234,4.7182,4.7212,4.7172,4.7026,4.7004,4.6999,4.6908,4.6999,4.684,4.6554,4.7429,4.8265,4.8422,4.9074,4.9854,5.0392,5.0228,5.0011,5.0011,5.0011,5.0011,5.0011,5.0011,5.0011,5.0011,5.0183,5.0424,5.0912,5.12,5.1515,5.1998,5.217,5.217,5.205,5.217,5.1895,5.1412,5.1166,5.0907,5.0321,5.008,5.0011,5.0011,5.0011,5.0011,4.6345,4.7701,4.7831,4.8259,4.889,4.889,4.889,4.889,4.889,4.889,4.889,4.889,4.889,4.889,4.889,4.889,4.889,4.889,4.889,4.889,4.889,4.889,4.889,4.889,4.889,4.889,4.889,4.889,4.9076,5.0469,5.1305,5.1565,5.2902,5.3683,5.3794,5.3813,5.3737,5.3601,5.3201,5.2972,5.2929,5.2386,5.2065,5.2065,5.1952,5.185,5.1742,5.1748,5.1766,5.1748,5.2096,5.2007,5.1442,5.1611,5.1391,5.0618,5.0605,5.0254,4.9404,4.9505,4.9231,4.8493,4.8286,4.7995,4.7569,4.7875,4.8132,4.8267,4.8132,4.8172,4.8248,4.8152,4.7917,4.7569,4.7506,4.7356,4.7004,4.727,4.7313,4.6903,4.7927,4.8649,4.8574,4.9179,4.9844,5.0055,5.0092,5.0011,5.0011,5.0011,5.0011,5.0011,5.0011,5.0011,5.0045,5.0562,5.0925,5.108,5.1683,5.2132,5.2343,5.2377,5.2377,5.2239,5.2343,5.2239,5.205,5.1498,5.1149,5.0873,5.0424,5.0028,5.0011,5.0011,5.0011,4.5974,4.707,4.7516,4.7906,4.8296,4.8704,4.889,4.889,4.889,4.889,4.889,4.889,4.889,4.889,4.889,4.889,4.889,4.889,4.889,4.889,4.889,4.889,4.889,4.889,4.889,4.889,4.889,4.889,4.902,5.0135,5.0933,5.1472,5.3014,5.3813,5.3813,5.3813,5.3813,5.3813,5.3582,5.3462,5.342,5.3117,5.2929,5.2867,5.2867,5.2886,5.2867,5.2914,5.2956,5.2938,5.3164,5.3138,5.2769,5.291,5.2617,5.1783,5.1709,5.1339,5.0525,5.0157,4.9529,4.8586,4.8438,4.8305,4.8014,4.8248,4.842,4.8494,4.8458,4.8458,4.8494,4.8457,4.8305,4.8015,4.7975,4.7895,4.7731,4.7834,4.7795,4.7547,4.882,4.9622,4.8933,4.9908,5.0567,5.0484,5.0206,4.9993,5.0011,5.0011,5.0011,5.0011,5.0011,5.0011,5.0045,5.0614,5.12,5.1584,5.2356,5.2959,5.3339,5.346,5.3442,5.346,5.3442,5.3287,5.2977,5.2235,5.1666,5.108,5.0511,5.008,5.0011,5.0011,5.0011,4.5491,4.629,4.6903,4.7367,4.7757,4.837,4.8723,4.889,4.889,4.889,4.889,4.889,4.889,4.889,4.889,4.889,4.889,4.889,4.889,4.889,4.889,4.889,4.889,4.889,4.889,4.889,4.889,4.889,4.8983,4.9707,5.0655,5.1695,5.2921,5.3608,5.3813,5.3813,5.3813,5.3813,5.3813,5.3774,5.3715,5.3715,5.3657,5.3579,5.3657,5.3715,5.3734,5.3774,5.3813,5.3813,5.3813,5.3813,5.3813,5.3774,5.3439,5.2731,5.2639,5.2213,5.125,5.0398,4.951,4.8568,4.8475,4.8419,4.8363,4.8457,4.8531,4.8531,4.855,4.855,4.8513,4.8475,4.8401,4.8324,4.8324,4.8267,4.8305,4.8324,4.8172,4.802,4.9455,5.0213,4.9733,5.0496,5.1069,5.0595,5.0263,4.9993,5.0011,5.0011,5.0011,5.0011,5.0011,5.0011,5.0062,5.0821,5.1545,5.2153,5.3028,5.3718,5.4253,5.446,5.4477,5.4391,5.4443,5.4201,5.3701,5.3028,5.2356,5.1839,5.1218,5.0585,5.0631,5.0649,5.0355,4.4636,4.5342,4.5528,4.6382,4.7627,4.7794,4.824,4.8834,4.889,4.889,4.889,4.889,4.8909,4.889,4.889,4.889,4.889,4.889,4.889,4.889,4.889,4.889,4.889,4.889,4.889,4.889,4.889,4.889,4.8946,4.9726,5.0896,5.2327,5.2661,5.307,5.3683,5.3775,5.3794,5.3813,5.3813,5.3793,5.3793,5.3793,5.3775,5.3756,5.3793,5.3793,5.3793,5.3793,5.3813,5.3813,5.3813,5.3813,5.3793,5.3735,5.36,5.3391,5.3353,5.2743,5.1247,5.0247,4.9398,4.8604,4.8419,4.8382,4.8494,4.8532,4.8569,4.8513,4.8494,4.8531,4.8494,4.8419,4.8343,4.8306,4.8324,4.8324,4.8324,4.8324,4.8287,4.823,4.9349,4.9857,4.9495,5.0195,5.0614,5.0217,5.008,5.0011,5.0011,5.0011,5.0011,5.0011,5.0011,5.0011,5.0131,5.1218,5.1912,5.2274,5.3442,5.4236,5.4477,5.4512,5.4512,5.4512,5.4512,5.4425,5.427,5.3822,5.3253,5.2839,5.2339,5.1877,5.1946,5.1843,5.1412,4.4209,4.4581,4.5064,4.5937,4.6958,4.7497,4.7887,4.8238,4.8924,4.9094,4.8925,4.911,4.9075,4.889,4.889,4.889,4.889,4.889,4.889,4.889,4.889,4.889,4.889,4.889,4.889,4.889,4.889,4.889,4.9039,4.9726,5.0488,5.1175,5.1639,5.2085,5.2401,5.2847,5.3107,5.3107,5.3571,5.3813,5.3813,5.3813,5.3813,5.3813,5.3813,5.3813,5.3813,5.3813,5.3813,5.3813,5.3813,5.3813,5.3813,5.3774,5.3736,5.364,5.3138,5.2321,5.1172,5.0323,4.9492,4.8606,4.8587,4.8569,4.8569,4.8569,4.8569,4.8495,4.8532,4.855,4.8513,4.8382,4.8324,4.8324,4.8324,4.8324,4.8324,4.8324,4.8338,4.8589,4.9397,4.9855,4.9606,4.9948,5.0194,5.0022,5.0011,5.0011,5.0011,5.0011,5.0011,5.0011,5.0011,5.0011,5.0131,5.1252,5.1998,5.2429,5.3494,5.446,5.4512,5.4512,5.4512,5.4512,5.4512,5.4512,5.4494,5.3942,5.3408,5.3304,5.2804,5.217,5.217,5.217,5.1826,4.4005,4.4116,4.4692,4.5417,4.6215,4.6791,4.7293,4.7772,4.8597,4.8922,4.8925,4.916,4.9144,4.8907,4.889,4.889,4.889,4.889,4.889,4.889,4.889,4.889,4.889,4.889,4.889,4.889,4.889,4.889,4.8964,4.9447,4.9912,5.0228,5.0766,5.1156,5.1454,5.2011,5.2271,5.2327,5.2884,5.3144,5.3162,5.3367,5.3571,5.3775,5.3813,5.3813,5.3813,5.3813,5.3813,5.3813,5.3813,5.3813,5.3813,5.3813,5.3793,5.3681,5.2881,5.2007,5.1154,5.0417,4.9602,4.8753,4.8678,4.8696,4.8624,4.8587,4.8569,4.8513,4.855,4.8532,4.8457,4.8363,4.8324,4.8324,4.8324,4.8324,4.8324,4.8453,4.868,4.8756,4.9554,5.0008,4.9828,4.9916,4.9993,5.0011,5.0011,5.0011,5.0011,5.0011,5.0011,5.0011,5.0011,5.0011,5.0114,5.1252,5.1998,5.2515,5.3477,5.4477,5.4512,5.4512,5.4512,5.4512,5.4512,5.4512,5.4494,5.4011,5.3701,5.3598,5.3235,5.2808,5.3015,5.286,5.286,4.4005,4.4005,4.4061,4.4599,4.5361,4.5454,4.629,4.7534,4.7808,4.8183,4.8816,4.8942,4.8926,4.889,4.889,4.889,4.889,4.889,4.889,4.889,4.889,4.889,4.889,4.889,4.889,4.889,4.889,4.889,4.8909,4.8964,4.9355,5.006,5.0153,5.0562,5.1175,5.1361,5.1454,5.1472,5.1602,5.1584,5.1658,5.2289,5.3014,5.359,5.3794,5.3813,5.3813,5.3813,5.3813,5.3813,5.3813,5.3813,5.3813,5.3813,5.3793,5.3584,5.2802,5.1911,5.1099,5.0324,4.9547,4.879,4.8605,4.8605,4.8605,4.8587,4.855,4.8494,4.8513,4.8457,4.8363,4.8324,4.8324,4.8324,4.8324,4.8324,4.8324,4.8909,4.919,4.9018,4.9656,5.0132,4.9998,4.9988,4.9993,5.0011,5.0011,5.0011,5.0011,5.0011,5.0011,5.0011,5.0011,5.0011,5.0149,5.1252,5.2033,5.2498,5.3373,5.4494,5.4512,5.4512,5.4512,5.4512,5.4512,5.4512,5.4494,5.4443,5.4356,5.4287,5.4253,5.4063,5.3839,5.4236,5.4167,4.4005,4.4005,4.4005,4.4191,4.4506,4.5045,4.5658,4.6269,4.7463,4.8012,4.8252,4.8884,4.9094,4.889,4.889,4.889,4.889,4.889,4.889,4.889,4.889,4.889,4.889,4.889,4.889,4.889,4.889,4.889,4.889,4.889,4.9039,4.928,4.9336,4.9503,4.9837,5.032,5.0562,5.0618,5.1101,5.1398,5.1361,5.1695,5.1974,5.2308,5.3292,5.3813,5.3813,5.3813,5.3813,5.3813,5.3813,5.3813,5.3813,5.3813,5.3495,5.288,5.2064,5.1212,5.0323,4.9529,4.8974,4.8661,4.8587,4.8605,4.8587,4.8569,4.8513,4.8494,4.8419,4.8343,4.8324,4.8324,4.8324,4.8324,4.8324,4.8305,4.8376,4.8709,4.901,4.9118,4.971,5.0074,5.0045,5.0011,5.0011,5.0011,5.0011,5.0011,5.0011,5.0011,5.0011,5.0011,5.0011,5.0011,5.0011,5.124,5.2274,5.2666,5.3322,5.4167,5.4494,5.4512,5.4512,5.4512,5.4512,5.4512,5.4494,5.4494,5.4512,5.4512,5.4512,5.4512,5.4494,5.4512,5.4512,4.4005,4.4005,4.4005,4.4005,4.4061,4.4618,4.5045,4.5411,4.6638,4.7391,4.7804,4.8509,4.8849,4.8889,4.889,4.889,4.889,4.889,4.889,4.889,4.889,4.889,4.889,4.889,4.889,4.889,4.889,4.889,4.889,4.889,4.889,4.8909,4.889,4.889,4.9002,4.9447,4.9707,4.9856,5.032,5.058,5.0618,5.0859,5.1008,5.1193,5.2327,5.3162,5.3385,5.3423,5.3571,5.3775,5.3813,5.3793,5.3755,5.3514,5.3067,5.2398,5.1398,5.0583,4.9936,4.9159,4.8696,4.866,4.866,4.8642,4.8587,4.8532,4.8476,4.8438,4.8363,4.8324,4.8324,4.8324,4.8324,4.8324,4.8324,4.8339,4.8459,4.9026,4.9571,4.9942,5.0002,5.0022,5.0011,5.0011,5.0011,5.0011,5.0011,5.0011,5.0011,5.0011,5.0011,5.0011,5.0011,5.0011,5.0218,5.1252,5.2084,5.2498,5.3201,5.3977,5.4494,5.4512,5.4512,5.4512,5.4512,5.4512,5.4512,5.4512,5.4512,5.4512,5.4512,5.4512,5.4512,5.4512,5.4512,4.4005,4.4005,4.4005,4.4005,4.4023,4.411,4.4541,4.5172,4.5409,4.6355,4.7477,4.777,4.8306,4.8779,4.8925,4.8926,4.889,4.889,4.889,4.889,4.889,4.889,4.889,4.889,4.889,4.889,4.889,4.889,4.889,4.889,4.889,4.889,4.889,4.889,4.889,4.8983,4.8983,4.902,4.9132,4.9057,4.9002,4.9745,5.0135,5.0265,5.0971,5.1732,5.2475,5.2568,5.2902,5.3553,5.3701,5.3737,5.3492,5.2862,5.2361,5.2009,5.0861,5.0175,5.0024,4.9319,4.8804,4.875,4.8769,4.8661,4.8513,4.8476,4.8438,4.8325,4.8306,4.8324,4.8324,4.8324,4.8324,4.8324,4.8398,4.8553,4.8912,4.993,5.0936,5.1126,5.0585,5.0051,5.0011,5.0011,5.0011,5.0011,5.0011,5.0011,5.0011,5.0011,5.0011,5.0011,5.0011,5.0011,5.0528,5.1149,5.1722,5.2326,5.3149,5.3908,5.4356,5.4512,5.4512,5.4512,5.4512,5.4512,5.4512,5.4512,5.4512,5.4512,5.4512,5.4512,5.4512,5.4512,5.4512,4.4085,4.4005,4.4005,4.4005,4.4017,4.421,4.4349,4.4498,4.5148,4.6032,4.6911,4.7666,4.8324,4.8844,4.9127,4.911,4.8926,4.889,4.889,4.889,4.889,4.889,4.889,4.889,4.889,4.889,4.889,4.889,4.889,4.889,4.889,4.889,4.889,4.889,4.889,4.889,4.889,4.889,4.889,4.889,4.8909,4.915,4.9299,4.9336,4.9559,5.006,5.0841,5.1454,5.1881,5.2197,5.2679,5.2939,5.2733,5.2028,5.1324,5.0787,5.0343,4.9749,4.9301,4.8953,4.8696,4.866,4.8532,4.8457,4.8382,4.8363,4.8343,4.8306,4.8324,4.8324,4.8324,4.8324,4.8324,4.8324,4.882,4.9203,4.9398,5.0035,5.0593,5.0866,5.0425,5.0051,5.0011,5.0011,5.0011,5.0011,5.0011,5.0011,5.0011,5.0011,5.0011,5.0011,5.0011,5.008,5.0528,5.1132,5.1787,5.2446,5.3253,5.3873,5.4287,5.4512,5.4512,5.4512,5.4512,5.4512,5.4512,5.4512,5.4512,5.4512,5.4512,5.4512,5.4512,5.4512,5.4512,4.407,4.402,4.4106,4.4151,4.4162,4.4425,4.4452,4.4378,4.4885,4.5544,4.6265,4.7102,4.786,4.8474,4.8978,4.9094,4.889,4.889,4.889,4.889,4.889,4.889,4.889,4.889,4.889,4.889,4.889,4.889,4.889,4.889,4.889,4.889,4.889,4.889,4.889,4.889,4.889,4.889,4.889,4.889,4.889,4.889,4.889,4.889,4.889,4.9169,4.9689,5.0209,5.0766,5.1323,5.1899,5.2085,5.1935,5.1213,5.0491,5.0047,4.9676,4.9359,4.893,4.8786,4.8642,4.8587,4.8458,4.8363,4.8325,4.8324,4.8324,4.8324,4.8324,4.8324,4.8324,4.8324,4.8434,4.8765,4.9243,4.977,5.0073,5.0378,5.0606,5.0688,5.0331,5.0051,5.0011,5.0011,5.0011,5.0011,5.0011,5.0011,5.0011,5.0011,5.0011,5.0011,5.0011,5.0166,5.0459,5.1097,5.1839,5.2615,5.3408,5.3908,5.4356,5.4477,5.4512,5.4512,5.4512,5.4512,5.4512,5.4512,5.4512,5.4512,5.4512,5.4512,5.4512,5.4512,5.4512,4.4005,4.4033,4.4279,4.436,4.4397,4.4663,4.4751,4.4745,4.4602,4.4974,4.5681,4.6271,4.7006,4.7774,4.8546,4.8827,4.889,4.889,4.889,4.889,4.889,4.889,4.889,4.889,4.889,4.889,4.889,4.889,4.889,4.889,4.889,4.889,4.889,4.889,4.889,4.889,4.889,4.889,4.889,4.889,4.889,4.889,4.889,4.889,4.889,4.8946,4.902,4.9132,4.9782,5.1063,5.1212,5.1083,5.0915,5.0324,4.9806,4.9621,4.9122,4.8953,4.8856,4.8786,4.8697,4.8587,4.8495,4.8438,4.8343,4.8324,4.8324,4.8324,4.8324,4.8324,4.8324,4.8453,4.8857,4.9572,4.988,5.0261,5.1049,5.0994,5.0814,5.0704,5.0359,5.0011,5.0011,5.0011,5.0011,5.0011,5.0011,5.0011,5.0011,5.0011,5.0011,5.0011,5.0011,5.0338,5.0649,5.1373,5.2101,5.2873,5.3598,5.4063,5.4374,5.446,5.4512,5.4512,5.4512,5.4512,5.4512,5.4512,5.4512,5.4512,5.4512,5.4512,5.4512,5.4512,5.4512,4.4085,4.402,4.406,4.4221,4.4411,4.4707,4.4788,4.4788,4.4726,4.4998,4.5561,4.5794,4.6589,4.7661,4.8133,4.8527,4.883,4.889,4.889,4.889,4.889,4.889,4.889,4.889,4.889,4.889,4.889,4.889,4.889,4.889,4.889,4.889,4.889,4.889,4.889,4.889,4.889,4.889,4.889,4.889,4.889,4.889,4.889,4.889,4.889,4.889,4.889,4.889,4.9355,5.0228,4.9803,4.9731,5.0083,4.9455,4.903,4.8919,4.8863,4.8769,4.8696,4.866,4.8605,4.855,4.8438,4.8343,4.8324,4.8324,4.8324,4.8324,4.8324,4.8324,4.8416,4.8912,4.9829,5.1037,5.0936,5.1016,5.1612,5.1332,5.082,5.0739,5.0302,5.0051,5.0011,5.0011,5.0011,5.0011,5.0011,5.0011,5.0011,5.0011,5.0011,5.0011,5.008,5.0476,5.0976,5.1671,5.2412,5.3184,5.3804,5.4305,5.446,5.4494,5.4512,5.4512,5.4512,5.4512,5.4512,5.4512,5.4512,5.4512,5.4512,5.4512,5.4512,5.4512,5.4512,4.407,4.402,4.4121,4.4265,4.4425,4.467,4.4788,4.4763,4.4663,4.4791,4.5115,4.5417,4.6162,4.7177,4.7695,4.831,4.8833,4.889,4.889,4.889,4.889,4.889,4.889,4.889,4.889,4.889,4.889,4.889,4.889,4.889,4.889,4.889,4.889,4.889,4.889,4.889,4.889,4.889,4.889,4.889,4.889,4.889,4.889,4.889,4.889,4.889,4.889,4.889,4.915,4.9393,4.9153,4.9009,4.927,4.8919,4.8587,4.855,4.8642,4.8642,4.8678,4.8605,4.8532,4.8494,4.8382,4.8324,4.8324,4.8324,4.8324,4.8324,4.8324,4.8489,4.8967,4.9866,5.0969,5.1694,5.1615,5.1562,5.2024,5.1296,5.0766,5.0481,5.0206,5.0011,5.0011,5.0011,5.0011,5.0011,5.0011,5.0011,5.0011,5.0011,5.0011,5.0011,5.008,5.0424,5.1011,5.1705,5.2567,5.3356,5.3977,5.4477,5.4512,5.4512,5.4512,5.4512,5.4512,5.4512,5.4512,5.4512,5.4512,5.4512,5.4512,5.4512,5.4512,5.4512,5.4512,4.4005,4.4017,4.4265,4.4374,4.4425,4.465,4.477,4.4739,4.4533,4.4448,4.4552,4.496,4.5576,4.642,4.7138,4.7961,4.8723,4.8834,4.889,4.889,4.889,4.889,4.889,4.889,4.889,4.889,4.889,4.889,4.889,4.889,4.889,4.889,4.889,4.889,4.8891,4.8891,4.8891,4.8874,4.8838,4.882,4.8856,4.8856,4.8874,4.8874,4.8874,4.8874,4.8874,4.8855,4.8875,4.8874,4.8874,4.8787,4.8661,4.8605,4.8587,4.8569,4.8569,4.8606,4.8697,4.8569,4.8476,4.8457,4.8363,4.8306,4.8324,4.8324,4.8324,4.8324,4.836,4.8985,4.9939,5.1189,5.183,5.2126,5.1912,5.1622,5.1493,5.1079,5.0537,5.0109,5.0011,5.0011,5.0011,5.0011,5.0011,5.0011,5.0011,5.0011,5.0011,5.0011,5.0011,5.0011,5.0131,5.0292,5.0994,5.1735,5.2649,5.3477,5.408,5.4512,5.4512,5.4512,5.4512,5.4512,5.4512,5.4512,5.4512,5.4512,5.4512,5.4512,5.4512,5.4512,5.4512,5.4512,5.4512,4.4005,4.402,4.4064,4.4206,4.4402,4.4471,4.4599,4.477,4.4506,4.4388,4.4388,4.4329,4.4819,4.5639,4.6475,4.72,4.8073,4.8593,4.889,4.889,4.889,4.889,4.889,4.889,4.889,4.889,4.889,4.889,4.889,4.889,4.889,4.889,4.8873,4.889,4.8891,4.8839,4.8822,4.8786,4.8714,4.8678,4.8714,4.8768,4.8804,4.8822,4.8822,4.8822,4.8786,4.8714,4.866,4.866,4.866,4.8624,4.855,4.8513,4.8532,4.8532,4.8569,4.8569,4.855,4.8513,4.8438,4.8363,4.8343,4.8324,4.8324,4.8361,4.8343,4.8434,4.893,4.9884,5.1134,5.1722,5.227,5.2538,5.2105,5.1594,5.1467,5.0749,5.0206,5.0051,5.0011,5.0011,5.0011,5.0011,5.0011,5.0011,5.0011,5.0011,5.0011,5.0011,5.0011,5.0011,5.0062,5.0252,5.0787,5.1614,5.2632,5.3477,5.4115,5.4512,5.4512,5.4512,5.4512,5.4512,5.4512,5.4512,5.4512,5.4512,5.4512,5.4512,5.4512,5.4512,5.4512,5.4512,5.4512,4.4005,4.4005,4.4005,4.4094,4.4192,4.4221,4.4275,4.4393,4.4294,4.4206,4.4177,4.4048,4.4506,4.5324,4.6141,4.6958,4.7738,4.8519,4.889,4.889,4.889,4.889,4.889,4.889,4.889,4.889,4.889,4.889,4.889,4.889,4.889,4.8891,4.8856,4.8839,4.8839,4.875,4.8696,4.8696,4.8623,4.8587,4.8605,4.866,4.8696,4.8715,4.8769,4.8787,4.8715,4.8642,4.8587,4.855,4.855,4.8532,4.8513,4.8494,4.8494,4.8494,4.8457,4.8495,4.8476,4.8438,4.8382,4.8306,4.8324,4.8324,4.8453,4.8618,4.8893,4.9077,4.9701,5.0692,5.183,5.2435,5.2803,5.2834,5.2244,5.1644,5.1442,5.0657,5.0011,5.0011,5.0011,5.0011,5.0011,5.0011,5.0011,5.0011,5.0011,5.0011,5.0011,5.0011,5.0011,5.0011,5.0011,5.02,5.0631,5.1459,5.255,5.3391,5.4098,5.4391,5.4512,5.4512,5.4512,5.4512,5.4512,5.4512,5.4512,5.4512,5.4512,5.4512,5.4512,5.4512,5.4512,5.4512,5.4512,4.4005,4.4005,4.4005,4.4005,4.4005,4.4005,4.4036,4.402,4.4005,4.4051,4.4005,4.4005,4.4395,4.5157,4.6104,4.6958,4.7906,4.85,4.889,4.889,4.889,4.889,4.889,4.889,4.889,4.889,4.889,4.889,4.889,4.8891,4.8874,4.8856,4.8804,4.875,4.8732,4.8642,4.8587,4.8587,4.8532,4.8514,4.8532,4.8569,4.8605,4.8623,4.866,4.866,4.8587,4.855,4.8532,4.8476,4.8475,4.8475,4.8457,4.8457,4.8494,4.8494,4.8401,4.8382,4.8457,4.8382,4.8324,4.8324,4.8508,4.8545,4.871,4.926,4.9664,5.0013,5.0527,5.1334,5.2105,5.2692,5.3057,5.3017,5.2244,5.1694,5.1416,5.0657,5.0109,5.0011,5.0011,5.0011,5.0011,5.0011,5.0011,5.0011,5.0011,5.0011,5.0011,5.0011,5.0011,5.0011,5.0011,5.0321,5.0752,5.139,5.2463,5.3253,5.3994,5.4305,5.4494,5.4512,5.4512,5.4512,5.4512,5.4512,5.4512,5.4512,5.4512,5.4512,5.4512,5.4512,5.4512,5.4512,5.4512,4.4005,4.4005,4.4005,4.4005,4.4005,4.4005,4.4005,4.4005,4.4005,4.4005,4.4005,4.4023,4.4079,4.4599,4.5862,4.7237,4.8259,4.8779,4.889,4.889,4.889,4.889,4.889,4.889,4.889,4.889,4.889,4.889,4.8873,4.8839,4.884,4.8804,4.8697,4.8642,4.8605,4.855,4.8513,4.8495,4.842,4.8382,4.8401,4.8476,4.8532,4.855,4.8569,4.855,4.8495,4.8401,4.8344,4.8325,4.8343,4.8343,4.8363,4.8344,4.8382,4.8438,4.8381,4.8363,4.8438,4.8382,4.8324,4.8471,4.8893,4.9279,4.9519,5.0105,5.0563,5.0875,5.1371,5.2123,5.2913,5.3115,5.3148,5.2934,5.2315,5.1619,5.1416,5.0739,5.0022,5.0011,5.0011,5.0011,5.0011,5.0011,5.0011,5.0011,5.0011,5.0011,5.0011,5.0011,5.0011,5.0011,5.0011,5.0442,5.0925,5.158,5.2408,5.3097,5.377,5.427,5.4425,5.4494,5.4512,5.4512,5.4512,5.4512,5.4512,5.4512,5.4512,5.4512,5.4512,5.4512,5.4512,5.4512,5.4512,4.4005,4.4005,4.4005,4.4005,4.4005,4.4005,4.4005,4.4005,4.4005,4.4005,4.4005,4.4005,4.4005,4.4339,4.5249,4.6754,4.8017,4.8779,4.8872,4.889,4.889,4.889,4.889,4.889,4.889,4.889,4.889,4.889,4.8873,4.884,4.8787,4.8751,4.8624,4.855,4.8532,4.8457,4.8419,4.8382,4.8343,4.8324,4.8324,4.8438,4.8476,4.8439,4.8476,4.8457,4.84,4.8343,4.8324,4.8324,4.8324,4.8324,4.8324,4.8324,4.8343,4.8382,4.8343,4.8324,4.8382,4.8325,4.8324,4.8416,4.9114,4.9555,4.9922,5.06,5.1518,5.1995,5.2252,5.2766,5.3151,5.3185,5.3185,5.2999,5.225,5.1694,5.1365,5.0592,5.0206,5.0011,5.0011,5.0011,5.0011,5.0011,5.0011,5.0011,5.0011,5.0011,5.0011,5.0011,5.0011,5.0011,5.0011,5.02,5.07,5.1338,5.208,5.2822,5.3529,5.4046,5.4408,5.4494,5.4512,5.4512,5.4512,5.4512,5.4512,5.4512,5.4512,5.4512,5.4512,5.4512,5.4512,5.4512,5.4512,4.4005,4.4005,4.4005,4.4005,4.4005,4.4005,4.4005,4.4005,4.4005,4.4005,4.4005,4.4005,4.4005,4.4302,4.5175,4.6401,4.7738,4.8537,4.8872,4.889,4.889,4.889,4.889,4.889,4.889,4.889,4.889,4.8873,4.8856,4.8786,4.8732,4.8679,4.8532,4.8457,4.8438,4.8363,4.8324,4.8324,4.8324,4.8324,4.8325,4.8382,4.8401,4.8306,4.8401,4.8401,4.8343,4.8324,4.8324,4.8324,4.8324,4.8324,4.8324,4.8324,4.8324,4.8324,4.8324,4.8324,4.8324,4.8306,4.8324,4.8361,4.9297,4.9719,5.0251,5.1298,5.2472,5.3038,5.3148,5.3112,5.3185,5.3185,5.3185,5.2995,5.2315,5.1543,5.1314,5.0793,5.0138,5.0011,5.0011,5.0011,5.0011,5.0011,5.0011,5.0011,5.0011,5.0011,5.0011,5.0011,5.0011,5.0011,5.0011,5.0011,5.0355,5.0856,5.1614,5.239,5.3149,5.3804,5.4201,5.4512,5.4512,5.4512,5.4512,5.4512,5.4512,5.4512,5.4512,5.4512,5.4512,5.4512,5.4512,5.4512,5.4512,4.4005,4.4005,4.4005,4.4005,4.4005,4.4005,4.4005,4.4005,4.4005,4.4005,4.4005,4.4005,4.4005,4.4358,4.5658,4.6791,4.7664,4.8481,4.889,4.889,4.889,4.889,4.889,4.889,4.889,4.8873,4.8873,4.8856,4.8786,4.8678,4.8606,4.8532,4.8438,4.8325,4.8343,4.8324,4.8324,4.8324,4.8324,4.8324,4.8324,4.8343,4.8306,4.8306,4.8306,4.8343,4.8306,4.8324,4.8324,4.8324,4.8324,4.8324,4.8324,4.8324,4.8324,4.8324,4.8324,4.8324,4.8324,4.8324,4.8416,4.871,4.9738,5.0453,5.1151,5.1995,5.2983,5.3112,5.3185,5.3185,5.3185,5.3185,5.3185,5.289,5.2338,5.1793,5.1467,5.091,5.0274,5.0011,5.0011,5.0011,5.0011,5.0011,5.0011,5.0011,5.0011,5.0011,5.0011,5.0011,5.0011,5.0011,5.0011,5.0011,5.0062,5.0545,5.1132,5.1925,5.2684,5.346,5.396,5.4305,5.4512,5.4512,5.4512,5.4512,5.4512,5.4512,5.4512,5.4512,5.4512,5.4512,5.4512,5.4512,5.4512,4.4005,4.4005,4.4005,4.4005,4.4005,4.4005,4.4005,4.4005,4.4005,4.4005,4.4005,4.4005,4.4005,4.4339,4.5751,4.6643,4.7237,4.8333,4.889,4.889,4.889,4.889,4.889,4.889,4.889,4.8891,4.8839,4.8768,4.8715,4.8624,4.8569,4.8494,4.8363,4.8306,4.8324,4.8324,4.8324,4.8324,4.8324,4.8324,4.8324,4.8324,4.8324,4.8324,4.8324,4.8324,4.8324,4.8324,4.8324,4.8324,4.8324,4.8324,4.8324,4.8324,4.8324,4.8324,4.8324,4.8324,4.8324,4.8324,4.8545,4.9132,5.016,5.1132,5.1995,5.269,5.3185,5.3185,5.3185,5.3185,5.3185,5.3185,5.3185,5.2934,5.2449,5.2036,5.1594,5.0937,5.0425,5.0206,5.0011,5.0011,5.0011,5.0011,5.0011,5.0011,5.0011,5.0011,5.0011,5.0011,5.0011,5.0011,5.0011,5.0011,5.0028,5.0269,5.0683,5.139,5.208,5.2856,5.3632,5.4029,5.427,5.446,5.4512,5.4512,5.4512,5.4512,5.4512,5.4512,5.4512,5.4512,5.4512,5.4512,5.4512,4.4005,4.4005,4.4005,4.4005,4.4005,4.4005,4.4005,4.4005,4.4005,4.4005,4.4005,4.4005,4.4005,4.4395,4.5639,4.655,4.6643,4.8184,4.876,4.889,4.889,4.889,4.889,4.889,4.8891,4.8874,4.8821,4.8715,4.8624,4.8569,4.8532,4.8457,4.8344,4.8306,4.8324,4.8324,4.8324,4.8324,4.8324,4.8324,4.8324,4.8324,4.8324,4.8324,4.8324,4.8324,4.8324,4.8324,4.8324,4.8324,4.8636,4.8746,4.8746,4.9022,4.8967,4.8875,4.8765,4.8563,4.8434,4.8398,4.8802,4.9572,5.062,5.172,5.28,5.3185,5.3185,5.3185,5.3185,5.3185,5.3185,5.3185,5.3185,5.3017,5.2694,5.2268,5.1793,5.1131,5.0684,5.0453,5.0235,5.0011,5.0011,5.0011,5.0011,5.0011,5.0011,5.0011,5.0011,5.0011,5.0011,5.0011,5.0011,5.0011,5.0028,5.0149,5.0511,5.089,5.158,5.239,5.3253,5.3787,5.4098,5.427,5.4477,5.4512,5.4512,5.4512,5.4512,5.4512,5.4512,5.4512,5.4512,5.4512,5.4512,4.4005,4.4005,4.4005,4.4005,4.4005,4.4005,4.4005,4.4005,4.4005,4.4005,4.4005,4.4005,4.4005,4.4451,4.5602,4.6513,4.6587,4.8166,4.8742,4.889,4.889,4.889,4.889,4.8891,4.8892,4.8822,4.8768,4.866,4.855,4.8513,4.8438,4.8343,4.8306,4.8324,4.8324,4.8324,4.8324,4.8324,4.8324,4.8324,4.8324,4.8324,4.8324,4.8324,4.8324,4.8324,4.8324,4.8434,4.86,4.8618,4.9169,4.95,4.9572,4.9939,4.9921,4.9407,4.9279,4.8948,4.8526,4.8508,4.8875,4.9756,5.0986,5.2252,5.3078,5.3185,5.3185,5.3185,5.3185,5.3185,5.3185,5.3185,5.3185,5.31,5.2824,5.2408,5.1939,5.1322,5.091,5.0712,5.0443,5.0109,5.0011,5.0011,5.0011,5.0011,5.0011,5.0011,5.0011,5.0011,5.0011,5.0011,5.0011,5.0011,5.0011,5.0166,5.0338,5.0649,5.1183,5.2097,5.3046,5.3477,5.3873,5.4287,5.4512,5.4512,5.4512,5.4512,5.4512,5.4512,5.4512,5.4512,5.4512,5.4512,5.4512,4.4005,4.4005,4.4005,4.4005,4.4005,4.4005,4.4005,4.4005,4.4005,4.4005,4.4005,4.4005,4.4005,4.4469,4.5658,4.6513,4.6735,4.8166,4.8723,4.889,4.889,4.889,4.889,4.8873,4.8856,4.8786,4.8715,4.8624,4.8494,4.8438,4.8363,4.8306,4.8324,4.8324,4.8324,4.8361,4.8379,4.8361,4.8343,4.8324,4.8324,4.8324,4.8324,4.8324,4.8324,4.8636,4.8985,4.9115,4.9389,4.9756,5.0123,5.027,5.0362,5.0747,5.0453,4.9793,4.9702,4.9205,4.871,4.8857,4.9664,5.0986,5.2105,5.2876,5.3206,5.3185,5.3185,5.3185,5.3185,5.3185,5.3185,5.3185,5.3185,5.3143,5.2952,5.2586,5.2108,5.1551,5.1026,5.0776,5.0415,5.0022,5.0011,5.0011,5.0011,5.0011,5.0011,5.0011,5.0011,5.0011,5.0011,5.0011,5.0011,5.0011,5.0011,5.0062,5.0149,5.0459,5.0821,5.1632,5.2511,5.3253,5.3667,5.4115,5.4494,5.4512,5.4512,5.4512,5.4512,5.4512,5.4512,5.4512,5.4512,5.4512,5.4512,4.4005,4.4005,4.4005,4.4005,4.4005,4.4005,4.4005,4.4005,4.4005,4.4005,4.4005,4.4005,4.4005,4.4469,4.5695,4.6494,4.694,4.8054,4.8704,4.889,4.889,4.889,4.889,4.8873,4.882,4.8732,4.8642,4.855,4.8438,4.8325,4.8306,4.8324,4.8324,4.8324,4.8379,4.8563,4.8673,4.871,4.8967,4.9022,4.9114,4.9132,4.915,4.9187,4.9224,4.9426,4.9829,4.9976,5.016,5.0582,5.0949,5.1132,5.1242,5.1224,5.0894,5.0343,4.9848,4.9517,4.9169,4.9536,5.0545,5.1665,5.2601,5.3059,5.3185,5.3185,5.3185,5.3185,5.3185,5.3185,5.3185,5.3185,5.3185,5.3164,5.3164,5.2868,5.2408,5.1891,5.1322,5.0857,5.0425,5.0011,5.0011,5.0011,5.0011,5.0011,5.0011,5.0011,5.0011,5.0011,5.0011,5.0011,5.0011,5.0011,5.0011,5.0045,5.008,5.0131,5.0511,5.0994,5.177,5.2563,5.3322,5.3787,5.4132,5.4408,5.4512,5.4512,5.4512,5.4512,5.4512,5.4512,5.4512,5.4512,5.4512,4.4005,4.4005,4.4005,4.4005,4.4005,4.4005,4.4005,4.4005,4.4005,4.4005,4.4005,4.4005,4.4079,4.4469,4.5862,4.6513,4.7014,4.8184,4.889,4.889,4.889,4.889,4.889,4.8874,4.8785,4.8641,4.8569,4.8495,4.8343,4.8324,4.8324,4.8324,4.8324,4.8324,4.8398,4.9114,4.95,4.9647,5.0178,5.0306,5.0435,5.038,5.0362,5.0343,5.0325,5.0398,5.0692,5.0784,5.0967,5.1279,5.1756,5.194,5.1995,5.2417,5.1958,5.0802,5.0692,5.0325,4.9756,5.0398,5.1206,5.205,5.2913,5.3148,5.3185,5.3185,5.3185,5.3185,5.3185,5.3185,5.3185,5.3185,5.3185,5.3185,5.3185,5.3017,5.254,5.2221,5.1651,5.0973,5.0425,4.9993,4.9993,5.0011,5.0011,5.0011,5.0011,5.0011,5.0011,5.0011,5.0011,5.0011,5.0011,5.0011,5.0011,5.0011,5.0011,5.0028,5.0218,5.07,5.1136,5.1839,5.258,5.3322,5.3822,5.4149,5.4356,5.4512,5.4512,5.4512,5.4512,5.4512,5.4512,5.4512,5.4512,4.4005,4.4005,4.4005,4.4005,4.4005,4.4005,4.4005,4.4005,4.4005,4.4005,4.4005,4.4005,4.4376,4.5064,4.59,4.6754,4.7441,4.8221,4.889,4.889,4.889,4.889,4.8891,4.8856,4.875,4.8624,4.8569,4.8458,4.8324,4.8324,4.8324,4.8324,4.8324,4.8324,4.8343,4.871,4.8912,4.9519,4.9904,5.0178,5.0747,5.0857,5.0894,5.0912,5.0949,5.1151,5.1536,5.1591,5.1775,5.2142,5.2637,5.2692,5.2582,5.2858,5.194,5.1059,5.0857,5.1004,5.1041,5.1573,5.1958,5.2582,5.2947,5.3185,5.3185,5.3185,5.3185,5.3185,5.3185,5.3185,5.3185,5.3185,5.3185,5.3185,5.3143,5.2912,5.2586,5.2361,5.1939,5.1184,5.0564,5.0235,5.008,4.9993,5.0011,5.0011,5.0011,5.0011,5.0011,5.0011,5.0011,5.0011,5.0011,5.0011,5.0011,5.0011,5.0011,5.0011,5.0131,5.0424,5.089,5.1321,5.2063,5.2908,5.3425,5.3891,5.4149,5.4356,5.4477,5.4512,5.4512,5.4512,5.4512,5.4512,5.4512,4.4005,4.4005,4.4005,4.4005,4.4005,4.4005,4.4005,4.4005,4.4005,4.4005,4.4005,4.4023,4.4469,4.5305,4.6122,4.694,4.7738,4.8519,4.889,4.889,4.889,4.889,4.8891,4.8857,4.8768,4.8642,4.8532,4.8458,4.8324,4.8324,4.8324,4.8324,4.8324,4.8324,4.8398,4.8655,4.9058,4.9721,5.018,5.0857,5.1279,5.1518,5.1738,5.1738,5.1793,5.194,5.227,5.2509,5.2637,5.3038,5.3185,5.3185,5.2968,5.2435,5.1756,5.1353,5.1279,5.1499,5.1793,5.2325,5.2656,5.3059,5.3185,5.3185,5.3185,5.3185,5.3185,5.3185,5.3185,5.3185,5.3185,5.3185,5.3185,5.3185,5.3121,5.2912,5.2806,5.2608,5.2155,5.1416,5.0803,5.0481,5.0138,5.0051,5.0011,5.0011,5.0011,5.0011,5.0011,5.0011,5.0011,5.0011,5.0011,5.0011,5.0011,5.0011,5.0011,5.0011,5.0131,5.0269,5.0511,5.0959,5.1735,5.239,5.277,5.3218,5.3873,5.4201,5.4356,5.446,5.4512,5.4512,5.4512,5.4512,5.4512,4.4005,4.4005,4.4005,4.4005,4.4005,4.4005,4.4005,4.4005,4.4005,4.4005,4.4005,4.4005,4.4581,4.5398,4.6178,4.7014,4.7831,4.8612,4.8816,4.889,4.889,4.889,4.8891,4.8874,4.8768,4.866,4.855,4.8458,4.8324,4.8324,4.8324,4.8324,4.8324,4.8324,4.8508,4.8765,4.9224,4.9776,5.0639,5.1279,5.1738,5.2527,5.269,5.2726,5.2782,5.2818,5.2983,5.3038,5.3075,5.3185,5.3185,5.3148,5.2894,5.2362,5.2105,5.1924,5.1811,5.1977,5.2252,5.2803,5.2983,5.3167,5.3185,5.3185,5.3185,5.3185,5.3185,5.3185,5.3185,5.3185,5.3185,5.3185,5.3185,5.3185,5.3185,5.3121,5.306,5.2761,5.2291,5.1676,5.1079,5.063,5.0149,5.0011,5.0011,5.0011,5.0011,5.0011,5.0011,5.0011,5.0011,5.0011,5.0011,5.0011,5.0011,5.0011,5.0011,5.0011,5.0011,5.0131,5.0355,5.0562,5.1132,5.1649,5.1977,5.2494,5.3149,5.377,5.427,5.4339,5.4305,5.4512,5.4512,5.4512,5.4512,4.4005,4.4005,4.4005,4.4005,4.4005,4.4005,4.4005,4.4005,4.4005,4.4005,4.4005,4.4005,4.4822,4.6122,4.6401,4.7367,4.8184,4.876,4.8853,4.889,4.889,4.889,4.8891,4.8857,4.875,4.8624,4.8532,4.8458,4.8343,4.8324,4.8324,4.8324,4.8324,4.8324,4.8398,4.8545,4.9022,4.9647,5.06,5.1279,5.1977,5.2692,5.2983,5.3167,5.3185,5.3185,5.3185,5.3185,5.3185,5.3185,5.3185,5.3041,5.2307,5.1628,5.1151,5.1224,5.1628,5.2215,5.2766,5.3078,5.3185,5.3185,5.3185,5.3185,5.3185,5.3185,5.3185,5.3185,5.3185,5.3185,5.3185,5.3185,5.3185,5.3185,5.3185,5.3185,5.3143,5.3017,5.2518,5.1891,5.1288,5.063,5.0149,5.0011,5.0011,5.0011,5.0011,5.0011,5.0011,5.0011,5.0011,5.0011,5.0011,5.0011,5.0011,5.0011,5.0011,5.0011,5.0011,5.0011,5.0114,5.0338,5.0585,5.0981,5.1545,5.1977,5.2442,5.3046,5.3667,5.3942,5.3977,5.4287,5.4494,5.4443,5.4374,4.4005,4.4005,4.4005,4.4005,4.4005,4.4005,4.4005,4.4005,4.4005,4.4005,4.4042,4.4395,4.5249,4.6382,4.6884,4.7664,4.8779,4.8853,4.889,4.889,4.889,4.889,4.8874,4.8857,4.875,4.8624,4.8532,4.8458,4.8363,4.8324,4.8324,4.8324,4.8324,4.8324,4.8343,4.8398,4.8581,4.915,4.9866,5.0692,5.1499,5.2307,5.2766,5.3151,5.3148,5.3148,5.3185,5.3185,5.3185,5.3075,5.3041,5.2546,5.2013,5.1536,5.1334,5.1518,5.2123,5.2656,5.3059,5.313,5.3185,5.3185,5.3185,5.3185,5.3185,5.3185,5.3185,5.3185,5.3185,5.3185,5.3185,5.3185,5.3185,5.3185,5.3185,5.3185,5.3185,5.3185,5.2694,5.2078,5.1391,5.0675,5.0263,5.0109,5.0011,5.0011,5.0011,5.0011,5.0011,5.0011,5.0011,5.0011,5.0011,5.0011,5.0011,5.0011,5.0011,5.0011,5.0011,5.0011,5.0011,5.008,5.0292,5.0735,5.1235,5.1545,5.1787,5.239,5.2959,5.3166,5.3287,5.3356,5.3718,5.4201,5.4132,4.4005,4.4005,4.4005,4.4005,4.4005,4.4005,4.4005,4.4005,4.4005,4.4005,4.4153,4.4896,4.5658,4.6513,4.7181,4.7999,4.8704,4.889,4.889,4.889,4.889,4.889,4.889,4.8873,4.8767,4.8641,4.855,4.8476,4.8363,4.8324,4.8324,4.8324,4.8324,4.8324,4.8324,4.8324,4.8434,4.8618,4.9187,4.9884,5.0692,5.1499,5.227,5.2913,5.302,5.3057,5.3148,5.3167,5.3151,5.2876,5.2546,5.2068,5.1793,5.1924,5.1885,5.2142,5.2601,5.2949,5.3148,5.3185,5.3185,5.3185,5.3185,5.3185,5.3185,5.3185,5.3185,5.3185,5.3185,5.3185,5.3185,5.3185,5.3185,5.3185,5.3185,5.3185,5.3185,5.3143,5.2806,5.2197,5.1569,5.0884,5.0387,5.0235,5.0011,5.0011,5.0011,5.0011,5.0011,5.0011,5.0011,5.0011,5.0011,5.0011,5.0011,5.0011,5.0011,5.0011,5.0011,5.0011,5.0011,5.0011,5.0011,5.039,5.0752,5.0873,5.1149,5.1718,5.2114,5.2235,5.2321,5.2274,5.2705,5.3442,5.3563,4.4005,4.4005,4.4005,4.4005,4.4005,4.4005,4.4005,4.4005,4.4005,4.4005,4.4172,4.4915,4.5732,4.655,4.7423,4.8221,4.8742,4.889,4.889,4.889,4.889,4.889,4.889,4.8873,4.8785,4.866,4.8569,4.8495,4.8363,4.8324,4.8324,4.8324,4.8324,4.8324,4.8324,4.8324,4.8324,4.8343,4.86,4.915,4.9867,5.0674,5.1444,5.2013,5.2289,5.2601,5.2784,5.3075,5.2766,5.2344,5.216,5.1683,5.1132,5.1665,5.1961,5.2142,5.2784,5.3075,5.3185,5.3185,5.3185,5.3185,5.3185,5.3185,5.3185,5.3185,5.3185,5.3185,5.3185,5.3185,5.3185,5.3185,5.3185,5.3185,5.3203,5.3203,5.3222,5.3093,5.2923,5.2392,5.1772,5.1184,5.0675,5.032,5.008,5.0011,5.0011,5.0011,5.0011,5.0011,5.0011,5.0011,5.0011,5.0011,5.0011,5.0011,5.0011,5.0011,5.0011,5.0011,5.0011,5.0011,5.0011,5.0011,5.02,5.039,5.0631,5.0959,5.1269,5.139,5.155,5.1619,5.1826,5.2442,5.2498,4.4005,4.4005,4.4005,4.4005,4.4005,4.4005,4.4005,4.4005,4.4005,4.4005,4.4228,4.5231,4.6085,4.6735,4.7683,4.8333,4.8853,4.889,4.889,4.889,4.889,4.889,4.889,4.8873,4.8767,4.8641,4.8495,4.8401,4.8324,4.8324,4.8324,4.8324,4.8324,4.8324,4.8324,4.8324,4.8324,4.8324,4.8324,4.8618,4.917,4.9829,5.0655,5.1206,5.1573,5.183,5.1903,5.2139,5.1903,5.1591,5.1426,5.1646,5.1444,5.1793,5.2179,5.2546,5.2949,5.3185,5.3185,5.3185,5.3185,5.3185,5.3185,5.3185,5.3185,5.3185,5.3185,5.3185,5.3185,5.3185,5.3185,5.3185,5.3185,5.3185,5.3259,5.3314,5.361,5.3803,5.3525,5.3083,5.2297,5.1314,5.0793,5.0246,5.008,5.0011,5.0011,5.0011,5.0011,5.0011,5.0011,5.0011,5.0011,5.0011,5.0011,5.0011,5.0011,5.0011,5.0011,5.0011,5.0011,5.0011,5.0011,5.0011,5.0011,5.0062,5.0304,5.0545,5.0545,5.0614,5.0856,5.108,5.1287,5.1425,5.139,4.4005,4.4005,4.4005,4.4005,4.4005,4.4005,4.4005,4.4005,4.4005,4.4005,4.4246,4.5732,4.6401,4.7033,4.8129,4.8612,4.889,4.889,4.889,4.889,4.889,4.889,4.889,4.8873,4.8767,4.8587,4.8439,4.8363,4.8324,4.8324,4.8324,4.8324,4.8324,4.8324,4.8324,4.8324,4.8324,4.8324,4.8324,4.8324,4.8655,4.9003,4.9811,5.0362,5.0674,5.0692,5.0765,5.0839,5.0839,5.0986,5.1114,5.1463,5.183,5.2142,5.2564,5.2968,5.3075,5.3185,5.3185,5.3185,5.3185,5.3185,5.3185,5.3185,5.3185,5.3185,5.3185,5.3185,5.3185,5.3185,5.3185,5.3185,5.3185,5.3314,5.3405,5.3592,5.4014,5.4326,5.3967,5.3575,5.2618,5.1554,5.0973,5.0425,5.012,5.0051,5.0011,5.0011,5.0011,5.0011,5.0011,5.0011,5.0011,5.0011,5.0011,5.0011,5.0011,5.0011,5.0011,5.0011,5.0011,5.0011,5.0011,5.0011,5.0011,5.0011,5.0011,5.0183,5.0114,5.0097,5.0304,5.058,5.0511,5.058,5.0338,4.4005,4.4005,4.4005,4.4005,4.4005,4.4005,4.4005,4.4005,4.4005,4.4005,4.4432,4.5639,4.6513,4.6568,4.8184,4.8872,4.889,4.889,4.889,4.889,4.889,4.889,4.8873,4.8838,4.8767,4.8605,4.842,4.8343,4.8324,4.8324,4.8324,4.8324,4.8324,4.8324,4.8324,4.8324,4.8324,4.8324,4.8324,4.8324,4.8324,4.8655,4.9003,4.9482,4.9849,5.0233,5.0582,5.0784,5.082,5.0986,5.1371,5.1756,5.216,5.2546,5.2949,5.3078,5.3185,5.3185,5.3185,5.3185,5.3185,5.3185,5.3185,5.3185,5.3185,5.3185,5.3185,5.3185,5.3185,5.3185,5.3185,5.3185,5.3203,5.3555,5.3757,5.4087,5.4454,5.4363,5.4107,5.3494,5.2702,5.1951,5.1416,5.0857,5.0274,5.0178,4.9993,5.0011,5.0011,5.0011,5.0011,5.0011,5.0011,5.0011,5.0011,5.0011,5.0011,5.0011,5.0011,5.0011,5.0011,5.0011,5.0011,5.0011,5.0011,5.0011,5.0011,5.0011,5.0011,5.0045,5.0028,5.0097,5.0011,5.0011,5.0011]}]]